[[{"header":{"parameterUnit":"m.s-1","parameterCategory":1,"la1":31.0,"la2":29.5877,"lo1":-88.7671,"lo2":-86.6584,"dx":0.0162,"dy":0.0185,"nx":115,"ny":88,"refTime":"2022-12-04T18:00:00:Z","depth":0,"parameterNumber":2,"parameterNumberName":"U-component_of_WINDS"},"data":[0.0,0.0,0.0,0.0,0.0,0.0,0.0,0.0,0.0,0.0,0.0,0.0,0.0,0.0,0.0,0.0,0.0,0.0,0.0,0.0,0.0,0.0,0.0,0.0,0.0,0.0,0.0,0.0,0.0,0.0,0.0,0.0,0.0,0.0,0.0,0.0,0.0,0.0,0.0,0.0,0.0,0.0,0.0,0.0,0.0,0.0,0.0,0.0,0.0,0.0,0.0,0.0,0.0,0.0,0.0,0.0,0.0,0.0,0.0,0.0,0.0,0.0,0.0,0.0,0.0,0.0,0.0,0.0,0.0,0.0,0.0,0.0,0.0,0.0,0.0,0.0,0.0,0.0,0.0,0.0,0.0,0.0,0.0,0.0,0.0,0.0,0.0,0.0,0.0,0.0,0.0,0.0,0.0,0.0,0.0,0.0,0.0,0.0,0.0,0.0,0.0,0.0,0.0,0.0,0.0,0.0,0.0,0.0,0.0,0.0,0.0,0.0,0.0,0.0,0.0,0.0,0.0,0.0,0.0,0.0,0.0,0.0,0.0,0.0,0.0,0.0,0.0,0.0,0.0,0.0,0.0,0.0,0.0,0.0,0.0,0.0,0.0,0.0,0.0,0.0,0.0,0.0,0.0,0.0,0.0,0.0,0.0,0.0,0.0,0.0,0.0,0.0,0.0,0.0,0.0,0.0,0.0,0.0,0.0,0.0,0.0,0.0,0.0,0.0,0.0,0.0,0.0,0.0,0.0,0.0,0.0,0.0,0.0,0.0,0.0,0.0,0.0,0.0,0.0,0.0,0.0,0.0,0.0,0.0,0.0,0.0,0.0,0.0,0.0,0.0,0.0,0.0,0.0,0.0,0.0,0.0,0.0,0.0,0.0,0.0,0.0,0.0,0.0,0.0,0.0,0.0,0.0,0.0,0.0,0.0,0.0,0.0,0.0,0.0,0.0,0.0,0.0,0.0,0.0,0.0,0.0,0.0,0.0,0.0,0.0,0.0,0.0,0.0,0.0,0.0,0.0,0.0,0.0,0.0,0.0,0.0,0.0,0.0,0.0,0.0,0.0,0.0,0.0,0.0,0.0,0.0,0.0,0.0,0.0,0.0,0.0,0.0,0.0,0.0,0.0,0.0,0.0,0.0,0.0,0.0,0.0,0.0,0.0,0.0,0.0,0.0,0.0,0.0,0.0,0.0,0.0,0.0,0.0,0.0,0.0,0.0,0.0,0.0,0.0,0.0,0.0,0.0,0.0,0.0,0.0,0.0,0.0,0.0,0.0,0.0,0.0,0.0,0.0,0.0,0.0,0.0,0.0,0.0,0.0,0.0,0.0,0.0,0.0,0.0,0.0,0.0,0.0,0.0,0.0,0.0,0.0,0.0,0.0,0.0,0.0,0.0,0.0,0.0,0.0,0.0,0.0,0.0,0.0,0.0,0.0,0.0,0.0,0.0,0.0,0.0,0.0,0.0,0.0,0.0,0.0,0.0,0.0,0.0,0.0,0.0,0.0,0.0,0.0,0.0,0.0,0.0,0.0,0.0,0.0,0.0,0.0,0.0,0.0,0.0,0.0,0.0,0.0,0.0,0.0,0.0,0.0,0.0,0.0,0.0,0.0,0.0,0.0,0.0,0.0,0.0,0.0,0.0,0.0,0.0,0.0,0.0,0.0,0.0,0.0,0.0,0.0,0.0,0.0,0.0,0.0,0.0,0.0,0.0,0.0,0.0,0.0,0.0,0.0,0.0,0.0,0.0,0.0,0.0,0.0,0.0,0.0,0.0,0.0,0.0,0.0,0.0,0.0,0.0,0.0,0.0,0.0,0.0,0.0,0.0,0.0,0.0,0.0,0.0,0.0,0.0,0.0,0.0,0.0,0.0,0.0,0.0,0.0,0.0,0.0,0.0,0.0,0.0,0.0,0.0,0.0,0.0,0.0,0.0,0.0,0.0,0.0,0.0,0.0,0.0,0.0,0.0,0.0,0.0,0.0,0.0,0.0,0.0,0.0,0.0,0.0,0.0,0.0,0.0,0.0,0.0,0.0,0.0,0.0,0.0,0.0,0.0,0.0,0.0,0.0,0.0,0.0,0.0,0.0,0.0,0.0,0.0,0.0,0.0,0.0,0.0,0.0,0.0,0.0,0.0,0.0,0.0,0.0,0.0,0.0,0.0,0.0,0.0,0.0,0.0,0.0,0.0,0.0,0.0,0.0,0.0,0.0,0.0,0.0,0.0,0.0,0.0,0.0,0.0,0.0,0.0,0.0,0.0,0.0,0.0,0.0,0.0,0.0,0.0,0.0,0.0,0.0,0.0,0.0,0.0,0.0,0.0,0.0,0.0,0.0,0.0,0.0,0.0,0.0,0.0,0.0,0.0,0.0,0.0,0.0,0.0,0.0,0.0,0.0,0.0,0.0,0.0,0.0,0.0,0.0,0.0,0.0,0.0,0.0,0.0,0.0,0.0,0.0,0.0,0.0,0.0,0.0,0.0,0.0,0.0,0.0,0.0,0.0,0.0,0.0,0.0,0.0,0.0,0.0,0.0,0.0,0.0,0.0,0.0,0.0,0.0,0.0,0.0,0.0,0.0,0.0,0.0,0.0,0.0,0.0,0.0,0.0,0.0,0.0,0.0,0.0,0.0,0.0,0.0,0.0,0.0,0.0,0.0,0.0,0.0,0.0,0.0,0.0,0.0,0.0,0.0,0.0,0.0,0.0,0.0,0.0,0.0,0.0,0.0,0.0,0.0,0.0,0.0,0.0,0.0,0.0,0.0,0.0,0.0,0.0,0.0,0.0,0.0,0.0,0.0,0.0,0.0,0.0,0.0,0.0,0.0,0.0,0.0,0.0,0.0,0.0,0.0,0.0,0.0,0.0,0.0,0.0,0.0,0.0,0.0,0.0,0.0,0.0,0.0,0.0,0.0,0.0,0.0,0.0,0.0,0.0,0.0,0.0,0.0,0.0,0.0,0.0,0.0,0.0,0.0,0.0,0.0,0.0,0.0,0.0,0.0,0.0,0.0,0.0,0.0,0.0,0.0,0.0,0.0,0.0,0.0,0.0,0.0,0.0,0.0,0.0,0.0,0.0,0.0,0.0,0.0,0.0,0.0,0.0,0.0,0.0,0.0,0.0,0.0,0.0,0.0,0.0,0.0,0.0,0.0,0.0,0.0,0.0,0.0,0.0,0.0,0.0,0.0,0.0,0.0,0.0,0.0,0.0,0.0,0.0,0.0,0.0,0.0,0.0,0.0,0.0,0.0,0.0,0.0,0.0,0.0,0.0,0.0,0.0,0.0,0.0,0.0,0.0,0.0,0.0,0.0,0.0,0.0,0.0,0.0,0.0,0.0,0.0,0.0,0.0,0.0,0.0,0.0,0.0,0.0,0.0,0.0,0.0,0.0,0.0,0.0,0.0,0.0,0.0,0.0,0.0,0.0,0.0,0.0,0.0,0.0,0.0,0.0,0.0,0.0,0.0,0.0,0.0,0.0,0.0,0.0,0.0,0.0,0.0,0.0,0.0,0.0,0.0,0.0,0.0,0.0,0.0,0.0,0.0,0.0,0.0,0.0,0.0,0.0,0.0,0.0,0.0,0.0,0.0,0.0,0.0,0.0,0.0,0.0,0.0,0.0,0.0,0.0,0.0,0.0,0.0,0.0,0.0,0.0,0.0,0.0,0.0,0.0,0.0,0.0,0.0,0.0,0.0,0.0,0.0,0.0,0.0,0.0,0.0,0.0,0.0,0.0,0.0,0.0,0.0,0.0,0.0,0.0,0.0,0.0,0.0,0.0,0.0,0.0,0.0,0.0,0.0,0.0,0.0,0.0,0.0,0.0,0.0,0.0,0.0,0.0,0.0,0.0,0.0,0.0,0.0,0.0,0.0,0.0,0.0,0.0,0.0,0.0,0.0,0.0,0.0,0.0,0.0,0.0,0.0,0.0,0.0,0.0,0.0,0.0,0.0,0.0,0.0,0.0,0.0,0.0,0.0,0.0,0.0,0.0,0.0,0.0,0.0,0.0,0.0,0.0,0.0,0.0,0.0,0.0,0.0,0.0,0.0,0.0,0.0,0.0,0.0,0.0,0.0,0.0,0.0,0.0,0.0,0.0,0.0,0.0,0.0,0.0,0.0,0.0,0.0,0.0,0.0,0.0,0.0,0.0,0.0,0.0,0.0,0.0,0.0,0.0,0.0,0.0,0.0,0.0,0.0,0.0,0.0,0.0,0.0,0.0,0.0,0.0,0.0,0.0,0.0,0.0,-2.3644,0.0,0.0,0.0,-2.0546,0.0,0.0,0.0,0.0,0.0,0.0,0.0,0.0,0.0,0.0,0.0,0.0,0.0,0.0,0.0,0.0,0.0,0.0,0.0,0.0,0.0,0.0,0.0,0.0,0.0,0.0,0.0,0.0,0.0,0.0,0.0,0.0,0.0,0.0,0.0,0.0,0.0,0.0,0.0,0.0,0.0,0.0,0.0,0.0,0.0,0.0,0.0,0.0,0.0,0.0,0.0,0.0,0.0,0.0,0.0,0.0,0.0,0.0,0.0,0.0,0.0,0.0,0.0,0.0,0.0,0.0,0.0,0.0,0.0,0.0,0.0,0.0,0.0,0.0,0.0,0.0,0.0,0.0,0.0,0.0,0.0,0.0,0.0,0.0,0.0,0.0,0.0,0.0,0.0,0.0,0.0,0.0,0.0,0.0,0.0,0.0,0.0,0.0,0.0,0.0,0.0,0.0,0.0,0.0,0.0,0.0,0.0,0.0,0.0,0.0,-2.3142,-2.2318,-2.1908,-2.1325,-2.0527,0.0,0.0,0.0,0.0,0.0,0.0,0.0,0.0,0.0,0.0,0.0,0.0,0.0,0.0,0.0,0.0,0.0,0.0,0.0,0.0,0.0,0.0,0.0,0.0,0.0,0.0,0.0,0.0,0.0,0.0,0.0,0.0,0.0,0.0,0.0,0.0,0.0,0.0,0.0,0.0,0.0,0.0,0.0,0.0,0.0,0.0,0.0,0.0,0.0,0.0,0.0,0.0,0.0,0.0,0.0,0.0,0.0,0.0,0.0,0.0,0.0,0.0,0.0,0.0,0.0,0.0,0.0,0.0,0.0,0.0,0.0,0.0,0.0,0.0,0.0,0.0,0.0,0.0,0.0,0.0,0.0,0.0,0.0,0.0,0.0,0.0,0.0,0.0,0.0,0.0,0.0,0.0,0.0,0.0,0.0,0.0,0.0,0.0,0.0,0.0,0.0,0.0,0.0,0.0,0.0,0.0,0.0,0.0,0.0,0.0,0.0,0.0,-2.152,-2.1151,-2.0551,0.0,0.0,0.0,0.0,0.0,0.0,0.0,0.0,0.0,0.0,0.0,0.0,0.0,0.0,0.0,0.0,0.0,0.0,0.0,0.0,0.0,0.0,0.0,0.0,0.0,0.0,0.0,0.0,0.0,0.0,0.0,0.0,0.0,0.0,0.0,0.0,0.0,0.0,0.0,0.0,0.0,0.0,0.0,0.0,0.0,0.0,0.0,0.0,0.0,0.0,0.0,0.0,0.0,0.0,0.0,0.0,0.0,0.0,0.0,0.0,0.0,0.0,0.0,0.0,0.0,0.0,0.0,0.0,0.0,0.0,0.0,0.0,0.0,0.0,0.0,0.0,0.0,0.0,0.0,0.0,0.0,0.0,0.0,0.0,0.0,0.0,0.0,0.0,0.0,0.0,0.0,0.0,0.0,0.0,0.0,0.0,0.0,0.0,0.0,0.0,0.0,0.0,0.0,0.0,0.0,0.0,0.0,0.0,0.0,0.0,-2.1762,-2.1694,-2.0995,0.0,-2.0508,0.0,0.0,0.0,0.0,0.0,0.0,0.0,0.0,0.0,0.0,0.0,0.0,0.0,0.0,0.0,0.0,0.0,0.0,0.0,0.0,0.0,0.0,0.0,0.0,0.0,0.0,0.0,0.0,0.0,0.0,0.0,0.0,0.0,0.0,0.0,0.0,0.0,0.0,0.0,0.0,0.0,0.0,0.0,0.0,0.0,0.0,0.0,0.0,0.0,0.0,0.0,0.0,0.0,0.0,0.0,0.0,0.0,0.0,0.0,0.0,0.0,0.0,0.0,0.0,0.0,0.0,0.0,0.0,0.0,0.0,0.0,0.0,0.0,0.0,0.0,0.0,0.0,0.0,0.0,0.0,0.0,0.0,0.0,0.0,0.0,0.0,0.0,0.0,0.0,0.0,0.0,0.0,0.0,0.0,0.0,0.0,0.0,0.0,0.0,0.0,0.0,0.0,0.0,0.0,0.0,0.0,0.0,0.0,0.0,0.0,-2.0939,-2.0993,-2.067,-2.0502,0.0,0.0,0.0,0.0,0.0,0.0,0.0,0.0,0.0,0.0,0.0,0.0,0.0,0.0,0.0,0.0,0.0,0.0,0.0,0.0,0.0,0.0,0.0,0.0,0.0,0.0,0.0,0.0,0.0,0.0,0.0,0.0,0.0,0.0,0.0,0.0,0.0,0.0,0.0,0.0,0.0,0.0,0.0,0.0,0.0,0.0,0.0,0.0,0.0,0.0,0.0,0.0,0.0,0.0,0.0,0.0,0.0,0.0,0.0,0.0,0.0,0.0,0.0,0.0,0.0,0.0,0.0,0.0,0.0,0.0,0.0,0.0,0.0,0.0,0.0,0.0,0.0,0.0,0.0,0.0,0.0,0.0,0.0,0.0,0.0,0.0,0.0,0.0,0.0,0.0,0.0,0.0,0.0,0.0,0.0,0.0,0.0,0.0,0.0,0.0,0.0,0.0,0.0,0.0,0.0,0.0,0.0,0.0,0.0,0.0,-2.039,-2.0422,-2.051,-2.0506,-2.0513,-2.0513,0.0,0.0,0.0,0.0,0.0,0.0,0.0,0.0,0.0,0.0,0.0,0.0,0.0,0.0,0.0,0.0,0.0,0.0,0.0,0.0,0.0,0.0,0.0,0.0,0.0,0.0,0.0,0.0,0.0,0.0,0.0,0.0,0.0,0.0,0.0,0.0,0.0,0.0,0.0,0.0,0.0,0.0,0.0,0.0,0.0,0.0,0.0,0.0,0.0,0.0,0.0,0.0,0.0,0.0,0.0,0.0,0.0,0.0,0.0,0.0,0.0,0.0,0.0,0.0,0.0,0.0,0.0,0.0,0.0,0.0,0.0,0.0,0.0,0.0,0.0,0.0,0.0,0.0,0.0,0.0,0.0,0.0,0.0,0.0,0.0,0.0,0.0,0.0,0.0,0.0,0.0,0.0,0.0,0.0,0.0,0.0,0.0,0.0,0.0,0.0,0.0,0.0,0.0,0.0,0.0,0.0,0.0,0.0,-2.0394,-2.041,-2.0442,-2.0507,-2.0513,-2.0506,0.0,0.0,0.0,0.0,0.0,0.0,0.0,0.0,0.0,0.0,0.0,0.0,0.0,0.0,0.0,0.0,0.0,0.0,0.0,0.0,0.0,0.0,0.0,0.0,0.0,0.0,0.0,0.0,0.0,0.0,0.0,0.0,0.0,0.0,0.0,0.0,0.0,0.0,0.0,0.0,0.0,0.0,0.0,0.0,0.0,0.0,0.0,0.0,0.0,0.0,0.0,0.0,0.0,0.0,0.0,0.0,0.0,0.0,0.0,0.0,0.0,0.0,0.0,0.0,0.0,0.0,0.0,0.0,0.0,0.0,0.0,0.0,0.0,0.0,0.0,0.0,0.0,0.0,0.0,0.0,0.0,0.0,0.0,0.0,0.0,0.0,0.0,0.0,0.0,0.0,0.0,0.0,0.0,0.0,0.0,0.0,0.0,0.0,0.0,0.0,0.0,0.0,0.0,0.0,0.0,0.0,0.0,0.0,0.0,-2.039,-2.0439,-2.0471,-2.0502,-2.05,-2.0509,0.0,0.0,0.0,0.0,0.0,0.0,0.0,0.0,0.0,0.0,0.0,0.0,0.0,0.0,0.0,0.0,0.0,0.0,0.0,0.0,0.0,0.0,0.0,0.0,0.0,0.0,0.0,0.0,0.0,0.0,0.0,0.0,0.0,0.0,0.0,0.0,0.0,0.0,0.0,0.0,0.0,0.0,0.0,0.0,0.0,0.0,0.0,0.0,0.0,0.0,0.0,0.0,0.0,0.0,0.0,0.0,0.0,0.0,0.0,0.0,0.0,0.0,0.0,0.0,0.0,0.0,0.0,0.0,0.0,0.0,0.0,0.0,0.0,0.0,0.0,0.0,0.0,0.0,0.0,0.0,0.0,0.0,0.0,0.0,0.0,0.0,0.0,0.0,0.0,0.0,0.0,0.0,0.0,0.0,0.0,0.0,0.0,0.0,0.0,0.0,0.0,0.0,0.0,0.0,0.0,0.0,0.0,0.0,0.0,-2.0791,-2.0874,-2.0905,-2.0917,-2.091,-2.0786,0.0,0.0,0.0,0.0,0.0,0.0,0.0,0.0,0.0,0.0,0.0,0.0,0.0,0.0,0.0,0.0,0.0,0.0,0.0,0.0,0.0,0.0,0.0,0.0,0.0,0.0,0.0,0.0,0.0,0.0,0.0,0.0,0.0,0.0,0.0,0.0,0.0,0.0,0.0,0.0,0.0,0.0,0.0,0.0,0.0,0.0,0.0,0.0,0.0,0.0,0.0,0.0,0.0,0.0,0.0,0.0,0.0,0.0,0.0,0.0,0.0,0.0,0.0,0.0,0.0,0.0,0.0,0.0,0.0,0.0,0.0,0.0,0.0,0.0,0.0,0.0,0.0,0.0,0.0,0.0,0.0,0.0,0.0,0.0,0.0,0.0,0.0,0.0,0.0,0.0,0.0,0.0,0.0,0.0,0.0,0.0,0.0,0.0,0.0,0.0,0.0,0.0,0.0,0.0,0.0,0.0,0.0,0.0,-2.0834,-2.1636,-2.1697,-2.1741,-2.1813,-2.1785,-2.137,0.0,0.0,0.0,0.0,0.0,0.0,0.0,0.0,0.0,0.0,0.0,0.0,0.0,0.0,0.0,0.0,0.0,0.0,0.0,0.0,0.0,0.0,0.0,0.0,0.0,0.0,0.0,0.0,0.0,0.0,0.0,0.0,0.0,0.0,0.0,0.0,0.0,0.0,0.0,0.0,0.0,0.0,0.0,0.0,0.0,0.0,0.0,0.0,0.0,0.0,0.0,0.0,0.0,0.0,0.0,0.0,0.0,0.0,0.0,0.0,0.0,0.0,0.0,0.0,0.0,0.0,0.0,0.0,0.0,0.0,0.0,0.0,0.0,0.0,0.0,0.0,0.0,0.0,0.0,0.0,0.0,0.0,0.0,0.0,0.0,0.0,0.0,0.0,0.0,0.0,0.0,0.0,0.0,0.0,0.0,0.0,0.0,0.0,0.0,0.0,0.0,0.0,0.0,0.0,0.0,0.0,0.0,0.0,0.0,-2.1694,-2.2299,-2.262,-2.2682,-2.2103,-2.1685,0.0,0.0,0.0,0.0,0.0,0.0,0.0,0.0,0.0,0.0,0.0,0.0,0.0,0.0,0.0,0.0,0.0,0.0,0.0,0.0,0.0,0.0,0.0,0.0,0.0,0.0,0.0,0.0,0.0,0.0,0.0,0.0,0.0,0.0,0.0,0.0,0.0,0.0,0.0,0.0,0.0,0.0,0.0,0.0,0.0,0.0,0.0,0.0,0.0,0.0,0.0,0.0,0.0,0.0,0.0,0.0,0.0,0.0,0.0,0.0,0.0,0.0,0.0,0.0,0.0,0.0,0.0,0.0,0.0,0.0,0.0,0.0,0.0,0.0,0.0,0.0,0.0,0.0,0.0,0.0,0.0,0.0,0.0,0.0,0.0,0.0,0.0,0.0,0.0,0.0,0.0,0.0,0.0,0.0,0.0,0.0,0.0,0.0,0.0,0.0,0.0,0.0,0.0,0.0,0.0,0.0,0.0,0.0,0.0,-2.3173,-2.4008,-2.4471,-2.4516,-2.3988,-2.3087,-2.1841,0.0,0.0,0.0,0.0,0.0,0.0,0.0,0.0,0.0,0.0,0.0,0.0,0.0,0.0,0.0,0.0,0.0,0.0,0.0,0.0,0.0,0.0,0.0,0.0,0.0,0.0,0.0,0.0,0.0,0.0,0.0,0.0,0.0,0.0,0.0,0.0,0.0,0.0,0.0,0.0,0.0,0.0,0.0,0.0,0.0,0.0,0.0,0.0,0.0,0.0,0.0,0.0,0.0,0.0,0.0,0.0,0.0,0.0,0.0,0.0,0.0,0.0,0.0,0.0,0.0,0.0,0.0,0.0,0.0,0.0,0.0,0.0,0.0,0.0,0.0,0.0,0.0,0.0,0.0,0.0,0.0,0.0,0.0,0.0,0.0,0.0,0.0,0.0,0.0,0.0,0.0,0.0,0.0,0.0,0.0,0.0,0.0,0.0,0.0,0.0,0.0,0.0,0.0,0.0,0.0,0.0,0.0,0.0,-2.5892,-2.6692,-2.7073,-2.7018,-2.6845,-2.534,0.0,0.0,0.0,0.0,0.0,0.0,0.0,0.0,0.0,0.0,0.0,0.0,0.0,0.0,0.0,0.0,0.0,0.0,0.0,0.0,0.0,0.0,0.0,0.0,0.0,0.0,0.0,0.0,0.0,0.0,0.0,0.0,0.0,0.0,0.0,0.0,0.0,0.0,0.0,0.0,0.0,0.0,0.0,0.0,0.0,0.0,0.0,0.0,0.0,0.0,0.0,0.0,0.0,0.0,0.0,0.0,0.0,0.0,0.0,0.0,0.0,0.0,0.0,0.0,0.0,0.0,0.0,0.0,0.0,0.0,0.0,0.0,0.0,0.0,0.0,0.0,0.0,0.0,0.0,0.0,0.0,0.0,0.0,0.0,0.0,0.0,0.0,0.0,0.0,0.0,0.0,0.0,0.0,0.0,0.0,0.0,0.0,0.0,0.0,0.0,0.0,0.0,0.0,0.0,0.0,0.0,0.0,0.0,0.0,-2.9256,-2.9606,-2.9399,-2.8734,-2.6918,-2.5841,0.0,0.0,0.0,0.0,0.0,0.0,0.0,0.0,0.0,0.0,0.0,0.0,0.0,0.0,0.0,0.0,0.0,0.0,0.0,0.0,0.0,0.0,0.0,0.0,0.0,0.0,0.0,0.0,0.0,0.0,0.0,0.0,0.0,0.0,0.0,0.0,0.0,0.0,0.0,0.0,0.0,0.0,0.0,0.0,0.0,0.0,0.0,0.0,0.0,0.0,0.0,0.0,0.0,0.0,0.0,0.0,0.0,0.0,0.0,0.0,0.0,0.0,0.0,0.0,0.0,0.0,0.0,0.0,0.0,0.0,0.0,0.0,0.0,0.0,0.0,0.0,0.0,0.0,0.0,0.0,0.0,0.0,0.0,0.0,0.0,0.0,0.0,0.0,0.0,0.0,0.0,0.0,0.0,0.0,0.0,0.0,0.0,0.0,0.0,0.0,0.0,0.0,0.0,0.0,0.0,0.0,0.0,0.0,-2.7773,-3.0108,-3.0499,-3.062,-3.0506,-2.8701,-2.7301,0.0,0.0,0.0,0.0,0.0,0.0,0.0,0.0,0.0,0.0,0.0,0.0,0.0,0.0,0.0,0.0,0.0,0.0,0.0,0.0,0.0,0.0,0.0,0.0,0.0,0.0,0.0,0.0,0.0,0.0,0.0,0.0,0.0,0.0,0.0,0.0,0.0,0.0,0.0,0.0,0.0,0.0,0.0,0.0,0.0,0.0,0.0,0.0,0.0,0.0,0.0,0.0,0.0,0.0,0.0,0.0,0.0,0.0,0.0,0.0,0.0,0.0,0.0,0.0,0.0,0.0,0.0,0.0,0.0,0.0,0.0,0.0,0.0,0.0,0.0,0.0,0.0,0.0,0.0,0.0,0.0,0.0,0.0,0.0,0.0,0.0,0.0,0.0,0.0,0.0,0.0,0.0,0.0,0.0,0.0,0.0,0.0,0.0,0.0,0.0,0.0,0.0,0.0,0.0,0.0,0.0,0.0,0.0,-2.857,-2.9525,-3.0282,-3.1079,-3.1794,-3.1015,-2.9149,0.0,0.0,0.0,0.0,0.0,0.0,0.0,0.0,0.0,0.0,0.0,0.0,0.0,0.0,0.0,0.0,0.0,0.0,0.0,0.0,0.0,0.0,0.0,0.0,0.0,0.0,0.0,0.0,0.0,0.0,0.0,0.0,0.0,0.0,0.0,0.0,0.0,0.0,0.0,0.0,0.0,0.0,0.0,0.0,0.0,0.0,0.0,0.0,0.0,0.0,0.0,0.0,0.0,0.0,0.0,0.0,0.0,0.0,0.0,0.0,0.0,0.0,0.0,0.0,0.0,0.0,0.0,0.0,0.0,0.0,0.0,0.0,0.0,0.0,0.0,0.0,0.0,0.0,0.0,0.0,0.0,0.0,0.0,0.0,0.0,0.0,0.0,0.0,0.0,0.0,0.0,0.0,0.0,0.0,0.0,0.0,0.0,0.0,0.0,0.0,0.0,0.0,0.0,0.0,0.0,0.0,0.0,0.0,-2.8861,-3.0364,-3.0613,-3.0791,-3.0962,-3.0179,-2.9419,0.0,0.0,0.0,0.0,0.0,0.0,0.0,0.0,0.0,0.0,0.0,0.0,0.0,0.0,0.0,0.0,0.0,0.0,0.0,0.0,0.0,0.0,0.0,0.0,0.0,0.0,0.0,0.0,0.0,0.0,0.0,0.0,0.0,0.0,0.0,0.0,0.0,0.0,0.0,0.0,0.0,0.0,0.0,0.0,0.0,0.0,0.0,0.0,-2.6771,0.0,0.0,0.0,0.0,0.0,0.0,0.0,0.0,0.0,0.0,0.0,0.0,0.0,0.0,0.0,0.0,0.0,0.0,0.0,0.0,0.0,0.0,0.0,0.0,0.0,0.0,0.0,0.0,0.0,0.0,0.0,0.0,0.0,0.0,0.0,0.0,0.0,0.0,0.0,0.0,0.0,0.0,0.0,0.0,0.0,0.0,0.0,0.0,0.0,0.0,0.0,0.0,0.0,0.0,0.0,0.0,0.0,0.0,0.0,-2.8958,-3.0635,-3.0694,-3.0694,-3.0694,-3.029,-2.9702,0.0,0.0,0.0,0.0,0.0,0.0,0.0,0.0,0.0,0.0,0.0,0.0,0.0,0.0,0.0,0.0,0.0,0.0,0.0,0.0,0.0,0.0,0.0,0.0,0.0,0.0,0.0,0.0,0.0,0.0,0.0,0.0,0.0,0.0,0.0,0.0,0.0,0.0,0.0,0.0,0.0,0.0,0.0,0.0,0.0,0.0,0.0,0.0,0.0,0.0,0.0,0.0,0.0,0.0,0.0,0.0,0.0,0.0,0.0,0.0,0.0,0.0,0.0,0.0,0.0,0.0,0.0,0.0,0.0,0.0,0.0,0.0,0.0,0.0,0.0,0.0,0.0,0.0,0.0,0.0,0.0,0.0,0.0,0.0,0.0,0.0,0.0,0.0,0.0,0.0,0.0,0.0,0.0,0.0,0.0,0.0,0.0,0.0,0.0,0.0,0.0,0.0,0.0,0.0,0.0,0.0,0.0,-2.7812,-2.9078,-3.0616,-3.0694,-3.0694,-3.0694,-3.0827,-3.0046,-2.8288,0.0,0.0,0.0,0.0,0.0,0.0,0.0,0.0,0.0,0.0,0.0,0.0,0.0,0.0,0.0,0.0,0.0,0.0,0.0,0.0,0.0,0.0,0.0,0.0,0.0,0.0,0.0,0.0,0.0,0.0,0.0,0.0,0.0,0.0,0.0,0.0,0.0,0.0,-2.1434,-2.3293,0.0,0.0,0.0,0.0,0.0,0.0,0.0,0.0,-2.7134,0.0,0.0,0.0,0.0,0.0,0.0,0.0,0.0,0.0,0.0,0.0,0.0,0.0,0.0,0.0,0.0,0.0,0.0,0.0,0.0,0.0,0.0,0.0,0.0,0.0,0.0,0.0,0.0,0.0,0.0,0.0,0.0,0.0,0.0,0.0,0.0,0.0,0.0,0.0,0.0,0.0,0.0,0.0,0.0,0.0,0.0,0.0,0.0,0.0,0.0,0.0,0.0,0.0,0.0,0.0,0.0,-2.6906,-2.8398,-2.968,-3.0674,-3.0694,-3.0694,-3.0713,-3.142,-3.0656,-2.8329,0.0,0.0,0.0,0.0,0.0,0.0,0.0,0.0,0.0,0.0,0.0,0.0,0.0,0.0,0.0,0.0,0.0,0.0,0.0,0.0,0.0,0.0,0.0,0.0,0.0,0.0,0.0,0.0,0.0,0.0,0.0,0.0,0.0,0.0,0.0,0.0,0.0,0.0,0.0,-2.5642,-2.6145,0.0,0.0,0.0,0.0,0.0,0.0,0.0,0.0,-2.8357,0.0,0.0,0.0,0.0,0.0,0.0,0.0,0.0,0.0,0.0,0.0,0.0,0.0,0.0,0.0,0.0,0.0,0.0,0.0,0.0,0.0,0.0,0.0,0.0,0.0,0.0,0.0,0.0,0.0,0.0,0.0,0.0,0.0,0.0,0.0,0.0,0.0,0.0,0.0,0.0,0.0,0.0,0.0,0.0,0.0,0.0,0.0,0.0,0.0,0.0,0.0,0.0,0.0,0.0,0.0,-2.8107,-2.9447,-3.0729,-3.1992,-3.205,-3.205,-3.205,-3.2026,-3.1031,0.0,0.0,0.0,0.0,0.0,0.0,0.0,0.0,0.0,0.0,0.0,0.0,0.0,0.0,0.0,0.0,0.0,0.0,0.0,0.0,0.0,0.0,0.0,0.0,0.0,0.0,0.0,0.0,0.0,0.0,0.0,0.0,0.0,0.0,0.0,0.0,0.0,0.0,0.0,0.0,-2.7139,-2.71,-2.9243,0.0,0.0,0.0,0.0,0.0,0.0,-2.8963,-2.8112,0.0,0.0,0.0,0.0,0.0,0.0,0.0,0.0,0.0,0.0,0.0,0.0,0.0,0.0,0.0,0.0,0.0,0.0,0.0,0.0,0.0,0.0,0.0,0.0,0.0,0.0,0.0,0.0,0.0,0.0,0.0,0.0,0.0,0.0,0.0,0.0,0.0,0.0,0.0,0.0,0.0,0.0,0.0,0.0,0.0,0.0,0.0,0.0,0.0,0.0,0.0,0.0,0.0,0.0,0.0,-2.9308,-3.0616,-3.1895,-3.3235,-3.3293,-3.3293,-3.3293,-3.279,-3.1582,0.0,0.0,0.0,0.0,0.0,0.0,0.0,0.0,0.0,0.0,0.0,0.0,0.0,0.0,0.0,0.0,0.0,0.0,0.0,0.0,0.0,0.0,0.0,0.0,0.0,0.0,0.0,0.0,0.0,0.0,0.0,0.0,0.0,0.0,0.0,0.0,0.0,0.0,0.0,0.0,0.0,-2.7859,-3.0431,-2.9301,0.0,0.0,0.0,0.0,-3.0569,-2.9018,0.0,0.0,0.0,0.0,0.0,0.0,0.0,0.0,0.0,0.0,0.0,0.0,0.0,0.0,0.0,0.0,0.0,0.0,0.0,0.0,0.0,0.0,0.0,0.0,0.0,0.0,0.0,0.0,0.0,0.0,0.0,0.0,0.0,0.0,0.0,0.0,0.0,0.0,0.0,0.0,0.0,0.0,0.0,0.0,0.0,0.0,0.0,0.0,0.0,0.0,0.0,0.0,0.0,0.0,0.0,0.0,-2.9408,-3.1778,-3.3099,-3.3293,-3.3293,-3.3293,-3.3313,-3.3952,-3.2785,0.0,0.0,0.0,0.0,0.0,0.0,0.0,0.0,0.0,0.0,0.0,0.0,0.0,0.0,0.0,0.0,0.0,0.0,0.0,0.0,0.0,0.0,0.0,0.0,0.0,0.0,0.0,0.0,0.0,0.0,0.0,0.0,0.0,0.0,0.0,0.0,0.0,0.0,0.0,0.0,0.0,-2.784,-3.0451,-2.9321,-2.821,0.0,0.0,-3.0519,-3.0689,-3.0441,0.0,0.0,0.0,0.0,0.0,0.0,0.0,0.0,0.0,0.0,0.0,0.0,0.0,0.0,0.0,0.0,0.0,0.0,0.0,0.0,0.0,0.0,0.0,0.0,0.0,0.0,0.0,0.0,0.0,0.0,0.0,0.0,0.0,0.0,0.0,0.0,0.0,0.0,0.0,0.0,0.0,0.0,0.0,0.0,0.0,0.0,0.0,0.0,0.0,0.0,0.0,0.0,0.0,0.0,0.0,-2.7945,-3.0127,-3.2672,-3.4225,-3.4688,-3.4726,-3.4726,-3.4711,-3.4158,-3.2931,0.0,0.0,0.0,0.0,0.0,0.0,0.0,0.0,0.0,0.0,0.0,0.0,0.0,0.0,0.0,0.0,0.0,0.0,0.0,0.0,0.0,0.0,0.0,0.0,0.0,0.0,0.0,0.0,0.0,0.0,0.0,0.0,0.0,0.0,0.0,0.0,0.0,0.0,0.0,0.0,0.0,0.0,-3.0509,-3.057,0.0,0.0,0.0,-3.1337,-3.0782,0.0,0.0,0.0,0.0,0.0,0.0,0.0,0.0,0.0,0.0,0.0,0.0,0.0,0.0,0.0,0.0,0.0,0.0,0.0,0.0,0.0,0.0,0.0,0.0,0.0,0.0,0.0,0.0,0.0,0.0,0.0,0.0,0.0,0.0,0.0,0.0,0.0,0.0,0.0,0.0,0.0,0.0,0.0,0.0,0.0,0.0,0.0,0.0,0.0,0.0,0.0,0.0,0.0,0.0,0.0,0.0,0.0,-3.0687,-3.3425,-3.5134,-3.5775,-3.6008,-3.6129,-3.6105,-3.51,0.0,0.0,0.0,0.0,0.0,0.0,0.0,0.0,0.0,0.0,0.0,0.0,0.0,0.0,0.0,0.0,0.0,0.0,0.0,0.0,0.0,0.0,0.0,0.0,0.0,0.0,0.0,-1.8162,0.0,0.0,0.0,0.0,0.0,0.0,0.0,0.0,0.0,0.0,0.0,0.0,0.0,0.0,-2.9476,-3.121,-3.199,-3.2162,0.0,0.0,-3.2155,-3.1439,-3.0791,-2.9981,0.0,0.0,0.0,0.0,0.0,0.0,0.0,0.0,0.0,0.0,0.0,0.0,0.0,0.0,0.0,0.0,0.0,0.0,0.0,0.0,0.0,0.0,0.0,0.0,0.0,0.0,0.0,0.0,0.0,0.0,0.0,0.0,0.0,0.0,0.0,0.0,0.0,0.0,0.0,0.0,0.0,0.0,0.0,0.0,0.0,0.0,0.0,0.0,0.0,0.0,0.0,0.0,0.0,0.0,0.0,-3.073,-3.4003,-3.5754,-3.5834,-3.6615,-3.7023,-3.7042,-3.7685,-3.6507,0.0,0.0,0.0,0.0,0.0,0.0,0.0,0.0,0.0,0.0,0.0,0.0,0.0,0.0,0.0,0.0,0.0,0.0,0.0,0.0,0.0,0.0,0.0,0.0,0.0,0.0,0.0,0.0,0.0,0.0,0.0,0.0,0.0,0.0,0.0,0.0,0.0,0.0,0.0,0.0,0.0,-3.1271,-3.2986,-3.3229,-3.3226,0.0,0.0,-3.3176,-3.3044,-3.2985,-3.2385,-3.0708,0.0,0.0,0.0,0.0,0.0,0.0,0.0,0.0,0.0,0.0,0.0,0.0,0.0,0.0,0.0,0.0,0.0,0.0,0.0,0.0,0.0,0.0,0.0,0.0,0.0,0.0,0.0,0.0,0.0,0.0,0.0,0.0,0.0,0.0,0.0,0.0,0.0,0.0,0.0,0.0,0.0,0.0,0.0,0.0,0.0,0.0,0.0,0.0,0.0,0.0,0.0,0.0,0.0,-2.9195,-3.1421,-3.4811,-3.6799,-3.7326,-3.7676,-3.7859,-3.7897,-3.7692,-3.6728,0.0,0.0,0.0,0.0,0.0,0.0,0.0,0.0,0.0,0.0,0.0,0.0,0.0,0.0,0.0,0.0,0.0,0.0,0.0,0.0,0.0,0.0,0.0,0.0,0.0,0.0,0.0,0.0,-2.8411,-2.9375,-2.9485,0.0,0.0,0.0,0.0,0.0,0.0,0.0,0.0,0.0,0.0,-3.302,-3.4633,-3.488,0.0,0.0,-3.4043,-3.3825,-3.3236,-3.3169,-3.2783,-3.155,-3.0926,0.0,0.0,0.0,0.0,0.0,0.0,0.0,0.0,0.0,0.0,0.0,0.0,0.0,0.0,0.0,0.0,0.0,0.0,0.0,0.0,0.0,0.0,0.0,0.0,0.0,0.0,0.0,0.0,0.0,0.0,0.0,0.0,0.0,0.0,0.0,0.0,0.0,0.0,0.0,0.0,0.0,0.0,0.0,0.0,0.0,0.0,0.0,0.0,0.0,0.0,0.0,0.0,-2.9849,-3.2617,-3.5771,-3.7647,-3.8302,-3.8535,-3.8704,-3.8771,-3.8421,-3.7726,0.0,0.0,0.0,0.0,0.0,0.0,0.0,0.0,0.0,0.0,0.0,0.0,0.0,0.0,0.0,0.0,0.0,0.0,0.0,0.0,0.0,0.0,0.0,0.0,0.0,0.0,0.0,0.0,-3.0113,-3.0355,-2.9219,0.0,0.0,0.0,0.0,0.0,0.0,0.0,0.0,0.0,0.0,-3.5028,-3.6395,-3.6607,-3.6484,-3.6097,-3.5788,-3.5393,-3.4735,-3.4459,-3.3907,-3.2769,0.0,0.0,0.0,0.0,0.0,0.0,0.0,0.0,0.0,0.0,0.0,0.0,0.0,0.0,0.0,0.0,0.0,0.0,0.0,0.0,0.0,0.0,0.0,0.0,0.0,0.0,0.0,0.0,0.0,0.0,-2.3468,0.0,0.0,0.0,0.0,0.0,0.0,0.0,0.0,0.0,0.0,0.0,0.0,0.0,0.0,0.0,0.0,0.0,0.0,0.0,0.0,0.0,0.0,-3.0964,-3.4318,-3.6869,-3.8227,-3.836,-3.9141,-3.9617,-3.9679,-4.0402,-4.0014,-3.8328,0.0,0.0,0.0,0.0,0.0,0.0,0.0,0.0,0.0,0.0,0.0,0.0,0.0,0.0,0.0,0.0,0.0,0.0,0.0,0.0,0.0,0.0,0.0,0.0,0.0,0.0,-2.8186,-2.9766,-3.0105,0.0,0.0,0.0,0.0,0.0,0.0,0.0,0.0,0.0,0.0,-3.5976,-3.7364,-3.8316,-3.833,-3.8515,-3.9371,-3.8714,-3.8114,-3.8141,-3.7406,-3.6265,0.0,0.0,0.0,0.0,0.0,0.0,0.0,0.0,0.0,0.0,0.0,0.0,0.0,0.0,0.0,0.0,0.0,0.0,0.0,0.0,0.0,0.0,0.0,0.0,0.0,0.0,0.0,-2.7006,-2.8458,0.0,0.0,0.0,0.0,0.0,0.0,0.0,0.0,0.0,0.0,0.0,-2.9157,-2.8676,0.0,0.0,0.0,0.0,0.0,0.0,0.0,0.0,0.0,0.0,0.0,0.0,-3.2382,-3.5217,-3.779,-3.9356,-3.9932,-4.0231,-4.0445,-4.051,-4.0762,-3.9839,-3.7605,0.0,0.0,0.0,0.0,0.0,0.0,0.0,0.0,0.0,0.0,0.0,0.0,0.0,0.0,0.0,0.0,0.0,0.0,0.0,0.0,0.0,0.0,0.0,0.0,0.0,-2.9557,0.0,0.0,0.0,0.0,0.0,0.0,0.0,0.0,0.0,0.0,0.0,-3.4606,-3.6887,-3.813,-3.9136,-3.9975,-3.9563,-3.9461,0.0,0.0,0.0,0.0,0.0,0.0,0.0,0.0,0.0,0.0,0.0,0.0,0.0,0.0,-3.4827,-3.2603,-3.2184,-3.2351,-3.2847,0.0,0.0,0.0,0.0,0.0,0.0,0.0,0.0,0.0,0.0,0.0,0.0,0.0,0.0,-3.0668,0.0,-3.097,0.0,0.0,0.0,0.0,0.0,0.0,0.0,0.0,-3.0623,-3.149,-3.1802,-3.1288,-3.1332,0.0,-3.1623,-3.0346,0.0,0.0,0.0,0.0,0.0,0.0,0.0,0.0,-3.4118,-3.6947,-3.8959,-4.0228,-4.0781,-4.0809,-4.0837,-4.0902,-4.0893,-4.0111,-3.8479,-3.7603,-3.585,0.0,0.0,0.0,0.0,0.0,0.0,0.0,0.0,0.0,0.0,0.0,0.0,0.0,0.0,0.0,0.0,0.0,0.0,0.0,0.0,0.0,0.0,0.0,-3.2099,0.0,0.0,0.0,0.0,0.0,0.0,0.0,0.0,0.0,-3.2947,-3.4941,-3.7005,-3.8688,-4.01,-4.109,-4.131,0.0,0.0,0.0,0.0,0.0,0.0,0.0,-4.0887,-3.9933,-3.9552,-3.9333,-3.9175,-3.9279,-3.928,-3.8956,0.0,0.0,-3.6074,-3.574,-3.6036,-3.6255,-3.5809,-3.578,-3.6862,-3.6197,-3.5988,0.0,0.0,0.0,0.0,0.0,0.0,0.0,0.0,-3.3012,-3.4327,0.0,-3.4122,0.0,0.0,0.0,0.0,0.0,-3.2237,0.0,0.0,-3.5148,-3.521,-3.4389,-3.4347,-3.44,-3.4447,-3.3687,-3.4112,-3.5414,-3.2435,0.0,0.0,0.0,0.0,0.0,0.0,-3.6154,-3.9327,-4.0313,-4.0809,-4.0794,-4.0809,-4.0837,-4.0902,-4.0893,-4.0869,-4.0849,-4.009,-3.8933,-3.7199,-3.4747,0.0,0.0,0.0,0.0,0.0,0.0,0.0,0.0,0.0,0.0,0.0,0.0,0.0,0.0,0.0,0.0,0.0,0.0,0.0,0.0,-3.3129,0.0,0.0,0.0,0.0,0.0,0.0,0.0,0.0,0.0,0.0,-3.4808,-3.7626,-3.9758,-3.9796,0.0,0.0,0.0,0.0,-4.3679,-4.4523,-4.3956,-4.3402,-4.3369,-4.2679,-4.1789,-4.0819,0.0,0.0,-4.159,-4.2117,-4.2294,-4.1551,-4.1973,-4.1723,-3.9357,-3.9539,-3.9794,-3.9136,-3.8879,-3.8822,-3.8898,-3.8936,-3.902,-3.4063,0.0,0.0,0.0,0.0,-3.0928,-3.2613,-3.5764,-3.577,-3.6511,-3.7688,-3.6993,0.0,0.0,0.0,0.0,0.0,0.0,-3.6811,-3.6045,-3.6907,-3.6857,-3.61,-3.6074,-3.6446,-3.7081,-3.6849,-3.6996,-3.7444,-3.7135,-3.5787,-3.3538,0.0,0.0,0.0,0.0,-3.7909,-3.9443,-4.0352,-4.0809,-4.0794,-4.0809,-4.0833,-4.0893,-4.0903,-4.0888,-4.0888,-4.0679,-4.0066,-3.8971,-3.7124,0.0,0.0,0.0,0.0,0.0,0.0,0.0,0.0,0.0,0.0,0.0,0.0,0.0,0.0,0.0,0.0,0.0,0.0,0.0,-3.139,-3.3993,-3.5097,0.0,0.0,0.0,0.0,0.0,0.0,0.0,0.0,0.0,-3.8937,-3.9926,-4.0855,0.0,0.0,-4.3403,-4.3146,-4.3283,-4.3728,-4.4587,-4.4441,0.0,-4.5014,-4.4807,-4.4261,-4.336,-4.3225,-4.321,-4.3161,-4.3726,-4.4142,-4.3895,-4.4023,-4.3929,-4.3334,-4.2834,-4.2765,-4.2955,-4.2185,-4.1806,-4.2791,-4.2223,-4.1768,-3.916,-3.6151,-3.3638,-3.3719,-3.5415,-3.4681,-3.6097,-3.8923,-3.891,-3.9393,-4.0179,-4.0198,-3.9702,-3.8733,-3.7343,0.0,0.0,0.0,-4.0004,-3.883,-3.9316,-3.8926,-3.7874,-3.7803,-3.8112,-3.8634,-3.8337,-3.8543,-3.918,-3.9024,-3.8591,-3.774,0.0,0.0,-3.7928,-3.845,-3.9152,-3.9984,-4.0526,-4.0803,-4.0802,-4.0804,-4.0833,-4.0883,-4.0888,-4.0888,-4.0888,-4.0888,-4.0678,-4.0217,-3.892,-3.7359,0.0,0.0,0.0,0.0,0.0,0.0,0.0,0.0,0.0,0.0,0.0,-2.5759,-2.6638,0.0,0.0,0.0,-3.1814,-3.2619,-3.5324,-3.668,0.0,0.0,0.0,0.0,0.0,0.0,0.0,-3.7659,-3.9485,-4.0942,-4.1737,-4.2202,-4.2529,-4.266,-4.3758,-4.4404,-4.4064,0.0,-4.4658,-4.5134,-4.5195,-4.5292,-4.5672,-4.5943,-4.5997,-4.5707,-4.5404,-4.5219,-4.5233,-4.5602,-4.588,-4.588,-4.5899,-4.5899,-4.588,-4.5483,-4.4914,-4.4516,-4.391,-4.3701,-4.4345,-4.3853,-4.372,-4.3518,-4.3092,-3.8392,-3.7698,-3.958,-3.8929,-3.9934,-4.2072,-4.2091,-4.2516,-4.3192,-4.3265,-4.2825,-4.1944,-4.1122,0.0,-4.2133,-4.2949,-4.2884,-4.22,-4.2075,-4.1147,-3.9609,-3.9466,-3.9427,-3.9474,-3.8743,-3.9168,-4.0539,-3.9161,-3.9218,-4.0732,-3.9997,-3.9591,-3.9597,-3.9617,-4.0004,-4.0777,-4.0797,-4.0797,-4.0797,-4.0798,-4.0833,-4.0903,-4.0888,-4.0888,-4.0888,-4.0897,-4.0941,-4.0968,-4.0248,-3.9444,-3.857,0.0,0.0,0.0,0.0,0.0,0.0,0.0,0.0,0.0,0.0,0.0,0.0,0.0,0.0,0.0,-3.7257,0.0,-4.047,-4.0096,0.0,0.0,0.0,-3.8195,-3.7484,-3.882,-4.0136,-4.0995,0.0,0.0,-4.3399,-4.4251,-4.4508,-4.3696,-4.503,-4.5823,-4.5088,-4.5668,-4.6187,-4.6224,-4.6199,-4.6106,-4.6039,-4.6515,-4.7031,-4.7361,-4.7542,-4.7277,-4.7226,-4.7264,-4.7359,-4.7283,-4.7378,-4.734,-4.7378,-4.7245,-4.6695,-4.4535,-4.4573,-4.4781,-4.4383,-4.4592,-4.499,-4.52,-4.5033,-4.3247,-4.2428,-4.2344,-4.217,-4.2441,-4.2982,-4.2975,-4.3098,-4.3272,-4.3298,-4.3136,-4.2905,-4.3277,-4.357,-4.3852,-4.47,-4.465,-4.3882,-4.3207,-4.2336,-4.1296,-4.0607,-4.0299,-4.0314,-4.0109,-4.0226,-4.0602,-4.0223,-4.0249,-4.0622,-4.0422,-4.0398,-4.0481,-4.0436,-4.0533,-4.0797,-4.0797,-4.0803,-4.0808,-4.0846,-4.0902,-4.0893,-4.0898,-4.0888,-4.0888,-4.0957,-4.0993,-4.0994,-4.0855,-4.0369,-3.9511,-3.7514,0.0,0.0,0.0,0.0,0.0,0.0,0.0,0.0,0.0,-3.2192,-3.301,0.0,-3.8363,0.0,-3.9698,-3.9494,-3.7288,-3.9179,0.0,0.0,-3.9849,-4.0149,-4.0029,-4.0906,-4.1823,-4.2698,-4.3534,-4.4098,-4.4292,-4.5116,-4.5592,-4.5342,-4.5683,-4.6102,-4.6529,-4.6796,-4.7178,-4.7663,-4.7759,-4.7758,-4.7521,-4.7491,-4.7525,-4.7472,-4.7454,-4.7397,-4.7397,-4.7397,-4.7397,-4.7397,-4.7397,-4.7397,-4.7453,-4.7397,-4.7264,-4.662,-4.6203,-4.6032,-4.6392,-4.6184,-4.6051,-4.5807,-4.5768,-4.5316,-4.4852,-4.4349,-4.3614,-4.3518,-4.3885,-4.3885,-4.3885,-4.3878,-4.3845,-4.4018,-4.4382,-4.4808,-4.4994,-4.5048,-4.5519,-4.5321,-4.4537,-4.4028,-4.3118,-4.195,-4.1412,-4.0973,-4.0607,-4.0588,-4.0595,-4.0586,-4.0581,-4.0588,-4.0588,-4.0593,-4.0633,-4.0707,-4.0687,-4.0694,-4.0752,-4.0765,-4.0809,-4.0794,-4.0826,-4.0872,-4.0902,-4.0893,-4.0931,-4.0965,-4.0991,-4.1019,-4.1052,-4.1083,-4.0879,-4.0386,-3.9122,-3.7817,0.0,0.0,0.0,0.0,0.0,0.0,0.0,0.0,0.0,0.0,0.0,-4.0367,-4.0361,-4.0715,-4.0155,-3.8259,-4.0116,-4.1246,-4.0811,-4.1806,-4.2513,-4.2587,-4.3291,-4.3981,-4.4465,-4.4898,-4.5325,-4.566,-4.6158,-4.6642,-4.6952,-4.7036,-4.71,-4.7247,-4.7583,-4.8029,-4.8425,-4.8438,-4.8443,-4.8472,-4.8326,-4.8282,-4.8478,-4.8496,-4.8528,-4.8515,-4.8509,-4.8528,-4.8528,-4.8528,-4.8509,-4.8515,-4.8515,-4.8509,-4.8471,-4.8155,-4.7757,-4.7453,-4.7055,-4.6885,-4.6058,-4.5981,-4.5962,-4.5904,-4.5691,-4.4233,-4.4059,-4.4748,-4.4768,-4.4748,-4.4748,-4.4694,-4.5085,-4.5807,-4.575,-4.575,-4.5807,-4.5807,-4.5423,-4.4768,-4.4592,-4.3721,-4.2316,-4.2039,-4.1501,-4.0781,-4.0665,-4.0588,-4.06,-4.0598,-4.06,-4.0593,-4.0583,-4.0583,-4.0593,-4.06,-4.0614,-4.0713,-4.0771,-4.0803,-4.0814,-4.0809,-4.0837,-4.0877,-4.0893,-4.0921,-4.0987,-4.0995,-4.1034,-4.1087,-4.1108,-4.1151,-4.1247,-4.0432,-3.9679,0.0,-3.6809,0.0,0.0,0.0,0.0,0.0,0.0,0.0,0.0,-3.9279,-4.1085,-4.1013,-4.0957,-4.0958,-4.1063,-4.1692,-4.2156,-4.2377,-4.3806,-4.4794,-4.4874,-4.5675,-4.6241,-4.6241,-4.6209,-4.6513,-4.7129,-4.727,-4.7579,-4.8188,-4.8456,-4.8374,-4.7878,-4.8354,-4.887,-4.886,-4.8748,-4.8902,-4.9143,-4.9072,-4.9156,-4.9749,-4.9779,-4.9893,-4.9798,-4.9817,-4.9855,-4.9836,-4.9779,-4.9817,-4.9893,-4.9855,-4.9855,-4.9779,-4.9722,-4.9286,-4.8193,-4.7832,-4.7719,-4.7502,-4.6844,-4.6844,-4.6445,-4.5787,-4.5478,-4.5413,-4.5575,-4.5575,-4.5575,-4.5568,-4.5551,-4.5633,-4.5807,-4.5781,-4.5781,-4.5807,-4.5798,-4.5722,-4.5548,-4.4903,-4.4399,-4.3953,-4.2618,-4.1868,-4.1628,-4.0935,-4.0573,-4.0523,-4.0519,-4.0539,-4.0539,-4.0531,-4.0531,-4.0519,0.0,0.0,0.0,-4.0707,-4.0746,-4.0803,-4.0798,-4.0812,-4.0818,-4.0864,0.0,-4.0991,-4.099,-4.102,-4.109,-4.1113,0.0,0.0,0.0,0.0,0.0,0.0,0.0,0.0,0.0,0.0,0.0,-3.8656,-3.9045,-3.9104,-4.0309,-4.1088,-4.1085,-4.1011,-4.1244,-4.1898,-4.2042,-4.2396,-4.3139,-4.4664,-4.5677,-4.5797,-4.7072,-4.8005,-4.8005,-4.7952,-4.7961,-4.8109,-4.814,-4.8247,-4.854,-4.9042,-4.9391,-4.933,-4.9514,-4.9858,-5.0308,-5.0119,-5.0015,-5.0136,-4.9884,-4.9739,-4.9973,-4.9939,-4.9893,-4.9893,-4.9893,-4.9893,-4.9893,-4.9893,-4.9893,-4.9893,-4.9893,-4.995,-4.9912,-4.9931,-4.9798,-4.9495,-4.9438,-4.9438,-4.814,0.0,-4.727,-4.6825,0.0,-4.5981,-4.5807,-4.5807,-4.5807,-4.5807,-4.5807,-4.5805,-4.5817,-4.5817,-4.5817,-4.5817,-4.5817,-4.5812,-4.5807,-4.578,-4.5374,-4.4961,-4.4496,-4.3225,-4.2333,-4.187,-4.1,-4.0554,-4.0496,-4.0496,-4.0496,-4.0496,-4.0496,-4.0496,-4.0496,-4.0496,-4.0542,-4.0654,-4.0674,-4.0739,-4.0797,-4.08,-4.0809,-4.0807,0.0,0.0,0.0,0.0,0.0,0.0,0.0,0.0,0.0,0.0,0.0,-4.2935,-4.2575,-4.1965,-4.1107,-4.1029,-4.0679,-3.9864,-4.0172,-4.0425,-4.0429,-4.0838,-4.1107,-4.1107,-4.1408,-4.198,-4.2751,-4.3544,-4.4378,-4.5297,-4.648,-4.7248,-4.7388,-4.8036,-4.8527,-4.8496,-4.8457,-4.8578,-4.8999,-4.9049,-4.9238,-4.9623,-5.0037,-5.0335,-5.0396,-5.0461,-5.061,-5.0813,-5.0635,-5.0388,-5.0259,-5.0114,-4.9973,-4.9965,-4.9906,-4.9893,-4.9893,-4.9893,-4.9893,-4.9893,-4.9893,-4.9893,-4.9931,-5.022,-5.0542,-5.058,-5.0865,-5.1111,-5.1111,-5.0827,-5.0675,-4.8759,-4.8566,-4.7869,-4.7366,-4.7038,-4.6329,-4.5942,-4.5807,0.0,0.0,0.0,-4.5807,-4.5807,-4.5807,-4.5807,-4.5807,-4.5807,-4.5807,-4.5807,-4.5807,-4.5807,-4.5452,-4.4775,-4.3877,-4.2992,-4.2119,-4.1234,-4.0735,-4.0516,-4.0496,-4.0496,-4.0496,-4.0496,-4.0496,-4.0496,-4.0496,-4.0534,-4.0607,-4.0654,-4.0713,-4.081,-4.0802,-4.0792,-4.0807,-4.0872,-4.0932,-4.0987,-4.0984,-4.1025,-4.1087,-4.1244,-4.1659,-4.2348,-4.268,-4.3148,-4.3764,-4.4127,-4.3776,-4.2646,-4.2666,-4.2276,-4.1188,-4.1107,-4.1107,-4.1107,-4.1107,-4.1169,-4.1302,-4.1921,-4.2735,-4.3836,-4.5171,-4.6445,-4.749,-4.8356,-4.8856,-4.8929,-4.9011,-4.9107,-4.8961,-4.9026,-4.916,-4.9811,-4.9919,-5.0132,-5.0735,-5.087,-5.099,-5.0997,-5.0933,-5.0867,-5.0778,-5.0538,-5.0344,-5.0163,-5.0057,-4.9973,-4.9933,-5.0058,-5.0139,-5.0158,-5.0253,-5.0348,-5.0499,-5.0348,-5.0391,-5.041,-5.0959,-5.1381,-5.1433,-5.1912,-5.2456,-5.2551,-5.2101,-5.1831,-5.0132,-4.9513,-4.9397,-4.8488,-4.7096,-4.696,-4.6503,-4.5826,-4.5807,-4.5807,-4.5807,-4.5807,-4.5807,-4.5807,-4.5807,-4.5807,-4.5807,-4.5807,-4.5807,-4.5807,-4.5807,-4.5749,-4.5587,-4.4787,-4.3921,-4.3006,-4.2131,-4.1304,-4.0581,-4.0516,-4.0496,-4.0496,-4.0496,-4.0496,-4.0496,-4.0496,-4.0534,-4.0588,-4.0614,-4.0668,-4.0797,-4.0802,-4.0812,-4.0807,-4.0872,-4.0932,-4.0987,-4.0988,-4.1033,-4.1126,-4.1774,-4.2204,-4.2414,-4.3741,-4.4611,-4.479,-4.6125,-4.5923,-4.364,-4.4111,-4.3526,-4.138,-4.1107,-4.1107,-4.1107,-4.1107,-4.14,-4.2042,-4.2309,-4.3268,-4.5382,-4.5996,-4.6853,-4.8287,-4.926,-4.981,-4.9814,-5.0314,-5.0639,-5.0602,-5.0634,-5.0523,-5.0631,-5.0681,-5.0724,-5.0923,-5.0961,-5.0952,-5.0949,-5.0797,-5.0677,-5.0576,-5.0342,-5.0163,-5.0203,-5.0063,-5.0138,-4.9973,-5.0621,-5.1016,-5.1016,-5.1471,-5.1831,-5.1983,-5.1869,-5.1907,-5.1964,-5.212,-5.2234,-5.2234,-5.2475,-5.2741,-5.3366,-5.3385,-5.3124,-5.0685,-5.0318,-4.9881,-4.9243,-4.843,-4.7502,-4.6619,-4.5826,-4.5807,-4.5807,-4.5807,-4.5807,-4.5807,-4.5807,-4.5807,-4.5807,-4.5807,-4.5807,-4.5807,-4.5807,-4.5807,-4.5807,-4.5729,-4.4968,-4.4373,-4.3836,-4.3026,-4.2113,-4.1285,-4.12,-4.0977,-4.0535,-4.0496,-4.0496,-4.0496,-4.0496,-4.0534,-4.0588,-4.0588,-4.0668,-4.079,-4.0809,-4.08,-4.0807,-4.0837,-4.0873,-4.0945,-4.0935,-4.097,-4.1048,-4.1397,-4.205,-4.3066,-4.4242,-4.5313,-4.6264,-4.7505,-4.7267,-4.5144,-4.4052,-4.2806,-4.1247,-4.1107,-4.1302,-4.1731,-4.177,-4.1906,-4.2335,-4.3526,-4.5078,-4.6719,-4.7669,-4.8712,-4.994,-5.0464,-5.0698,-5.069,-5.0899,-5.1139,-5.1105,-5.103,-5.101,-5.101,-5.101,-5.1017,-5.103,-5.1024,-5.1024,-5.1063,-5.1211,-5.1125,-5.0721,-5.0792,-5.0925,-5.085,-5.1146,-5.131,-5.1353,-5.1608,-5.1812,-5.1855,-5.2229,-5.2381,-5.24,-5.2419,-5.24,-5.2438,-5.2802,-5.3044,-5.3158,-5.3518,-5.3935,-5.4276,-5.4352,-5.42,-5.0898,-5.084,-5.0229,-4.9765,-4.9281,-4.7753,-4.6619,-4.5845,-4.5807,-4.5807,-4.5807,-4.5807,-4.5807,-4.5807,-4.5807,-4.5807,-4.5807,-4.5807,-4.5807,-4.5807,-4.5807,-4.5807,-4.5749,-4.5142,-4.4759,-4.4461,-4.3798,-4.3019,-4.217,-4.1904,-4.1354,-4.0593,-4.0496,-4.0496,-4.0496,-4.0496,-4.0534,-4.0588,-4.0588,-4.0648,-4.079,-4.0797,-4.0808,-4.0801,-4.0807,-4.0833,-4.0903,-4.0888,-4.0922,-4.0992,-4.119,-4.1933,-4.3306,-4.454,-4.5803,-4.7118,-4.8382,-4.8222,-4.6293,-4.3975,-4.2159,-4.1188,-4.1107,-4.1438,-4.2198,-4.2491,-4.2783,-4.3332,-4.4988,-4.6628,-4.7949,-4.9157,-5.0346,-5.1164,-5.13,-5.1226,-5.1215,-5.1215,-5.1176,-5.1134,-5.113,-5.108,-5.108,-5.108,-5.108,-5.1074,-5.108,-5.1144,-5.1392,-5.1792,-5.1711,-5.1501,-5.1622,-5.1798,-5.172,-5.2066,-5.2401,-5.2539,-5.265,-5.2717,-5.2779,-5.2874,-5.3025,-5.3139,-5.3087,-5.313,-5.3077,-5.3499,-5.3916,-5.401,-5.4352,-5.4806,-5.4806,-5.4825,-5.4863,-5.0898,-5.0898,-5.0782,-4.99,-4.8488,-4.7521,-4.6631,-4.5865,-4.5807,-4.5807,-4.5807,-4.5807,-4.5807,-4.5807,-4.5807,-4.5807,-4.5807,-4.5807,-4.5807,-4.5807,-4.5807,-4.5807,-4.5807,-4.571,-4.5281,-4.4596,-4.4415,-4.3886,-4.297,-4.2173,-4.1354,-4.0593,-4.0496,-4.0516,-4.0516,-4.0535,-4.0554,-4.0607,-4.0588,-4.0668,-4.079,-4.0797,-4.0808,-4.0807,-4.0807,-4.0833,-4.0883,-4.0888,-4.0932,-4.1058,-4.1726,-4.2243,-4.2691,-4.4738,-4.6157,-4.6485,-4.858,-4.8826,-4.6391,-4.4497,-4.2802,-4.1322,-4.1107,-4.1458,-4.2296,-4.3036,-4.4166,-4.5475,-4.6059,-4.7306,-4.941,-4.9956,-5.0424,-5.1183,-5.13,-5.1296,-5.1284,-5.1239,-5.1206,-5.1201,-5.1139,-5.1086,-5.1097,-5.1097,-5.1111,-5.1122,-5.1225,-5.1497,-5.2055,-5.2477,-5.2737,-5.2799,-5.2789,-5.2596,-5.2551,-5.2538,-5.281,-5.2791,-5.3272,-5.3639,-5.3835,-5.4253,-5.4813,-5.4301,-5.4572,-5.4491,-5.4553,-5.4809,-5.4712,-5.4651,-5.4783,-5.4901,-5.4901,-5.4901,-5.4901,-5.0898,-5.0898,-5.0898,-4.9931,-4.845,-4.8005,-4.7076,-4.5845,-4.5807,-4.5807,-4.5807,-4.5807,-4.5807,-4.5807,-4.5807,-4.5807,-4.5807,-4.5807,-4.5807,-4.5807,-4.5807,-4.5807,-4.5807,-4.5807,-4.559,-4.5225,-4.5206,-4.4715,-4.3717,-4.245,-4.1596,-4.1239,-4.0785,-4.0739,-4.1219,-4.1301,-4.1578,-4.2092,-4.1651,-4.146,-4.1448,-4.1041,-4.08,-4.0807,-4.0842,-4.0868,-4.0903,-4.0888,-4.0932,-4.101,-4.1351,-4.2243,-4.3783,-4.5341,-4.6895,-4.8311,-4.9395,-4.8884,-4.6352,-4.5046,-4.3429,-4.1266,-4.1107,-4.1633,-4.2958,-4.3877,-4.5299,-4.7287,-4.7735,-4.8417,-4.982,-5.0443,-5.093,-5.1242,-5.13,-5.1288,-5.1243,-5.1201,-5.1211,-5.1211,-5.1171,-5.1171,-5.1196,-5.1205,-5.1205,-5.1303,-5.159,-5.2135,-5.2524,-5.3291,-5.3967,-5.4192,-5.438,-5.4199,-5.369,-5.388,-5.4051,-5.4152,-5.4373,-5.4613,-5.4651,-5.4803,-5.5075,-5.5088,-5.508,-5.5071,-5.4995,-5.5014,-5.4956,-5.496,-5.4916,-5.4901,-5.4901,-5.4901,-5.4901,-5.0898,-5.0898,-5.0898,-5.0094,-4.8759,-4.8488,-4.754,-4.6206,-4.5904,-4.5807,-4.5807,-4.5807,-4.5807,-4.5807,-4.5807,-4.5807,-4.5807,-4.5807,-4.5807,-4.5807,-4.5807,-4.5807,-4.5807,-4.5807,-4.5764,-4.5696,-4.5669,-4.5216,-4.4267,-4.3162,-4.2393,-4.2085,-4.1524,-4.1532,-4.2109,-4.2225,-4.2579,-4.306,-4.2606,-4.2247,-4.1951,-4.1427,-4.1056,-4.0846,-4.0872,-4.0898,-4.0888,-4.0888,-4.092,-4.096,-4.0976,-4.2177,-4.4684,-4.5728,-4.744,-4.9979,-5.0365,-4.9352,-4.7057,-4.6313,-4.4874,-4.2533,-4.2143,-4.263,-4.3799,-4.4754,-4.6293,-4.8378,-4.8982,-4.9449,-5.0287,-5.093,-5.1281,-5.13,-5.13,-5.1284,-5.1239,-5.123,-5.1234,-5.123,-5.121,-5.1243,-5.1269,-5.1316,-5.1351,-5.1721,-5.2212,-5.2918,-5.3299,-5.4275,-5.4994,-5.5229,-5.5664,-5.5488,-5.4695,-5.4797,-5.5256,-5.5229,-5.5151,-5.5138,-5.5168,-5.5181,-5.5181,-5.5227,-5.5168,-5.5121,-5.5121,-5.5066,-5.5028,-5.5028,-5.4985,-5.496,-5.4946,-5.4931,-5.4916,-5.0898,-5.0898,-5.0898,-5.0403,-4.9591,-4.8798,-4.7889,-4.6902,-4.6194,-4.5826,-4.5826,-4.5807,-4.5807,-4.5807,-4.5807,-4.5807,-4.5807,-4.5807,-4.58,-4.58,-4.58,-4.5807,-4.5807,-4.58,-4.5764,-4.5708,-4.568,-4.5236,-4.4374,-4.4201,-4.3797,-4.3066,-4.2837,-4.2919,-4.3042,-4.3061,-4.3176,-4.3347,-4.3238,-4.2795,-4.2131,-4.2032,-4.1596,-4.0909,-4.0872,-4.0898,-4.0903,-4.0888,-4.0893,-4.0897,-4.0963,-4.2158,-4.4568,-4.5795,-4.7906,-5.0731,-5.1203,-5.0463,-4.8884,-4.8436,-4.7326,-4.5127,-4.4446,-4.4718,-4.4952,-4.5673,-4.694,-4.8651,-4.9547,-5.0307,-5.0989,-5.1203,-5.13,-5.13,-5.13,-5.1296,-5.1296,-5.1288,-5.1296,-5.1292,-5.1292,-5.1292,-5.13,-5.13,-5.169,-5.2216,-5.2567,-5.3171,-5.4511,-5.5087,-5.5478,-5.5894,-5.6104,-5.6005,-5.5604,-5.5442,-5.5458,-5.5427,-5.5371,-5.5377,-5.539,-5.539,-5.5358,-5.5345,-5.5267,-5.5203,-5.5189,-5.5162,-5.5107,-5.508,-5.5066,-5.5038,-5.5,-5.5,-5.4971,-5.0898,-5.0898,-5.0898,-5.0434,-4.9707,-4.9359,-4.8411,-4.7096,-4.6767,-4.631,-4.5865,-4.5807,-4.5807,-4.5807,-4.5807,-4.5807,-4.5807,-4.5807,-4.5812,-4.581,-4.581,-4.5776,-4.5734,-4.5734,-4.5743,-4.5695,-4.5687,-4.55,-4.5103,-4.4639,-4.4232,-4.3769,-4.2846,-4.2849,-4.3705,-4.3465,-4.3706,-4.4687,-4.438,-4.3692,-4.2853,-4.2354,-4.1704,-4.093,-4.0878,-4.0898,-4.0888,-4.0888,-4.0888,-4.0888,-4.0953,-4.2427,-4.5447,-4.806,-4.9948,-5.1118,-5.1303,-5.056,-4.9099,-4.8806,-4.793,-4.6004,-4.5205,-4.5478,-4.6352,-4.6897,-4.7735,-4.9255,-5.0326,-5.0989,-5.1183,-5.13,-5.13,-5.13,-5.13,-5.13,-5.13,-5.13,-5.13,-5.13,-5.13,-5.13,-5.13,-5.13,-5.1651,-5.245,-5.3054,-5.3849,-5.4901,-5.5626,-5.6022,-5.6286,-5.6388,-5.63,-5.6017,-5.5721,-5.5583,-5.5531,-5.5488,-5.5434,-5.5416,-5.5403,-5.5371,-5.5371,-5.5326,-5.5326,-5.528,-5.5235,-5.5181,-5.514,-5.5121,-5.5121,-5.5066,-5.5038,-5.4995,-5.0898,-5.0898,-5.0898,-5.0589,-5.0074,-4.9823,-4.8875,-4.754,-4.7231,-4.6619,-4.5923,-4.5807,-4.58,-4.5805,-4.5805,-4.5798,-4.5771,-4.5778,-4.5783,-4.5773,-4.5765,-4.5731,-4.5708,-4.5688,-4.5684,-4.5682,-4.5665,-4.5648,-4.5582,-4.5087,-4.4834,-4.4715,-4.3662,-4.3716,-4.465,-4.432,-4.4689,-4.552,-4.5251,-4.4466,-4.3414,-4.2786,-4.1981,-4.1077,-4.0893,-4.0888,-4.0888,-4.0888,-4.1199,-4.1636,-4.1781,-4.3353,-4.6768,-4.97,-5.1307,-5.1311,-5.1294,-5.0833,-4.9839,-4.9605,-4.9001,-4.7599,-4.6936,-4.6979,-4.7563,-4.7969,-4.8748,-4.9625,-5.0677,-5.13,-5.13,-5.13,-5.13,-5.13,-5.13,-5.13,-5.13,-5.13,-5.13,-5.13,-5.13,-5.13,-5.1261,-5.1028,-5.13,-5.206,-5.2723,-5.3439,-5.4569,-5.5236,-5.5981,-5.6312,-5.5855,-5.5906,-5.5874,-5.5738,-5.5652,-5.5605,-5.5558,-5.5488,-5.5447,-5.5422,-5.5403,-5.5403,-5.539,-5.539,-5.5358,-5.5313,-5.5254,-5.5214,-5.5214,-5.5227,-5.5154,-5.5085,-5.5057,-5.0898,-5.0898,-5.0898,-5.0859,-5.0705,-5.0094,-4.9243,-4.8275,-4.7502,-4.6709,-4.5884,-4.5807,-4.5805,-4.5815,-4.5815,-4.5773,-4.5743,-4.5765,-4.5758,-4.5708,-4.5688,-4.57,-4.5692,-4.5692,-4.5695,-4.5673,-4.5631,-4.564,-4.5654,-4.5605,-4.5571,-4.565,-4.5437,-4.5305,-4.5749,-4.5515,-4.5606,-4.5768,-4.571,-4.4937,-4.3531,-4.327,-4.2505,-4.1121,-4.0951,-4.1043,-4.1043,-4.1063,-4.1864,-4.3224,-4.3481,-4.5157,-4.8148,-5.0307,-5.1301,-5.1299,-5.1297,-5.1285,-5.1222,-5.1106,-5.0638,-4.9859,-4.98,-4.9001,-4.8378,-4.904,-4.9605,-4.9547,-5.0424,-5.13,-5.13,-5.13,-5.13,-5.13,-5.13,-5.13,-5.13,-5.13,-5.13,-5.13,-5.13,-5.13,-5.1125,-5.0638,-5.0579,-5.1242,-5.1476,-5.208,-5.3517,-5.4028,-5.471,-5.5548,-5.5333,-5.4946,-5.5346,-5.5714,-5.5701,-5.5678,-5.5624,-5.5569,-5.5527,-5.548,-5.5409,-5.539,-5.539,-5.539,-5.539,-5.5358,-5.5358,-5.5332,-5.5345,-5.5332,-5.5273,-5.5187,-5.5099,-5.0898,-5.0898,-5.0898,-5.0898,-5.0879,-5.0627,-4.9745,-4.843,-4.8082,-4.7173,-4.5993,-4.5807,-4.5805,-4.5815,-4.5807,-4.577,-4.5726,-4.5714,-4.5714,-4.5698,-4.5679,-4.5662,-4.5646,-4.5618,-4.5629,-4.5631,-4.5622,-4.564,-4.5682,-4.5687,-4.5708,-4.5669,-4.5262,-4.5295,-4.5786,-4.5297,-4.5214,-4.5802,-4.5886,-4.5054,-4.3527,-4.3383,-4.259,-4.1184,-4.1471,-4.2053,-4.2651,-4.2694,-4.3238,-4.4422,-4.4971,-4.6368,-4.8571,-5.0368,-5.1295,-5.1363,-5.133,-5.13,-5.13,-5.13,-5.1183,-5.0833,-5.0365,-5.017,-5.0053,-4.9976,-5.019,-5.0365,-5.1028,-5.13,-5.13,-5.13,-5.13,-5.13,-5.13,-5.13,-5.13,-5.13,-5.13,-5.13,-5.13,-5.13,-5.1145,-5.0541,-5.0346,-5.093,-5.0794,-5.1125,-5.2489,-5.2976,-5.3381,-5.434,-5.3989,-5.4126,-5.4825,-5.5259,-5.5325,-5.5507,-5.5614,-5.5672,-5.5618,-5.5543,-5.5446,-5.539,-5.539,-5.539,-5.539,-5.539,-5.539,-5.539,-5.539,-5.5358,-5.5345,-5.5254,-5.5168,-5.0898,-5.0898,-5.0898,-5.0898,-5.0898,-5.0898,-5.0124,-4.8914,-4.8527,-4.7599,-4.6419,-4.5935,-4.5778,-4.5773,-4.5765,-4.5719,-4.5657,-4.5676,-4.5676,-4.5676,-4.5676,-4.5659,-4.5594,-4.5594,-4.5594,-4.5594,-4.5594,-4.5629,-4.5687,-4.5692,-4.5893,-4.6112,-4.5766,-4.58,-4.6271,-4.6181,-4.626,-4.6396,-4.6397,-4.5725,-4.4602,-4.4045,-4.3072,-4.1816,-4.252,-4.3394,-4.3996,-4.4871,-4.5677,-4.6355,-4.7396,-4.8629,-4.9769,-5.0781,-5.1355,-5.137,-5.134,-5.1307,-5.1304,-5.13,-5.13,-5.1183,-5.0794,-5.0521,-5.0774,-5.0424,-5.0716,-5.0755,-5.1106,-5.13,-5.13,-5.13,-5.13,-5.13,-5.13,-5.13,-5.13,-5.13,-5.13,-5.13,-5.13,-5.13,-5.1125,-5.0579,-5.0092,-5.0307,-5.019,-5.019,-5.1417,-5.1904,-5.2625,-5.3112,-5.3034,-5.3541,-5.4457,-5.4784,-5.492,-5.5241,-5.5558,-5.5692,-5.5769,-5.5615,-5.5504,-5.5403,-5.539,-5.539,-5.539,-5.539,-5.539,-5.539,-5.539,-5.539,-5.5358,-5.5261,-5.5176,-5.0956,-5.0898,-5.0898,-5.0898,-5.0898,-5.0898,-5.0395,-4.9591,-4.8778,-4.7889,-4.6999,-4.6136,-4.5764,-4.5704,-4.5696,-4.5687,-4.5622,-4.5614,-4.5603,-4.5603,-4.5603,-4.5594,-4.5594,-4.5594,-4.5594,-4.5594,-4.5594,-4.5618,-4.5692,-4.5854,-4.621,-4.6895,-4.7018,-4.7161,-4.7284,-4.8028,-4.7887,-4.7365,-4.7275,-4.6835,-4.6016,-4.5318,-4.4184,-4.2714,-4.4074,-4.5025,-4.5516,-4.7354,-4.8671,-4.9039,-5.0196,-5.0929,-5.1294,-5.1393,-5.1386,-5.1399,-5.1338,-5.1316,-5.1296,-5.13,-5.13,-5.1281,-5.1222,-5.0989,-5.0482,-5.0833,-5.0911,-5.0463,-5.0911,-5.13,-5.13,-5.13,-5.1261,-5.1203,-5.1222,-5.1281,-5.13,-5.13,-5.13,-5.13,-5.13,-5.13,-5.1261,-5.0541,-4.9781,-4.9255,-4.943,-4.9664,-5.0092,-5.0794,-5.1924,-5.2236,-5.2236,-5.2762,-5.3599,-5.3833,-5.4106,-5.5108,-5.5408,-5.552,-5.5713,-5.5595,-5.552,-5.5434,-5.539,-5.539,-5.539,-5.5403,-5.539,-5.539,-5.539,-5.539,-5.5358,-5.5294,-5.5248,-5.1454,-5.0917,-5.0898,-5.0898,-5.0898,-5.0898,-5.0453,-4.9629,-4.8798,-4.7966,-4.7057,-4.6174,-4.5803,-4.5708,-4.568,-4.566,-4.5612,-4.5594,-4.5594,-4.5594,-4.5594,-4.5594,-4.5594,-4.5594,-4.5594,-4.5594,-4.5594,-4.5618,-4.5758,-4.6306,-4.6789,-4.7115,-4.7773,-4.8077,-4.8222,-4.8442,-4.8425,-4.827,-4.823,-4.7821,-4.7107,-4.6757,-4.6102,-4.5258,-4.6074,-4.6929,-4.7658,-4.9532,-5.0638,-5.0709,-5.1076,-5.1386,-5.1388,-5.1395,-5.1387,-5.138,-5.134,-5.1302,-5.1296,-5.13,-5.13,-5.13,-5.13,-5.1222,-5.1028,-5.1145,-5.1183,-5.0989,-5.1203,-5.13,-5.13,-5.13,-5.1047,-5.0541,-5.095,-5.1281,-5.1242,-5.13,-5.13,-5.13,-5.13,-5.13,-5.1125,-5.0599,-4.9742,-4.9021,-4.869,-4.8612,-4.9235,-4.9625,-5.0677,-5.1398,-5.1671,-5.2099,-5.2543,-5.2797,-5.3478,-5.4784,-5.521,-5.5222,-5.5392,-5.5441,-5.5437,-5.544,-5.5396,-5.539,-5.5403,-5.5403,-5.5403,-5.539,-5.539,-5.539,-5.539,-5.5358,-5.5339,-5.1322,-5.0893,-5.0909,-5.0898,-5.0898,-5.0898,-5.0627,-5.0105,-4.932,-4.8469,-4.7599,-4.6728,-4.6112,-4.5708,-4.5688,-4.566,-4.5603,-4.5594,-4.5594,-4.5594,-4.5594,-4.5594,-4.5594,-4.5594,-4.5594,-4.5594,-4.5614,-4.5646,-4.5827,-4.6576,-4.7183,-4.7758,-4.8527,-4.8936,-4.9049,-4.9419,-4.9388,-4.9174,-4.9114,-4.8854,-4.8425,-4.8017,-4.7356,-4.6987,-4.7706,-4.8805,-4.9711,-5.0757,-5.1312,-5.134,-5.1374,-5.1394,-5.1396,-5.1389,-5.1385,-5.14,-5.1367,-5.1321,-5.1319,-5.13,-5.13,-5.13,-5.13,-5.13,-5.1281,-5.13,-5.13,-5.1281,-5.13,-5.13,-5.13,-5.13,-5.1067,-5.0794,-5.1008,-5.1145,-5.0813,-5.1086,-5.1261,-5.13,-5.13,-5.13,-5.13,-5.0813,-4.9995,-4.9196,-4.8884,-4.8806,-4.8904,-4.9099,-4.9625,-5.0716,-5.13,-5.169,-5.206,-5.2333,-5.2781,-5.4063,-5.515,-5.5137,-5.5371,-5.5485,-5.5477,-5.5516,-5.5453,-5.5409,-5.544,-5.544,-5.5403,-5.539,-5.539,-5.539,-5.539,-5.539,-5.539,-5.0996,-5.0908,-5.0909,-5.0898,-5.0898,-5.0898,-5.0859,-5.0724,-4.9958,-4.9146,-4.8256,-4.7463,-4.651,-4.5708,-4.5692,-4.5651,-4.5594,-4.5594,-4.5594,-4.5594,-4.5594,-4.5594,-4.5594,-4.5594,-4.5594,-4.5633,-4.5671,-4.5847,-4.6232,-4.6885,-4.7743,-4.8551,-4.9397,-4.9814,-4.9967,-5.0583,-5.0597,-5.0079,-5.0006,-4.9998,-4.9804,-4.9318,-4.8716,-4.8386,-4.916,-5.0173,-5.0802,-5.1261,-5.1331,-5.1308,-5.135,-5.1392,-5.1394,-5.1394,-5.1397,-5.1386,-5.1397,-5.1377,-5.1333,-5.1312,-5.13,-5.13,-5.13,-5.13,-5.13,-5.13,-5.13,-5.13,-5.13,-5.1222,-5.1028,-5.1106,-5.0891,-5.0696,-5.0891,-5.0735,-5.0385,-5.0774,-5.13,-5.13,-5.13,-5.13,-5.1281,-5.1106,-5.056,-4.9079,-4.8904,-4.8923,-4.904,-4.9372,-5.0053,-5.1028,-5.13,-5.13,-5.1632,-5.1943,-5.2469,-5.3303,-5.4686,-5.5249,-5.5675,-5.5763,-5.5683,-5.5615,-5.5523,-5.5511,-5.5546,-5.5508,-5.5415,-5.539,-5.539,-5.539,-5.539,-5.539,-5.539,-5.1481,-5.0909,-5.0917,-5.0898,-5.0898,-5.0898,-5.0917,-5.084,-5.0074,-4.9281,-4.8345,-4.7492,-4.6584,-4.5688,-4.5687,-4.5665,-4.5594,-4.5594,-4.5594,-4.5594,-4.5594,-4.5594,-4.5594,-4.5594,-4.5594,-4.5738,-4.6303,-4.6604,-4.6973,-4.8036,-4.9119,-4.9409,-5.0082,-5.0666,-5.0808,-5.09,-5.1069,-5.0893,-5.0891,-5.0853,-5.0853,-5.0658,-5.0367,-5.0198,-5.0625,-5.0923,-5.1147,-5.1308,-5.1382,-5.1394,-5.1396,-5.1394,-5.1394,-5.1394,-5.1393,-5.1386,-5.1402,-5.1367,-5.133,-5.1307,-5.13,-5.13,-5.13,-5.13,-5.13,-5.13,-5.13,-5.13,-5.1281,-5.1028,-5.0502,-5.0307,-5.0151,-4.9937,-5.0112,-5.0365,-5.0209,-5.0774,-5.1242,-5.13,-5.13,-5.13,-5.1242,-5.0638,-4.9956,-4.906,-4.8845,-4.8943,-4.9255,-4.9586,-5.0268,-5.1086,-5.13,-5.132,-5.1534,-5.2002,-5.2742,-5.3385,-5.4589,-5.5496,-5.5896,-5.5965,-5.5825,-5.5699,-5.5573,-5.5599,-5.5637,-5.5504,-5.539,-5.539,-5.539,-5.539,-5.539,-5.539,-5.5371,-5.2429,-5.2073,-5.2089,-5.1892,-5.1544,-5.1486,-5.1293,-5.0879,-5.0473,-4.9552,-4.8481,-4.7851,-4.6924,-4.5738,-4.5679,-4.5657,-4.5622,-4.5594,-4.5594,-4.5594,-4.5594,-4.5594,-4.5594,-4.5594,-4.5614,-4.5738,-4.6465,-4.6901,-4.7444,-4.8643,-4.9552,-4.9765,-5.0534,-5.0908,-5.1074,-5.1095,-5.1134,-5.1152,-5.1202,-5.1202,-5.1202,-5.1202,-5.12,-5.1203,-5.1215,-5.1215,-5.1267,-5.1346,-5.1391,-5.1403,-5.1401,-5.1394,-5.1394,-5.1394,-5.1389,-5.1385,-5.1385,-5.137,-5.1321,-5.1297,-5.13,-5.13,-5.13,-5.13,-5.13,-5.13,-5.13,-5.13,-5.1222,-5.095,-5.017,-5.0502,-5.0131,-4.9742,-5.0092,-5.0579,-5.0696,-5.1028,-5.13,-5.13,-5.13,-5.1028,-5.0677,-5.019,-4.9644,-4.8884,-4.8183,-4.83,-4.9333,-4.9703,-5.017,-5.0774,-5.1145,-5.1359,-5.1534,-5.2119,-5.3132,-5.397,-5.5041,-5.5758,-5.626,-5.6128,-5.5941,-5.5836,-5.5739,-5.5645,-5.5637,-5.5499,-5.5416,-5.539,-5.539,-5.539,-5.539,-5.539,-5.5339,-5.3337,-5.3428,-5.3462,-5.2995,-5.2268,-5.2152,-5.166,-5.0975,-5.0898,-4.99,-4.8616,-4.8327,-4.7256,-4.5989,-4.5671,-4.5667,-4.5776,-4.5633,-4.5652,-4.5932,-4.5671,-4.5614,-4.5594,-4.5594,-4.5622,-4.5747,-4.6733,-4.718,-4.7722,-4.8863,-4.9946,-5.0055,-5.0603,-5.1,-5.1081,-5.1095,-5.1127,-5.1196,-5.1202,-5.1202,-5.1202,-5.1202,-5.1211,-5.1215,-5.1258,-5.128,-5.1312,-5.1366,-5.1383,-5.1403,-5.1384,-5.1392,-5.1394,-5.1396,-5.1384,-5.1402,-5.1386,-5.1378,-5.1336,-5.1313,-5.1296,-5.1304,-5.13,-5.13,-5.13,-5.13,-5.13,-5.13,-5.1222,-5.0852,-5.0053,-5.0385,-5.0424,-5.0092,-5.0521,-5.1086,-5.1281,-5.13,-5.13,-5.13,-5.1261,-5.1028,-5.0404,-4.9839,-4.9313,-4.8748,-4.8047,-4.7949,-4.9021,-4.98,-5.0268,-5.0735,-5.1145,-5.13,-5.1437,-5.169,-5.2762,-5.3989,-5.5119,-5.5758,-5.6281,-5.6175,-5.5965,-5.6017,-5.5952,-5.5789,-5.5645,-5.5558,-5.5465,-5.5422,-5.539,-5.539,-5.539,-5.539,-5.5326,-5.3374,-5.347,-5.3498,-5.2995,-5.2268,-5.219,-5.1699,-5.0995,-5.0898,-4.995,-4.8558,-4.8314,-4.7414,-4.6108,-4.5657,-4.5979,-4.6229,-4.5932,-4.5941,-4.6259,-4.5941,-4.5594,-4.5594,-4.5594,-4.5612,-4.6116,-4.7141,-4.7935,-4.84,-4.9734,-5.0465,-5.0712,-5.0894,-5.1027,-5.1062,-5.1095,-5.1133,-5.1196,-5.1202,-5.1202,-5.1202,-5.1208,-5.1217,-5.122,-5.1296,-5.1353,-5.1369,-5.1394,-5.1388,-5.1388,-5.1392,-5.1394,-5.1394,-5.1394,-5.1398,-5.1389,-5.1384,-5.1386,-5.1374,-5.133,-5.131,-5.1296,-5.13,-5.13,-5.13,-5.13,-5.13,-5.13,-5.1183,-5.0716,-4.9216,-4.9995,-4.982,-4.9527,-4.9898,-5.0638,-5.1145,-5.13,-5.13,-5.13,-5.1222,-5.0989,-5.0287,-4.9625,-4.9138,-4.8631,-4.8008,-4.83,-4.9352,-4.9937,-5.0307,-5.0794,-5.1261,-5.13,-5.1339,-5.1554,-5.2177,-5.3517,-5.4613,-5.5411,-5.5823,-5.5978,-5.599,-5.6071,-5.5926,-5.5665,-5.557,-5.5535,-5.549,-5.5403,-5.539,-5.539,-5.539,-5.539,-5.5313,-5.405,-5.4136,-5.3691,-5.2995,-5.2287,-5.219,-5.1699,-5.0975,-5.0879,-5.021,-4.9343,-4.8929,-4.802,-4.6714,-4.6298,-4.6352,-4.6095,-4.5864,-4.5864,-4.6067,-4.5806,-4.5594,-4.5594,-4.5594,-4.5637,-4.6141,-4.7397,-4.8318,-4.8485,-5.0051,-5.0836,-5.0963,-5.102,-5.1074,-5.1108,-5.1127,-5.1165,-5.1196,-5.1202,-5.1202,-5.1208,-5.1206,-5.1215,-5.1272,-5.1346,-5.138,-5.1399,-5.1386,-5.1394,-5.1394,-5.1394,-5.1394,-5.1394,-5.1394,-5.1394,-5.14,-5.1397,-5.1386,-5.1385,-5.1349,-5.1311,-5.131,-5.1303,-5.13,-5.13,-5.13,-5.13,-5.13,-5.1261,-5.0813,-4.9644,-5.019,-5.017,-4.98,-5.0151,-5.0774,-5.1164,-5.1281,-5.13,-5.13,-5.1261,-5.0911,-5.0131,-4.9527,-4.9001,-4.8475,-4.7949,-4.8631,-4.9664,-4.9995,-5.0307,-5.0989,-5.1437,-5.1398,-5.1456,-5.1632,-5.2099,-5.3323,-5.4258,-5.5041,-5.5682,-5.5966,-5.6107,-5.6201,-5.5935,-5.5547,-5.5527,-5.5527,-5.5446,-5.539,-5.539,-5.539,-5.539,-5.5358,-5.5313,-5.4687,-5.4716,-5.3865,-5.3003,-5.2268,-5.219,-5.1699,-5.1014,-5.0898,-5.0415,-4.9757,-4.9505,-4.8604,-4.7279,-4.6678,-4.6328,-4.5832,-4.5785,-4.5766,-4.595,-4.571,-4.5594,-4.5594,-4.565,-4.5761,-4.6348,-4.7491,-4.8306,-4.8655,-5.0078,-5.0825,-5.0998,-5.106,-5.1082,-5.1095,-5.1165,-5.1196,-5.1202,-5.1202,-5.1202,-5.1211,-5.1215,-5.1248,-5.1312,-5.1366,-5.1396,-5.139,-5.1392,-5.1394,-5.1394,-5.1394,-5.1394,-5.1394,-5.1394,-5.1394,-5.1398,-5.1395,-5.1402,-5.1387,-5.1363,-5.1322,-5.1296,-5.1304,-5.13,-5.13,-5.13,-5.13,-5.13,-5.1281,-5.093,-5.017,-5.0755,-5.0716,-5.0385,-5.0657,-5.13,-5.1281,-5.13,-5.13,-5.13,-5.13,-5.0872,-5.0151,-4.9761,-4.9313,-4.8845,-4.8358,-4.8865,-4.9742,-4.9917,-5.0326,-5.1145,-5.1593,-5.1554,-5.1632,-5.1807,-5.2469,-5.3541,-5.4262,-5.4885,-5.5569,-5.6149,-5.6175,-5.6107,-5.5779,-5.5453,-5.5468,-5.5485,-5.544,-5.539,-5.539,-5.539,-5.539,-5.5377,-5.5332,-5.4687,-5.4697,-5.3846,-5.2995,-5.2221,-5.2152,-5.1679,-5.0956,-5.0898,-5.0442,-4.9803,-4.961,-4.8736,-4.7291,-4.6217,-4.6262,-4.6362,-4.6029,-4.5973,-4.6264,-4.589,-4.5661,-4.5661,-4.5676,-4.6276,-4.6893,-4.7882,-4.8269,-4.8852,-5.0183,-5.091,-5.1005,-5.1067,-5.1101,-5.1121,-5.1171,-5.1202,-5.1202,-5.1202,-5.1206,-5.1215,-5.1243,-5.1308,-5.1366,-5.1394,-5.139,-5.1394,-5.1394,-5.1394,-5.1394,-5.1394,-5.1394,-5.1394,-5.1394,-5.1394,-5.1394,-5.14,-5.139,-5.1383,-5.1387,-5.1363,-5.1322,-5.1299,-5.131,-5.1307,-5.1312,-5.1308,-5.13,-5.13,-5.1008,-5.0482,-5.0852,-5.0716,-5.0677,-5.0833,-5.1203,-5.13,-5.13,-5.13,-5.13,-5.13,-5.0852,-5.0248,-4.9976,-4.9664,-4.9196,-4.8962,-4.9469,-4.9995,-5.0326,-5.0696,-5.1612,-5.1924,-5.1885,-5.1729,-5.1924,-5.2606,-5.3677,-5.4203,-5.476,-5.5586,-5.6154,-5.5982,-5.5834,-5.5539,-5.5415,-5.5488,-5.5488,-5.5422,-5.539,-5.539,-5.539,-5.539,-5.5377,-5.5319,-5.3174,-5.3213,-5.2368,-5.1815,-5.1486,-5.1467,-5.1273,-5.0956,-5.0898,-5.0705,-5.0415,-5.0341,-4.9397,-4.7751,-4.636,-4.5912,-4.6143,-4.5877,-4.5852,-4.6191,-4.5913,-4.5905,-4.6301,-4.6469,-4.6896,-4.7758,-4.8543,-4.91,-4.9537,-5.0171,-5.0948,-5.1046,-5.1094,-5.1127,-5.1153,-5.1171,-5.1196,-5.1202,-5.1202,-5.1211,-5.1211,-5.1256,-5.1319,-5.1394,-5.1403,-5.1392,-5.1394,-5.1394,-5.1394,-5.1394,-5.1394,-5.1394,-5.1394,-5.1394,-5.1394,-5.1394,-5.1394,-5.1402,-5.1391,-5.1401,-5.1387,-5.1363,-5.1352,-5.1353,-5.1322,-5.1304,-5.131,-5.13,-5.13,-5.1086,-5.0833,-5.1086,-5.1028,-5.0989,-5.1047,-5.1145,-5.13,-5.13,-5.13,-5.13,-5.1281,-5.0911,-5.056,-5.0287,-5.0229,-5.0229,-4.9917,-5.0073,-5.0774,-5.1417,-5.1807,-5.2275,-5.2353,-5.2251,-5.2041,-5.2002,-5.2528,-5.3405,-5.3927,-5.4625,-5.5686,-5.6114,-5.593,-5.575,-5.5527,-5.547,-5.5511,-5.547,-5.5396,-5.539,-5.539,-5.539,-5.5358,-5.53,-5.5227,-5.1702,-5.1696,-5.1128,-5.0874,-5.0866,-5.0874,-5.0885,-5.0866,-5.0885,-5.0874,-5.0832,-5.06,-4.9684,-4.8315,-4.6816,-4.6055,-4.5739,-4.5731,-4.5727,-4.575,-4.5981,-4.6378,-4.6794,-4.7127,-4.7785,-4.8628,-4.9177,-4.9676,-5.0117,-5.0577,-5.0963,-5.1094,-5.1095,-5.1147,-5.1184,-5.1202,-5.1208,-5.1211,-5.1211,-5.1229,-5.1267,-5.1281,-5.1336,-5.1383,-5.1384,-5.1394,-5.1394,-5.1394,-5.1394,-5.1394,-5.1394,-5.1394,-5.1394,-5.1394,-5.1394,-5.1394,-5.1394,-5.1394,-5.1402,-5.1393,-5.1401,-5.1386,-5.1382,-5.1353,-5.1305,-5.1302,-5.1294,-5.13,-5.13,-5.13,-5.13,-5.1281,-5.1242,-5.1203,-5.1261,-5.13,-5.13,-5.13,-5.13,-5.13,-5.13,-5.13,-5.0969,-5.0638,-5.0677,-5.1047,-5.1028,-5.0852,-5.1456,-5.2275,-5.2859,-5.3229,-5.3112,-5.2995,-5.2781,-5.2684,-5.3034,-5.3132,-5.3673,-5.4411,-5.5444,-5.5932,-5.5915,-5.571,-5.5511,-5.5465,-5.5453,-5.5422,-5.539,-5.539,-5.539,-5.5358,-5.5345,-5.5254,-5.5168,-5.0797,-5.0787,-5.0803,-5.081,-5.081,-5.081,-5.0829,-5.0819,-5.0819,-5.0855,-5.08,-5.0148,-4.937,-4.8365,-4.741,-4.6482,-4.5851,-4.5795,-4.5781,-4.6028,-4.6495,-4.6873,-4.7317,-4.7901,-4.8639,-4.9401,-4.9811,-5.0213,-5.0635,-5.0759,-5.099,-5.1087,-5.1082,-5.114,-5.1196,-5.1214,-5.1217,-5.1205,-5.122,-5.1272,-5.1339,-5.1366,-5.1383,-5.1384,-5.1392,-5.1394,-5.1394,-5.1394,-5.1394,-5.1394,-5.1394,-5.1394,-5.1394,-5.1394,-5.1394,-5.1394,-5.1394,-5.1394,-5.1398,-5.14,-5.1391,-5.1367,-5.1362,-5.1338,-5.133,-5.1307,-5.1304,-5.1312,-5.1308,-5.13,-5.13,-5.13,-5.13,-5.13,-5.13,-5.13,-5.13,-5.13,-5.13,-5.13,-5.13,-5.13,-5.13,-5.095,-5.0872,-5.1183,-5.1671,-5.1534,-5.2236,-5.3015,-5.3755,-5.4121,-5.3989,-5.3872,-5.3736,-5.3599,-5.3132,-5.3112,-5.3483,-5.424,-5.5117,-5.5417,-5.558,-5.5719,-5.5535,-5.5453,-5.539,-5.539,-5.539,-5.539,-5.5371,-5.5313,-5.5227,-5.514,-5.5085,-5.0693,-5.0702,-5.074,-5.0767,-5.0821,-5.0821,-5.0821,-5.0821,-5.0821,-5.0838,-5.0841,-5.0027,-4.949,-4.8887,-4.7695,-4.6948,-4.6515,-4.5967,-4.5907,-4.6093,-4.658,-4.7287,-4.7874,-4.8713,-4.9587,-5.0206,-5.0434,-5.0511,-5.084,-5.0941,-5.1005,-5.1074,-5.1075,-5.1153,-5.119,-5.1211,-5.121,-5.123,-5.1243,-5.1308,-5.1362,-5.1397,-5.1389,-5.1392,-5.1394,-5.1394,-5.1394,-5.1394,-5.1394,-5.1394,-5.1394,-5.1394,-5.1394,-5.1394,-5.1394,-5.1394,-5.1394,-5.1394,-5.1394,-5.1394,-5.1402,-5.1387,-5.1383,-5.1366,-5.1346,-5.1359,-5.1338,-5.1319,-5.1303,-5.1316,-5.13,-5.13,-5.13,-5.13,-5.13,-5.13,-5.13,-5.13,-5.13,-5.13,-5.13,-5.13,-5.13,-5.1261,-5.1242,-5.1339,-5.1826,-5.2391,-5.3093,-5.3716,-5.4437,-5.4924,-5.4827,-5.4242,-5.4028,-5.356,-5.3073,-5.3093,-5.3245,-5.3886,-5.4541,-5.482,-5.5003,-5.5264,-5.5412,-5.5211,-5.5174,-5.5333,-5.5371,-5.5339,-5.528,-5.5208,-5.5121,-5.5023,-5.5,-5.0683,-5.0683,-5.0683,-5.0731,-5.0757,-5.0776,-5.0776,-5.0776,-5.0776,-5.0812,-5.0825,-5.0215,-4.9861,-4.937,-4.8585,-4.7463,-4.7076,-4.6535,-4.6308,-4.6571,-4.7158,-4.7932,-4.8775,-4.9548,-5.0299,-5.084,-5.0898,-5.0898,-5.0898,-5.0956,-5.1012,-5.106,-5.1081,-5.114,-5.1202,-5.1219,-5.1215,-5.1239,-5.1296,-5.1356,-5.1386,-5.1391,-5.1394,-5.1392,-5.1394,-5.1394,-5.1394,-5.1394,-5.1394,-5.1394,-5.1394,-5.1394,-5.1394,-5.1394,-5.1394,-5.1394,-5.1394,-5.1394,-5.1394,-5.1394,-5.1398,-5.1393,-5.1394,-5.1383,-5.1386,-5.1384,-5.1367,-5.1357,-5.135,-5.1343,-5.1333,-5.1294,-5.1296,-5.1292,-5.13,-5.13,-5.13,-5.13,-5.13,-5.13,-5.13,-5.13,-5.132,-5.1359,-5.1651,-5.1885,-5.2625,-5.3268,-5.4048,-5.4613,-5.5061,-5.547,-5.5626,-5.4885,-5.4126,-5.4009,-5.3736,-5.2508,-5.2726,-5.3238,-5.376,-5.4034,-5.4165,-5.4223,-5.4403,-5.4708,-5.4798,-5.4766,-5.5001,-5.5288,-5.5203,-5.5107,-5.5052,-5.4981,-5.4956,-5.0683,-5.0683,-5.0683,-5.0693,-5.0702,-5.0693,-5.0702,-5.0712,-5.0702,-5.0759,-5.0821,-5.0728,-5.0402,-4.9854,-4.9397,-4.8604,-4.7637,-4.7231,-4.7076,-4.7289,-4.7959,-4.8836,-4.9544,-5.026,-5.0705,-5.084,-5.0898,-5.0898,-5.0898,-5.0925,-5.099,-5.1087,-5.1114,-5.114,-5.1202,-5.12,-5.1234,-5.1277,-5.1353,-5.1389,-5.1384,-5.1388,-5.139,-5.1392,-5.1394,-5.1394,-5.1394,-5.1394,-5.1394,-5.1394,-5.1394,-5.1394,-5.1394,-5.1394,-5.1394,-5.1394,-5.1394,-5.1394,-5.1394,-5.1394,-5.1385,-5.1397,-5.1395,-5.1402,-5.1386,-5.14,-5.1401,-5.1378,-5.1372,-5.14,-5.1371,-5.1316,-5.1336,-5.1457,-5.1489,-5.13,-5.13,-5.13,-5.13,-5.13,-5.13,-5.13,-5.132,-5.1437,-5.1885,-5.243,-5.3327,-5.4126,-5.4885,-5.5372,-5.5723,-5.586,-5.6054,-5.5411,-5.4749,-5.4827,-5.432,-5.2875,-5.2139,-5.2578,-5.2906,-5.3135,-5.3204,-5.324,-5.3449,-5.3766,-5.3958,-5.4078,-5.4434,-5.4762,-5.5023,-5.5009,-5.4985,-5.4956,-5.4912,-5.0683,-5.0683,-5.0683,-5.0683,-5.0683,-5.0683,-5.0683,-5.0683,-5.0693,-5.075,-5.0784,-5.0838,-5.0764,-5.0399,-4.9939,-4.9359,-4.8836,-4.8082,-4.7966,-4.8082,-4.8817,-4.9301,-4.9919,-5.0473,-5.0898,-5.0898,-5.0898,-5.0898,-5.0898,-5.0898,-5.099,-5.1087,-5.114,-5.1178,-5.1225,-5.1245,-5.1288,-5.1308,-5.1352,-5.1388,-5.1394,-5.1394,-5.1394,-5.1394,-5.1394,-5.1394,-5.1394,-5.1394,-5.1394,-5.1394,-5.1394,-5.1394,-5.1394,-5.1394,-5.1394,-5.1394,-5.1394,-5.1394,-5.1394,-5.1394,-5.1398,-5.1389,-5.1393,-5.1395,-5.1398,-5.1386,-5.1387,-5.1386,-5.1385,-5.1595,-5.2073,-5.1584,-5.1538,-5.1982,-5.1974,-5.1467,-5.1297,-5.13,-5.13,-5.13,-5.13,-5.13,-5.132,-5.1534,-5.1943,-5.245,-5.3229,-5.4554,-5.5489,-5.5899,-5.6249,-5.6269,-5.6253,-5.5743,-5.5314,-5.4916,-5.4197,-5.2805,-5.1944,-5.1742,-5.2012,-5.2241,-5.2435,-5.2559,-5.27,-5.2844,-5.3124,-5.3428,-5.3857,-5.4206,-5.462,-5.4933,-5.4927,-5.4931,-5.4916,-5.0683,-5.0683,-5.0683,-5.0683,-5.0683,-5.0683,-5.0683,-5.0683,-5.0693,-5.075,-5.0784,-5.0821,-5.0825,-5.0708,-5.0403,-4.9861,-4.9668,-4.9165,-4.8856,-4.8914,-4.9378,-4.9823,-5.0241,-5.0589,-5.084,-5.0898,-5.0898,-5.0898,-5.0898,-5.0898,-5.0983,-5.1081,-5.1146,-5.119,-5.1236,-5.1259,-5.1296,-5.1319,-5.1361,-5.1392,-5.1394,-5.1394,-5.1394,-5.1394,-5.1394,-5.1394,-5.1394,-5.1394,-5.1394,-5.1394,-5.1394,-5.1394,-5.1394,-5.1394,-5.1394,-5.1394,-5.1394,-5.1394,-5.1394,-5.1394,-5.1396,-5.1396,-5.1394,-5.1394,-5.1396,-5.1393,-5.1397,-5.1402,-5.1347,-5.166,-5.1971,-5.1463,-5.1676,-5.2104,-5.192,-5.1418,-5.1327,-5.1341,-5.131,-5.1307,-5.13,-5.13,-5.1339,-5.169,-5.2002,-5.2528,-5.3093,-5.4457,-5.5743,-5.6113,-5.6405,-5.6483,-5.6386,-5.5914,-5.5223,-5.4489,-5.3692,-5.2675,-5.196,-5.1286,-5.1183,-5.1432,-5.1677,-5.179,-5.1636,-5.1713,-5.2328,-5.2802,-5.3432,-5.3998,-5.452,-5.4741,-5.4863,-5.4901,-5.4901,-5.0683,-5.0683,-5.0683,-5.0683,-5.0683,-5.0683,-5.0683,-5.0693,-5.0693,-5.075,-5.0821,-5.0801,-5.0852,-5.089,-5.084,-5.0453,-4.9977,-4.9765,-4.9745,-4.9726,-4.99,-5.0306,-5.0608,-5.0859,-5.0898,-5.0898,-5.0898,-5.0898,-5.0898,-5.0941,-5.1005,-5.1081,-5.1166,-5.119,-5.1217,-5.1264,-5.1292,-5.1323,-5.1347,-5.139,-5.1394,-5.1394,-5.1394,-5.1394,-5.1394,-5.1394,-5.1394,-5.1394,-5.1394,-5.1394,-5.1394,-5.1394,-5.1394,-5.1394,-5.1394,-5.1394,-5.1394,-5.1394,-5.1394,-5.1394,-5.1394,-5.1394,-5.1394,-5.1394,-5.124,-5.1088,-5.0954,-5.0954,-5.0903,-5.1183,-5.1383,-5.1444,-5.1504,-5.1601,-5.1578,-5.1417,-5.1393,-5.1361,-5.1318,-5.1297,-5.13,-5.1304,-5.13,-5.1573,-5.1846,-5.2158,-5.2664,-5.3385,-5.4652,-5.5801,-5.6113,-5.6483,-5.6342,-5.6085,-5.537,-5.4563,-5.3711,-5.286,-5.1657,-5.0964,-5.0831,-5.0702,-5.0867,-5.0853,-5.0405,-5.0571,-5.1241,-5.2208,-5.3224,-5.3732,-5.4059,-5.4632,-5.4787,-5.4867,-5.4837,-5.0683,-5.0683,-5.0683,-5.0683,-5.0683,-5.0693,-5.0683,-5.0693,-5.0702,-5.0739,-5.0821,-5.0855,-5.0888,-5.0898,-5.0898,-5.0724,-5.0608,-5.055,-5.0569,-5.0531,-5.0422,-5.0685,-5.0821,-5.0898,-5.0898,-5.0898,-5.0898,-5.0898,-5.0914,-5.0963,-5.1039,-5.1107,-5.1166,-5.119,-5.1228,-5.1273,-5.1284,-5.1323,-5.1352,-5.1388,-5.1394,-5.1394,-5.1394,-5.1394,-5.1394,-5.1394,-5.1394,-5.1392,-5.1392,-5.1392,-5.1392,-5.1394,-5.1394,-5.1394,-5.1394,-5.1394,-5.1394,-5.1394,-5.1394,-5.1394,-5.1355,-5.1316,-5.1316,-5.0965,-5.0729,-5.0436,-5.0243,-5.0223,-5.0457,-5.0743,-5.1118,-5.1296,-5.1534,-5.1713,-5.162,-5.1426,-5.1385,-5.138,-5.1327,-5.13,-5.1303,-5.1292,-5.1308,-5.1339,-5.1612,-5.1826,-5.2193,-5.282,-5.3736,-5.4963,-5.5754,-5.6119,-5.6383,-5.6135,-5.5599,-5.4847,-5.3961,-5.3042,-5.1865,-5.0842,-5.0556,-5.0412,-5.0224,-5.0126,-5.007,-5.0075,-5.0236,-5.1323,-5.2504,-5.2997,-5.3347,-5.4086,-5.4693,-5.4773,-5.4692,-5.0683,-5.0683,-5.0683,-5.0702,-5.0693,-5.0702,-5.0721,-5.073,-5.072,-5.0738,-5.0846,-5.0872,-5.0905,-5.0917,-5.0898,-5.0879,-5.0859,-5.0821,-5.0821,-5.0821,-5.0898,-5.0879,-5.0898,-5.0898,-5.0898,-5.0898,-5.0898,-5.0898,-5.0941,-5.1012,-5.1081,-5.1101,-5.1166,-5.1189,-5.1219,-5.1263,-5.1324,-5.134,-5.1369,-5.1388,-5.1394,-5.1394,-5.1394,-5.1392,-5.1392,-5.1392,-5.139,-5.1388,-5.1401,-5.1377,-5.1374,-5.1344,-5.1366,-5.1372,-5.1399,-5.1401,-5.139,-5.1392,-5.1394,-5.1394,-5.1199,-5.0984,-5.0867,-5.0163,-4.987,-4.9616,-4.9423,-4.9345,-4.9833,-5.0301,-5.075,-5.118,-5.1631,-5.2042,-5.1743,-5.142,-5.1386,-5.1386,-5.1352,-5.1322,-5.1294,-5.1303,-5.1296,-5.1304,-5.132,-5.1495,-5.1768,-5.2216,-5.3229,-5.4492,-5.5195,-5.5629,-5.6037,-5.6211,-5.5647,-5.5074,-5.4171,-5.3238,-5.2181,-5.1259,-5.0597,-5.0194,-5.0089,-5.0025,-4.9973,-4.999,-5.002,-5.0694,-5.1642,-5.2177,-5.293,-5.3745,-5.4389,-5.4693,-5.4516,-5.077,-5.0683,-5.0683,-5.0693,-5.0692,-5.0692,-5.0748,-5.0793,-5.0757,-5.0794,-5.0891,-5.0908,-5.0905,-5.0898,-5.0898,-5.0898,-5.0898,-5.0898,-5.0898,-5.0898,-5.0898,-5.0898,-5.0898,-5.0898,-5.0898,-5.0898,-5.0898,-5.0898,-5.0941,-5.1012,-5.1101,-5.112,-5.1172,-5.1214,-5.1219,-5.1267,-5.1304,-5.1323,-5.1361,-5.1388,-5.1392,-5.1394,-5.1392,-5.139,-5.1388,-5.1388,-5.1401,-5.1389,-5.1388,-5.1359,-5.1349,-5.1308,-5.1319,-5.1356,-5.1369,-5.1266,-5.1223,-5.1095,-5.0982,-5.0867,-5.0516,-5.0221,-4.9967,-4.9245,-4.8913,-4.8894,-4.8738,-4.8505,-4.8876,-4.9519,-5.0008,-5.0906,-5.155,-5.1726,-5.154,-5.1395,-5.1402,-5.1387,-5.1379,-5.1327,-5.1305,-5.1294,-5.1308,-5.13,-5.13,-5.132,-5.1437,-5.1807,-5.2504,-5.379,-5.4562,-5.5059,-5.5519,-5.5874,-5.5916,-5.5266,-5.4367,-5.3393,-5.2367,-5.1305,-5.039,-5.0101,-4.9959,-4.9946,-4.9933,-4.992,-5.0063,-5.0713,-5.1324,-5.1926,-5.2684,-5.3499,-5.4067,-5.456,-5.4382,-5.1241,-5.0712,-5.0683,-5.0693,-5.0692,-5.0692,-5.0766,-5.0863,-5.0855,-5.0863,-5.0899,-5.0913,-5.0901,-5.0874,-5.0898,-5.0898,-5.0898,-5.0898,-5.0898,-5.0898,-5.0898,-5.0898,-5.0898,-5.0898,-5.0898,-5.0898,-5.0898,-5.0898,-5.0941,-5.1012,-5.1101,-5.1107,-5.1166,-5.122,-5.1203,-5.1278,-5.1292,-5.1277,-5.134,-5.1394,-5.1386,-5.1388,-5.139,-5.1394,-5.1386,-5.1355,-5.1343,-5.1326,-5.1335,-5.1312,-5.1304,-5.13,-5.13,-5.1331,-5.1349,-5.1294,-5.0854,-5.0616,-5.0393,-5.0065,-4.954,-4.9306,-4.8993,-4.8465,-4.8152,-4.8191,-4.8094,-4.7842,-4.7978,-4.8681,-4.952,-5.0555,-5.1375,-5.1375,-5.1394,-5.1389,-5.1397,-5.1386,-5.1384,-5.1352,-5.1316,-5.1305,-5.1303,-5.13,-5.13,-5.13,-5.13,-5.1515,-5.1764,-5.2676,-5.3774,-5.4363,-5.4916,-5.5281,-5.5467,-5.5231,-5.4196,-5.3398,-5.2429,-5.1335,-5.0253,-5.0024,-4.992,-4.9906,-4.9893,-4.9893,-5.012,-5.0713,-5.13,-5.1774,-5.2684,-5.3594,-5.42,-5.4693,-5.4338,-5.1991,-5.1241,-5.0837,-5.0712,-5.0748,-5.0738,-5.081,-5.0897,-5.0905,-5.0905,-5.0905,-5.0882,-5.0847,-5.0814,-5.0858,-5.089,-5.089,-5.0898,-5.0898,-5.0898,-5.0898,-5.0898,-5.0898,-5.0898,-5.0898,-5.0898,-5.0898,-5.0906,-5.0933,-5.102,-5.1101,-5.1114,-5.1166,-5.1194,-5.1197,-5.1244,-5.1252,-5.1248,-5.1331,-5.1359,-5.1361,-5.1358,-5.1355,-5.1356,-5.1346,-5.1316,-5.1304,-5.1284,-5.1272,-5.1258,-5.1244,-5.1254,-5.1235,-5.1254,-5.128,-5.1074,-5.0651,-5.0115,-4.9835,-4.9278,-4.858,-4.8385,-4.825,-4.7819,-4.7108,-4.7147,-4.7508,-4.7334,-4.7647,-4.8289,-4.9421,-5.0494,-5.1043,-5.1219,-5.1336,-5.1402,-5.1387,-5.1395,-5.1387,-5.1377,-5.1343,-5.1342,-5.1323,-5.13,-5.13,-5.13,-5.13,-5.13,-5.1511,-5.1678,-5.2753,-5.351,-5.3965,-5.4297,-5.4417,-5.4279,-5.3857,-5.3108,-5.2409,-5.1704,-5.083,-5.0244,-4.9893,-4.9893,-4.9893,-4.9893,-5.0215,-5.0789,-5.1111,-5.149,-5.2589,-5.3783,-5.4295,-5.4735,-5.4441,-5.2856,-5.2,-5.1337,-5.101,-5.0957,-5.0985,-5.096,-5.0901,-5.0917,-5.0882,-5.0858,-5.0882,-5.0799,-5.0727,-5.0763,-5.0833,-5.0874,-5.0882,-5.089,-5.0898,-5.0898,-5.0898,-5.0898,-5.0898,-5.0898,-5.0898,-5.0898,-5.0898,-5.0906,-5.1005,-5.1074,-5.1114,-5.1146,-5.1181,-5.1205,-5.1211,-5.122,-5.1254,-5.1295,-5.1284,-5.1288,-5.1292,-5.13,-5.1296,-5.1292,-5.1288,-5.1272,-5.1249,-5.122,-5.1205,-5.1208,-5.1211,-5.1211,-5.1219,-5.1225,-5.1005,-5.0229,-4.9868,-4.9558,-4.8733,-4.8057,-4.7615,-4.75,-4.7125,-4.6448,-4.645,-4.6815,-4.7188,-4.7481,-4.8033,-4.9165,-4.9985,-5.0475,-5.108,-5.1199,-5.1375,-5.1396,-5.14,-5.1384,-5.1402,-5.139,-5.1373,-5.1336,-5.1312,-5.13,-5.13,-5.13,-5.13,-5.1335,-5.1432,-5.1974,-5.2435,-5.2735,-5.3028,-5.3472,-5.3511,-5.3384,-5.2799,-5.2146,-5.182,-5.133,-5.0421,-4.9893,-4.9893,-4.9893,-4.9893,-5.0315,-5.0903,-5.1149,-5.1509,-5.2949,-5.42,-5.4314,-5.4648,-5.4607,-5.376,-5.2953,-5.276,-5.2358,-5.1856,-5.1835,-5.1475,-5.0974,-5.0921,-5.0805,-5.0735,-5.0822,-5.0789,-5.0606,-5.0616,-5.0682,-5.0727,-5.0797,-5.0882,-5.0898,-5.0898,-5.0898,-5.0975,-5.1072,-5.0937,-5.1072,-5.1188,-5.0956,-5.1157,-5.1126,-5.1053,-5.1101,-5.1102,-5.1145,-5.12,-5.1208,-5.1215,-5.124,-5.1245,-5.1235,-5.1225,-5.124,-5.1248,-5.1243,-5.1225,-5.1215,-5.1208,-5.1206,-5.122,-5.1214,-5.1214,-5.1202,-5.1208,-5.122,-5.1203,-5.0826,-5.0017,-4.9336,-4.8856,-4.7821,-4.705,-4.6797,-4.6699,-4.6618,-4.6235,-4.6235,-4.6638,-4.7109,-4.739,-4.7594,-4.8456,-4.9005,-4.9532,-5.0473,-5.0943,-5.1238,-5.1396,-5.1402,-5.1397,-5.1387,-5.1397,-5.1351,-5.1317,-5.1308,-5.13,-5.13,-5.13,-5.13,-5.1296,-5.1315,-5.1327,-5.153,-5.1766,-5.2478,-5.3201,-5.313,-5.2938,-5.2386,-5.1951,-5.1662,-5.1121,-5.0274,-4.9912,-5.0139,-5.0006,-4.9893,-5.0391,-5.0978,-5.1661,-5.2229,-5.3669,-5.4693,-5.4674,-5.4644,-5.4654]},{"header":{"parameterUnit":"m.s-1","parameterCategory":1,"la1":31.0,"la2":29.5877,"lo1":-88.7671,"lo2":-86.6584,"dx":0.0162,"dy":0.0185,"nx":115,"ny":88,"refTime":"2022-12-04T18:00:00:Z","depth":0,"parameterNumber":3,"parameterNumberName":"V-component_of_WINDS"},"data":[0.0,0.0,0.0,0.0,0.0,0.0,0.0,0.0,0.0,0.0,0.0,0.0,0.0,0.0,0.0,0.0,0.0,0.0,0.0,0.0,0.0,0.0,0.0,0.0,0.0,0.0,0.0,0.0,0.0,0.0,0.0,0.0,0.0,0.0,0.0,0.0,0.0,0.0,0.0,0.0,0.0,0.0,0.0,0.0,0.0,0.0,0.0,0.0,0.0,0.0,0.0,0.0,0.0,0.0,0.0,0.0,0.0,0.0,0.0,0.0,0.0,0.0,0.0,0.0,0.0,0.0,0.0,0.0,0.0,0.0,0.0,0.0,0.0,0.0,0.0,0.0,0.0,0.0,0.0,0.0,0.0,0.0,0.0,0.0,0.0,0.0,0.0,0.0,0.0,0.0,0.0,0.0,0.0,0.0,0.0,0.0,0.0,0.0,0.0,0.0,0.0,0.0,0.0,0.0,0.0,0.0,0.0,0.0,0.0,0.0,0.0,0.0,0.0,0.0,0.0,0.0,0.0,0.0,0.0,0.0,0.0,0.0,0.0,0.0,0.0,0.0,0.0,0.0,0.0,0.0,0.0,0.0,0.0,0.0,0.0,0.0,0.0,0.0,0.0,0.0,0.0,0.0,0.0,0.0,0.0,0.0,0.0,0.0,0.0,0.0,0.0,0.0,0.0,0.0,0.0,0.0,0.0,0.0,0.0,0.0,0.0,0.0,0.0,0.0,0.0,0.0,0.0,0.0,0.0,0.0,0.0,0.0,0.0,0.0,0.0,0.0,0.0,0.0,0.0,0.0,0.0,0.0,0.0,0.0,0.0,0.0,0.0,0.0,0.0,0.0,0.0,0.0,0.0,0.0,0.0,0.0,0.0,0.0,0.0,0.0,0.0,0.0,0.0,0.0,0.0,0.0,0.0,0.0,0.0,0.0,0.0,0.0,0.0,0.0,0.0,0.0,0.0,0.0,0.0,0.0,0.0,0.0,0.0,0.0,0.0,0.0,0.0,0.0,0.0,0.0,0.0,0.0,0.0,0.0,0.0,0.0,0.0,0.0,0.0,0.0,0.0,0.0,0.0,0.0,0.0,0.0,0.0,0.0,0.0,0.0,0.0,0.0,0.0,0.0,0.0,0.0,0.0,0.0,0.0,0.0,0.0,0.0,0.0,0.0,0.0,0.0,0.0,0.0,0.0,0.0,0.0,0.0,0.0,0.0,0.0,0.0,0.0,0.0,0.0,0.0,0.0,0.0,0.0,0.0,0.0,0.0,0.0,0.0,0.0,0.0,0.0,0.0,0.0,0.0,0.0,0.0,0.0,0.0,0.0,0.0,0.0,0.0,0.0,0.0,0.0,0.0,0.0,0.0,0.0,0.0,0.0,0.0,0.0,0.0,0.0,0.0,0.0,0.0,0.0,0.0,0.0,0.0,0.0,0.0,0.0,0.0,0.0,0.0,0.0,0.0,0.0,0.0,0.0,0.0,0.0,0.0,0.0,0.0,0.0,0.0,0.0,0.0,0.0,0.0,0.0,0.0,0.0,0.0,0.0,0.0,0.0,0.0,0.0,0.0,0.0,0.0,0.0,0.0,0.0,0.0,0.0,0.0,0.0,0.0,0.0,0.0,0.0,0.0,0.0,0.0,0.0,0.0,0.0,0.0,0.0,0.0,0.0,0.0,0.0,0.0,0.0,0.0,0.0,0.0,0.0,0.0,0.0,0.0,0.0,0.0,0.0,0.0,0.0,0.0,0.0,0.0,0.0,0.0,0.0,0.0,0.0,0.0,0.0,0.0,0.0,0.0,0.0,0.0,0.0,0.0,0.0,0.0,0.0,0.0,0.0,0.0,0.0,0.0,0.0,0.0,0.0,0.0,0.0,0.0,0.0,0.0,0.0,0.0,0.0,0.0,0.0,0.0,0.0,0.0,0.0,0.0,0.0,0.0,0.0,0.0,0.0,0.0,0.0,0.0,0.0,0.0,0.0,0.0,0.0,0.0,0.0,0.0,0.0,0.0,0.0,0.0,0.0,0.0,0.0,0.0,0.0,0.0,0.0,0.0,0.0,0.0,0.0,0.0,0.0,0.0,0.0,0.0,0.0,0.0,0.0,0.0,0.0,0.0,0.0,0.0,0.0,0.0,0.0,0.0,0.0,0.0,0.0,0.0,0.0,0.0,0.0,0.0,0.0,0.0,0.0,0.0,0.0,0.0,0.0,0.0,0.0,0.0,0.0,0.0,0.0,0.0,0.0,0.0,0.0,0.0,0.0,0.0,0.0,0.0,0.0,0.0,0.0,0.0,0.0,0.0,0.0,0.0,0.0,0.0,0.0,0.0,0.0,0.0,0.0,0.0,0.0,0.0,0.0,0.0,0.0,0.0,0.0,0.0,0.0,0.0,0.0,0.0,0.0,0.0,0.0,0.0,0.0,0.0,0.0,0.0,0.0,0.0,0.0,0.0,0.0,0.0,0.0,0.0,0.0,0.0,0.0,0.0,0.0,0.0,0.0,0.0,0.0,0.0,0.0,0.0,0.0,0.0,0.0,0.0,0.0,0.0,0.0,0.0,0.0,0.0,0.0,0.0,0.0,0.0,0.0,0.0,0.0,0.0,0.0,0.0,0.0,0.0,0.0,0.0,0.0,0.0,0.0,0.0,0.0,0.0,0.0,0.0,0.0,0.0,0.0,0.0,0.0,0.0,0.0,0.0,0.0,0.0,0.0,0.0,0.0,0.0,0.0,0.0,0.0,0.0,0.0,0.0,0.0,0.0,0.0,0.0,0.0,0.0,0.0,0.0,0.0,0.0,0.0,0.0,0.0,0.0,0.0,0.0,0.0,0.0,0.0,0.0,0.0,0.0,0.0,0.0,0.0,0.0,0.0,0.0,0.0,0.0,0.0,0.0,0.0,0.0,0.0,0.0,0.0,0.0,0.0,0.0,0.0,0.0,0.0,0.0,0.0,0.0,0.0,0.0,0.0,0.0,0.0,0.0,0.0,0.0,0.0,0.0,0.0,0.0,0.0,0.0,0.0,0.0,0.0,0.0,0.0,0.0,0.0,0.0,0.0,0.0,0.0,0.0,0.0,0.0,0.0,0.0,0.0,0.0,0.0,0.0,0.0,0.0,0.0,0.0,0.0,0.0,0.0,0.0,0.0,0.0,0.0,0.0,0.0,0.0,0.0,0.0,0.0,0.0,0.0,0.0,0.0,0.0,0.0,0.0,0.0,0.0,0.0,0.0,0.0,0.0,0.0,0.0,0.0,0.0,0.0,0.0,0.0,0.0,0.0,0.0,0.0,0.0,0.0,0.0,0.0,0.0,0.0,0.0,0.0,0.0,0.0,0.0,0.0,0.0,0.0,0.0,0.0,0.0,0.0,0.0,0.0,0.0,0.0,0.0,0.0,0.0,0.0,0.0,0.0,0.0,0.0,0.0,0.0,0.0,0.0,0.0,0.0,0.0,0.0,0.0,0.0,0.0,0.0,0.0,0.0,0.0,0.0,0.0,0.0,0.0,0.0,0.0,0.0,0.0,0.0,0.0,0.0,0.0,0.0,0.0,0.0,0.0,0.0,0.0,0.0,0.0,0.0,0.0,0.0,0.0,0.0,0.0,0.0,0.0,0.0,0.0,0.0,0.0,0.0,0.0,0.0,0.0,0.0,0.0,0.0,0.0,0.0,0.0,0.0,0.0,0.0,0.0,0.0,0.0,0.0,0.0,0.0,0.0,0.0,0.0,0.0,0.0,0.0,0.0,0.0,0.0,0.0,0.0,0.0,0.0,0.0,0.0,0.0,0.0,0.0,0.0,0.0,0.0,0.0,0.0,0.0,0.0,0.0,0.0,0.0,0.0,0.0,0.0,0.0,0.0,0.0,0.0,0.0,0.0,0.0,0.0,0.0,0.0,0.0,0.0,0.0,0.0,0.0,0.0,0.0,0.0,0.0,0.0,0.0,0.0,0.0,0.0,0.0,0.0,0.0,0.0,0.0,0.0,0.0,0.0,0.0,0.0,0.0,0.0,0.0,0.0,0.0,0.0,0.0,0.0,0.0,0.0,0.0,0.0,0.0,0.0,0.0,0.0,0.0,0.0,0.0,0.0,0.0,0.0,0.0,0.0,0.0,0.0,0.0,0.0,0.0,0.0,0.0,0.0,0.0,0.0,0.0,0.0,0.0,0.0,0.0,0.0,0.0,0.0,0.0,0.0,0.0,0.0,0.0,0.0,0.0,0.0,0.0,0.0,0.0,0.0,0.0,0.0,0.0,0.0,-0.2798,0.0,0.0,0.0,-0.2205,0.0,0.0,0.0,0.0,0.0,0.0,0.0,0.0,0.0,0.0,0.0,0.0,0.0,0.0,0.0,0.0,0.0,0.0,0.0,0.0,0.0,0.0,0.0,0.0,0.0,0.0,0.0,0.0,0.0,0.0,0.0,0.0,0.0,0.0,0.0,0.0,0.0,0.0,0.0,0.0,0.0,0.0,0.0,0.0,0.0,0.0,0.0,0.0,0.0,0.0,0.0,0.0,0.0,0.0,0.0,0.0,0.0,0.0,0.0,0.0,0.0,0.0,0.0,0.0,0.0,0.0,0.0,0.0,0.0,0.0,0.0,0.0,0.0,0.0,0.0,0.0,0.0,0.0,0.0,0.0,0.0,0.0,0.0,0.0,0.0,0.0,0.0,0.0,0.0,0.0,0.0,0.0,0.0,0.0,0.0,0.0,0.0,0.0,0.0,0.0,0.0,0.0,0.0,0.0,0.0,0.0,0.0,0.0,0.0,0.0,-0.2713,-0.2346,-0.2327,-0.2265,-0.2203,0.0,0.0,0.0,0.0,0.0,0.0,0.0,0.0,0.0,0.0,0.0,0.0,0.0,0.0,0.0,0.0,0.0,0.0,0.0,0.0,0.0,0.0,0.0,0.0,0.0,0.0,0.0,0.0,0.0,0.0,0.0,0.0,0.0,0.0,0.0,0.0,0.0,0.0,0.0,0.0,0.0,0.0,0.0,0.0,0.0,0.0,0.0,0.0,0.0,0.0,0.0,0.0,0.0,0.0,0.0,0.0,0.0,0.0,0.0,0.0,0.0,0.0,0.0,0.0,0.0,0.0,0.0,0.0,0.0,0.0,0.0,0.0,0.0,0.0,0.0,0.0,0.0,0.0,0.0,0.0,0.0,0.0,0.0,0.0,0.0,0.0,0.0,0.0,0.0,0.0,0.0,0.0,0.0,0.0,0.0,0.0,0.0,0.0,0.0,0.0,0.0,0.0,0.0,0.0,0.0,0.0,0.0,0.0,0.0,0.0,0.0,0.0,-0.2286,-0.2246,-0.216,0.0,0.0,0.0,0.0,0.0,0.0,0.0,0.0,0.0,0.0,0.0,0.0,0.0,0.0,0.0,0.0,0.0,0.0,0.0,0.0,0.0,0.0,0.0,0.0,0.0,0.0,0.0,0.0,0.0,0.0,0.0,0.0,0.0,0.0,0.0,0.0,0.0,0.0,0.0,0.0,0.0,0.0,0.0,0.0,0.0,0.0,0.0,0.0,0.0,0.0,0.0,0.0,0.0,0.0,0.0,0.0,0.0,0.0,0.0,0.0,0.0,0.0,0.0,0.0,0.0,0.0,0.0,0.0,0.0,0.0,0.0,0.0,0.0,0.0,0.0,0.0,0.0,0.0,0.0,0.0,0.0,0.0,0.0,0.0,0.0,0.0,0.0,0.0,0.0,0.0,0.0,0.0,0.0,0.0,0.0,0.0,0.0,0.0,0.0,0.0,0.0,0.0,0.0,0.0,0.0,0.0,0.0,0.0,0.0,0.0,-0.2576,-0.2304,-0.223,0.0,-0.1997,0.0,0.0,0.0,0.0,0.0,0.0,0.0,0.0,0.0,0.0,0.0,0.0,0.0,0.0,0.0,0.0,0.0,0.0,0.0,0.0,0.0,0.0,0.0,0.0,0.0,0.0,0.0,0.0,0.0,0.0,0.0,0.0,0.0,0.0,0.0,0.0,0.0,0.0,0.0,0.0,0.0,0.0,0.0,0.0,0.0,0.0,0.0,0.0,0.0,0.0,0.0,0.0,0.0,0.0,0.0,0.0,0.0,0.0,0.0,0.0,0.0,0.0,0.0,0.0,0.0,0.0,0.0,0.0,0.0,0.0,0.0,0.0,0.0,0.0,0.0,0.0,0.0,0.0,0.0,0.0,0.0,0.0,0.0,0.0,0.0,0.0,0.0,0.0,0.0,0.0,0.0,0.0,0.0,0.0,0.0,0.0,0.0,0.0,0.0,0.0,0.0,0.0,0.0,0.0,0.0,0.0,0.0,0.0,0.0,0.0,-0.2386,-0.2253,-0.215,-0.2064,0.0,0.0,0.0,0.0,0.0,0.0,0.0,0.0,0.0,0.0,0.0,0.0,0.0,0.0,0.0,0.0,0.0,0.0,0.0,0.0,0.0,0.0,0.0,0.0,0.0,0.0,0.0,0.0,0.0,0.0,0.0,0.0,0.0,0.0,0.0,0.0,0.0,0.0,0.0,0.0,0.0,0.0,0.0,0.0,0.0,0.0,0.0,0.0,0.0,0.0,0.0,0.0,0.0,0.0,0.0,0.0,0.0,0.0,0.0,0.0,0.0,0.0,0.0,0.0,0.0,0.0,0.0,0.0,0.0,0.0,0.0,0.0,0.0,0.0,0.0,0.0,0.0,0.0,0.0,0.0,0.0,0.0,0.0,0.0,0.0,0.0,0.0,0.0,0.0,0.0,0.0,0.0,0.0,0.0,0.0,0.0,0.0,0.0,0.0,0.0,0.0,0.0,0.0,0.0,0.0,0.0,0.0,0.0,0.0,0.0,-0.2368,-0.2259,-0.2178,-0.202,-0.1953,-0.1953,0.0,0.0,0.0,0.0,0.0,0.0,0.0,0.0,0.0,0.0,0.0,0.0,0.0,0.0,0.0,0.0,0.0,0.0,0.0,0.0,0.0,0.0,0.0,0.0,0.0,0.0,0.0,0.0,0.0,0.0,0.0,0.0,0.0,0.0,0.0,0.0,0.0,0.0,0.0,0.0,0.0,0.0,0.0,0.0,0.0,0.0,0.0,0.0,0.0,0.0,0.0,0.0,0.0,0.0,0.0,0.0,0.0,0.0,0.0,0.0,0.0,0.0,0.0,0.0,0.0,0.0,0.0,0.0,0.0,0.0,0.0,0.0,0.0,0.0,0.0,0.0,0.0,0.0,0.0,0.0,0.0,0.0,0.0,0.0,0.0,0.0,0.0,0.0,0.0,0.0,0.0,0.0,0.0,0.0,0.0,0.0,0.0,0.0,0.0,0.0,0.0,0.0,0.0,0.0,0.0,0.0,0.0,0.0,-0.2504,-0.237,-0.2261,-0.2201,-0.1953,-0.1817,0.0,0.0,0.0,0.0,0.0,0.0,0.0,0.0,0.0,0.0,0.0,0.0,0.0,0.0,0.0,0.0,0.0,0.0,0.0,0.0,0.0,0.0,0.0,0.0,0.0,0.0,0.0,0.0,0.0,0.0,0.0,0.0,0.0,0.0,0.0,0.0,0.0,0.0,0.0,0.0,0.0,0.0,0.0,0.0,0.0,0.0,0.0,0.0,0.0,0.0,0.0,0.0,0.0,0.0,0.0,0.0,0.0,0.0,0.0,0.0,0.0,0.0,0.0,0.0,0.0,0.0,0.0,0.0,0.0,0.0,0.0,0.0,0.0,0.0,0.0,0.0,0.0,0.0,0.0,0.0,0.0,0.0,0.0,0.0,0.0,0.0,0.0,0.0,0.0,0.0,0.0,0.0,0.0,0.0,0.0,0.0,0.0,0.0,0.0,0.0,0.0,0.0,0.0,0.0,0.0,0.0,0.0,0.0,0.0,-0.2368,-0.2284,-0.2174,-0.2064,-0.1884,-0.1772,0.0,0.0,0.0,0.0,0.0,0.0,0.0,0.0,0.0,0.0,0.0,0.0,0.0,0.0,0.0,0.0,0.0,0.0,0.0,0.0,0.0,0.0,0.0,0.0,0.0,0.0,0.0,0.0,0.0,0.0,0.0,0.0,0.0,0.0,0.0,0.0,0.0,0.0,0.0,0.0,0.0,0.0,0.0,0.0,0.0,0.0,0.0,0.0,0.0,0.0,0.0,0.0,0.0,0.0,0.0,0.0,0.0,0.0,0.0,0.0,0.0,0.0,0.0,0.0,0.0,0.0,0.0,0.0,0.0,0.0,0.0,0.0,0.0,0.0,0.0,0.0,0.0,0.0,0.0,0.0,0.0,0.0,0.0,0.0,0.0,0.0,0.0,0.0,0.0,0.0,0.0,0.0,0.0,0.0,0.0,0.0,0.0,0.0,0.0,0.0,0.0,0.0,0.0,0.0,0.0,0.0,0.0,0.0,0.0,-0.23,-0.2263,-0.2151,-0.2037,-0.1898,-0.175,0.0,0.0,0.0,0.0,0.0,0.0,0.0,0.0,0.0,0.0,0.0,0.0,0.0,0.0,0.0,0.0,0.0,0.0,0.0,0.0,0.0,0.0,0.0,0.0,0.0,0.0,0.0,0.0,0.0,0.0,0.0,0.0,0.0,0.0,0.0,0.0,0.0,0.0,0.0,0.0,0.0,0.0,0.0,0.0,0.0,0.0,0.0,0.0,0.0,0.0,0.0,0.0,0.0,0.0,0.0,0.0,0.0,0.0,0.0,0.0,0.0,0.0,0.0,0.0,0.0,0.0,0.0,0.0,0.0,0.0,0.0,0.0,0.0,0.0,0.0,0.0,0.0,0.0,0.0,0.0,0.0,0.0,0.0,0.0,0.0,0.0,0.0,0.0,0.0,0.0,0.0,0.0,0.0,0.0,0.0,0.0,0.0,0.0,0.0,0.0,0.0,0.0,0.0,0.0,0.0,0.0,0.0,0.0,-0.2443,-0.2298,-0.228,-0.2237,-0.21,-0.1978,-0.1799,0.0,0.0,0.0,0.0,0.0,0.0,0.0,0.0,0.0,0.0,0.0,0.0,0.0,0.0,0.0,0.0,0.0,0.0,0.0,0.0,0.0,0.0,0.0,0.0,0.0,0.0,0.0,0.0,0.0,0.0,0.0,0.0,0.0,0.0,0.0,0.0,0.0,0.0,0.0,0.0,0.0,0.0,0.0,0.0,0.0,0.0,0.0,0.0,0.0,0.0,0.0,0.0,0.0,0.0,0.0,0.0,0.0,0.0,0.0,0.0,0.0,0.0,0.0,0.0,0.0,0.0,0.0,0.0,0.0,0.0,0.0,0.0,0.0,0.0,0.0,0.0,0.0,0.0,0.0,0.0,0.0,0.0,0.0,0.0,0.0,0.0,0.0,0.0,0.0,0.0,0.0,0.0,0.0,0.0,0.0,0.0,0.0,0.0,0.0,0.0,0.0,0.0,0.0,0.0,0.0,0.0,0.0,0.0,0.0,-0.2304,-0.2344,-0.2278,-0.2034,-0.1934,-0.1778,0.0,0.0,0.0,0.0,0.0,0.0,0.0,0.0,0.0,0.0,0.0,0.0,0.0,0.0,0.0,0.0,0.0,0.0,0.0,0.0,0.0,0.0,0.0,0.0,0.0,0.0,0.0,0.0,0.0,0.0,0.0,0.0,0.0,0.0,0.0,0.0,0.0,0.0,0.0,0.0,0.0,0.0,0.0,0.0,0.0,0.0,0.0,0.0,0.0,0.0,0.0,0.0,0.0,0.0,0.0,0.0,0.0,0.0,0.0,0.0,0.0,0.0,0.0,0.0,0.0,0.0,0.0,0.0,0.0,0.0,0.0,0.0,0.0,0.0,0.0,0.0,0.0,0.0,0.0,0.0,0.0,0.0,0.0,0.0,0.0,0.0,0.0,0.0,0.0,0.0,0.0,0.0,0.0,0.0,0.0,0.0,0.0,0.0,0.0,0.0,0.0,0.0,0.0,0.0,0.0,0.0,0.0,0.0,0.0,-0.2436,-0.2523,-0.241,-0.2145,-0.2125,-0.1893,-0.1527,0.0,0.0,0.0,0.0,0.0,0.0,0.0,0.0,0.0,0.0,0.0,0.0,0.0,0.0,0.0,0.0,0.0,0.0,0.0,0.0,0.0,0.0,0.0,0.0,0.0,0.0,0.0,0.0,0.0,0.0,0.0,0.0,0.0,0.0,0.0,0.0,0.0,0.0,0.0,0.0,0.0,0.0,0.0,0.0,0.0,0.0,0.0,0.0,0.0,0.0,0.0,0.0,0.0,0.0,0.0,0.0,0.0,0.0,0.0,0.0,0.0,0.0,0.0,0.0,0.0,0.0,0.0,0.0,0.0,0.0,0.0,0.0,0.0,0.0,0.0,0.0,0.0,0.0,0.0,0.0,0.0,0.0,0.0,0.0,0.0,0.0,0.0,0.0,0.0,0.0,0.0,0.0,0.0,0.0,0.0,0.0,0.0,0.0,0.0,0.0,0.0,0.0,0.0,0.0,0.0,0.0,0.0,0.0,-0.2721,-0.2776,-0.2696,-0.2453,-0.2408,-0.2133,0.0,0.0,0.0,0.0,0.0,0.0,0.0,0.0,0.0,0.0,0.0,0.0,0.0,0.0,0.0,0.0,0.0,0.0,0.0,0.0,0.0,0.0,0.0,0.0,0.0,0.0,0.0,0.0,0.0,0.0,0.0,0.0,0.0,0.0,0.0,0.0,0.0,0.0,0.0,0.0,0.0,0.0,0.0,0.0,0.0,0.0,0.0,0.0,0.0,0.0,0.0,0.0,0.0,0.0,0.0,0.0,0.0,0.0,0.0,0.0,0.0,0.0,0.0,0.0,0.0,0.0,0.0,0.0,0.0,0.0,0.0,0.0,0.0,0.0,0.0,0.0,0.0,0.0,0.0,0.0,0.0,0.0,0.0,0.0,0.0,0.0,0.0,0.0,0.0,0.0,0.0,0.0,0.0,0.0,0.0,0.0,0.0,0.0,0.0,0.0,0.0,0.0,0.0,0.0,0.0,0.0,0.0,0.0,0.0,-0.3043,-0.3079,-0.2993,-0.2767,-0.2473,-0.2232,0.0,0.0,0.0,0.0,0.0,0.0,0.0,0.0,0.0,0.0,0.0,0.0,0.0,0.0,0.0,0.0,0.0,0.0,0.0,0.0,0.0,0.0,0.0,0.0,0.0,0.0,0.0,0.0,0.0,0.0,0.0,0.0,0.0,0.0,0.0,0.0,0.0,0.0,0.0,0.0,0.0,0.0,0.0,0.0,0.0,0.0,0.0,0.0,0.0,0.0,0.0,0.0,0.0,0.0,0.0,0.0,0.0,0.0,0.0,0.0,0.0,0.0,0.0,0.0,0.0,0.0,0.0,0.0,0.0,0.0,0.0,0.0,0.0,0.0,0.0,0.0,0.0,0.0,0.0,0.0,0.0,0.0,0.0,0.0,0.0,0.0,0.0,0.0,0.0,0.0,0.0,0.0,0.0,0.0,0.0,0.0,0.0,0.0,0.0,0.0,0.0,0.0,0.0,0.0,0.0,0.0,0.0,0.0,-0.295,-0.3164,-0.3172,-0.3151,-0.3105,-0.27,-0.2358,0.0,0.0,0.0,0.0,0.0,0.0,0.0,0.0,0.0,0.0,0.0,0.0,0.0,0.0,0.0,0.0,0.0,0.0,0.0,0.0,0.0,0.0,0.0,0.0,0.0,0.0,0.0,0.0,0.0,0.0,0.0,0.0,0.0,0.0,0.0,0.0,0.0,0.0,0.0,0.0,0.0,0.0,0.0,0.0,0.0,0.0,0.0,0.0,0.0,0.0,0.0,0.0,0.0,0.0,0.0,0.0,0.0,0.0,0.0,0.0,0.0,0.0,0.0,0.0,0.0,0.0,0.0,0.0,0.0,0.0,0.0,0.0,0.0,0.0,0.0,0.0,0.0,0.0,0.0,0.0,0.0,0.0,0.0,0.0,0.0,0.0,0.0,0.0,0.0,0.0,0.0,0.0,0.0,0.0,0.0,0.0,0.0,0.0,0.0,0.0,0.0,0.0,0.0,0.0,0.0,0.0,0.0,0.0,-0.3034,-0.3103,-0.3183,-0.3267,-0.3377,-0.2918,-0.2518,0.0,0.0,0.0,0.0,0.0,0.0,0.0,0.0,0.0,0.0,0.0,0.0,0.0,0.0,0.0,0.0,0.0,0.0,0.0,0.0,0.0,0.0,0.0,0.0,0.0,0.0,0.0,0.0,0.0,0.0,0.0,0.0,0.0,0.0,0.0,0.0,0.0,0.0,0.0,0.0,0.0,0.0,0.0,0.0,0.0,0.0,0.0,0.0,0.0,0.0,0.0,0.0,0.0,0.0,0.0,0.0,0.0,0.0,0.0,0.0,0.0,0.0,0.0,0.0,0.0,0.0,0.0,0.0,0.0,0.0,0.0,0.0,0.0,0.0,0.0,0.0,0.0,0.0,0.0,0.0,0.0,0.0,0.0,0.0,0.0,0.0,0.0,0.0,0.0,0.0,0.0,0.0,0.0,0.0,0.0,0.0,0.0,0.0,0.0,0.0,0.0,0.0,0.0,0.0,0.0,0.0,0.0,0.0,-0.3065,-0.3158,-0.3218,-0.3202,-0.3254,-0.2839,-0.2574,0.0,0.0,0.0,0.0,0.0,0.0,0.0,0.0,0.0,0.0,0.0,0.0,0.0,0.0,0.0,0.0,0.0,0.0,0.0,0.0,0.0,0.0,0.0,0.0,0.0,0.0,0.0,0.0,0.0,0.0,0.0,0.0,0.0,0.0,0.0,0.0,0.0,0.0,0.0,0.0,0.0,0.0,0.0,0.0,0.0,0.0,0.0,0.0,0.2578,0.0,0.0,0.0,0.0,0.0,0.0,0.0,0.0,0.0,0.0,0.0,0.0,0.0,0.0,0.0,0.0,0.0,0.0,0.0,0.0,0.0,0.0,0.0,0.0,0.0,0.0,0.0,0.0,0.0,0.0,0.0,0.0,0.0,0.0,0.0,0.0,0.0,0.0,0.0,0.0,0.0,0.0,0.0,0.0,0.0,0.0,0.0,0.0,0.0,0.0,0.0,0.0,0.0,0.0,0.0,0.0,0.0,0.0,0.0,-0.3076,-0.3186,-0.3192,-0.3192,-0.3192,-0.2917,-0.2697,0.0,0.0,0.0,0.0,0.0,0.0,0.0,0.0,0.0,0.0,0.0,0.0,0.0,0.0,0.0,0.0,0.0,0.0,0.0,0.0,0.0,0.0,0.0,0.0,0.0,0.0,0.0,0.0,0.0,0.0,0.0,0.0,0.0,0.0,0.0,0.0,0.0,0.0,0.0,0.0,0.0,0.0,0.0,0.0,0.0,0.0,0.0,0.0,0.0,0.0,0.0,0.0,0.0,0.0,0.0,0.0,0.0,0.0,0.0,0.0,0.0,0.0,0.0,0.0,0.0,0.0,0.0,0.0,0.0,0.0,0.0,0.0,0.0,0.0,0.0,0.0,0.0,0.0,0.0,0.0,0.0,0.0,0.0,0.0,0.0,0.0,0.0,0.0,0.0,0.0,0.0,0.0,0.0,0.0,0.0,0.0,0.0,0.0,0.0,0.0,0.0,0.0,0.0,0.0,0.0,0.0,0.0,-0.2954,-0.3056,-0.3184,-0.3192,-0.3192,-0.3192,-0.3036,-0.2794,-0.2506,0.0,0.0,0.0,0.0,0.0,0.0,0.0,0.0,0.0,0.0,0.0,0.0,0.0,0.0,0.0,0.0,0.0,0.0,0.0,0.0,0.0,0.0,0.0,0.0,0.0,0.0,0.0,0.0,0.0,0.0,0.0,0.0,0.0,0.0,0.0,0.0,0.0,0.0,0.1147,0.1476,0.0,0.0,0.0,0.0,0.0,0.0,0.0,0.0,0.2463,0.0,0.0,0.0,0.0,0.0,0.0,0.0,0.0,0.0,0.0,0.0,0.0,0.0,0.0,0.0,0.0,0.0,0.0,0.0,0.0,0.0,0.0,0.0,0.0,0.0,0.0,0.0,0.0,0.0,0.0,0.0,0.0,0.0,0.0,0.0,0.0,0.0,0.0,0.0,0.0,0.0,0.0,0.0,0.0,0.0,0.0,0.0,0.0,0.0,0.0,0.0,0.0,0.0,0.0,0.0,0.0,-0.2798,-0.2985,-0.312,-0.319,-0.3192,-0.3192,-0.3194,-0.2783,-0.2547,-0.2478,0.0,0.0,0.0,0.0,0.0,0.0,0.0,0.0,0.0,0.0,0.0,0.0,0.0,0.0,0.0,0.0,0.0,0.0,0.0,0.0,0.0,0.0,0.0,0.0,0.0,0.0,0.0,0.0,0.0,0.0,0.0,0.0,0.0,0.0,0.0,0.0,0.0,0.0,0.0,0.1765,0.1857,0.0,0.0,0.0,0.0,0.0,0.0,0.0,0.0,0.2606,0.0,0.0,0.0,0.0,0.0,0.0,0.0,0.0,0.0,0.0,0.0,0.0,0.0,0.0,0.0,0.0,0.0,0.0,0.0,0.0,0.0,0.0,0.0,0.0,0.0,0.0,0.0,0.0,0.0,0.0,0.0,0.0,0.0,0.0,0.0,0.0,0.0,0.0,0.0,0.0,0.0,0.0,0.0,0.0,0.0,0.0,0.0,0.0,0.0,0.0,0.0,0.0,0.0,0.0,0.0,-0.2954,-0.3095,-0.323,-0.3362,-0.3369,-0.3369,-0.3369,-0.3013,-0.2749,0.0,0.0,0.0,0.0,0.0,0.0,0.0,0.0,0.0,0.0,0.0,0.0,0.0,0.0,0.0,0.0,0.0,0.0,0.0,0.0,0.0,0.0,0.0,0.0,0.0,0.0,0.0,0.0,0.0,0.0,0.0,0.0,0.0,0.0,0.0,0.0,0.0,0.0,0.0,0.0,0.1927,0.1925,0.2077,0.0,0.0,0.0,0.0,0.0,0.0,0.2407,0.249,0.0,0.0,0.0,0.0,0.0,0.0,0.0,0.0,0.0,0.0,0.0,0.0,0.0,0.0,0.0,0.0,0.0,0.0,0.0,0.0,0.0,0.0,0.0,0.0,0.0,0.0,0.0,0.0,0.0,0.0,0.0,0.0,0.0,0.0,0.0,0.0,0.0,0.0,0.0,0.0,0.0,0.0,0.0,0.0,0.0,0.0,0.0,0.0,0.0,0.0,0.0,0.0,0.0,0.0,0.0,-0.3113,-0.3184,-0.3352,-0.3493,-0.3499,-0.3499,-0.3499,-0.323,-0.2937,0.0,0.0,0.0,0.0,0.0,0.0,0.0,0.0,0.0,0.0,0.0,0.0,0.0,0.0,0.0,0.0,0.0,0.0,0.0,0.0,0.0,0.0,0.0,0.0,0.0,0.0,0.0,0.0,0.0,0.0,0.0,0.0,0.0,0.0,0.0,0.0,0.0,0.0,0.0,0.0,0.0,0.1979,0.2161,0.2081,0.0,0.0,0.0,0.0,0.2406,0.2443,0.0,0.0,0.0,0.0,0.0,0.0,0.0,0.0,0.0,0.0,0.0,0.0,0.0,0.0,0.0,0.0,0.0,0.0,0.0,0.0,0.0,0.0,0.0,0.0,0.0,0.0,0.0,0.0,0.0,0.0,0.0,0.0,0.0,0.0,0.0,0.0,0.0,0.0,0.0,0.0,0.0,0.0,0.0,0.0,0.0,0.0,0.0,0.0,0.0,0.0,0.0,0.0,0.0,0.0,0.0,0.0,-0.3091,-0.334,-0.3479,-0.3499,-0.3499,-0.3499,-0.3501,-0.3194,-0.2868,0.0,0.0,0.0,0.0,0.0,0.0,0.0,0.0,0.0,0.0,0.0,0.0,0.0,0.0,0.0,0.0,0.0,0.0,0.0,0.0,0.0,0.0,0.0,0.0,0.0,0.0,0.0,0.0,0.0,0.0,0.0,0.0,0.0,0.0,0.0,0.0,0.0,0.0,0.0,0.0,0.0,0.1977,0.2163,0.2082,0.2004,0.0,0.0,0.2301,0.2618,0.2764,0.0,0.0,0.0,0.0,0.0,0.0,0.0,0.0,0.0,0.0,0.0,0.0,0.0,0.0,0.0,0.0,0.0,0.0,0.0,0.0,0.0,0.0,0.0,0.0,0.0,0.0,0.0,0.0,0.0,0.0,0.0,0.0,0.0,0.0,0.0,0.0,0.0,0.0,0.0,0.0,0.0,0.0,0.0,0.0,0.0,0.0,0.0,0.0,0.0,0.0,0.0,0.0,0.0,0.0,0.0,-0.2999,-0.3166,-0.3434,-0.3597,-0.3684,-0.3688,-0.3688,-0.3648,-0.3289,-0.299,0.0,0.0,0.0,0.0,0.0,0.0,0.0,0.0,0.0,0.0,0.0,0.0,0.0,0.0,0.0,0.0,0.0,0.0,0.0,0.0,0.0,0.0,0.0,0.0,0.0,0.0,0.0,0.0,0.0,0.0,0.0,0.0,0.0,0.0,0.0,0.0,0.0,0.0,0.0,0.0,0.0,0.0,0.2167,0.2138,0.0,0.0,0.0,0.2363,0.2896,0.0,0.0,0.0,0.0,0.0,0.0,0.0,0.0,0.0,0.0,0.0,0.0,0.0,0.0,0.0,0.0,0.0,0.0,0.0,0.0,0.0,0.0,0.0,0.0,0.0,0.0,0.0,0.0,0.0,0.0,0.0,0.0,0.0,0.0,0.0,0.0,0.0,0.0,0.0,0.0,0.0,0.0,0.0,0.0,0.0,0.0,0.0,0.0,0.0,0.0,0.0,0.0,0.0,0.0,0.0,0.0,0.0,-0.3259,-0.355,-0.3732,-0.38,-0.3824,-0.3797,-0.3835,-0.3496,0.0,0.0,0.0,0.0,0.0,0.0,0.0,0.0,0.0,0.0,0.0,0.0,0.0,0.0,0.0,0.0,0.0,0.0,0.0,0.0,0.0,0.0,0.0,0.0,0.0,0.0,0.0,0.0238,0.0,0.0,0.0,0.0,0.0,0.0,0.0,0.0,0.0,0.0,0.0,0.0,0.0,0.0,0.2094,0.2217,0.2272,0.232,0.0,0.0,0.2672,0.32,0.3202,0.325,0.0,0.0,0.0,0.0,0.0,0.0,0.0,0.0,0.0,0.0,0.0,0.0,0.0,0.0,0.0,0.0,0.0,0.0,0.0,0.0,0.0,0.0,0.0,0.0,0.0,0.0,0.0,0.0,0.0,0.0,0.0,0.0,0.0,0.0,0.0,0.0,0.0,0.0,0.0,0.0,0.0,0.0,0.0,0.0,0.0,0.0,0.0,0.0,0.0,0.0,0.0,0.0,0.0,0.0,0.0,-0.3399,-0.3837,-0.3995,-0.3806,-0.3848,-0.3891,-0.3893,-0.3753,-0.3555,0.0,0.0,0.0,0.0,0.0,0.0,0.0,0.0,0.0,0.0,0.0,0.0,0.0,0.0,0.0,0.0,0.0,0.0,0.0,0.0,0.0,0.0,0.0,0.0,0.0,0.0,0.0,0.0,0.0,0.0,0.0,0.0,0.0,0.0,0.0,0.0,0.0,0.0,0.0,0.0,0.0,0.2187,0.2307,0.2469,0.2506,0.0,0.0,0.3304,0.3437,0.3795,0.4048,0.4213,0.0,0.0,0.0,0.0,0.0,0.0,0.0,0.0,0.0,0.0,0.0,0.0,0.0,0.0,0.0,0.0,0.0,0.0,0.0,0.0,0.0,0.0,0.0,0.0,0.0,0.0,0.0,0.0,0.0,0.0,0.0,0.0,0.0,0.0,0.0,0.0,0.0,0.0,0.0,0.0,0.0,0.0,0.0,0.0,0.0,0.0,0.0,0.0,0.0,0.0,0.0,0.0,0.0,-0.3585,-0.3719,-0.4159,-0.4315,-0.417,-0.4209,-0.4146,-0.3983,-0.3878,-0.3698,0.0,0.0,0.0,0.0,0.0,0.0,0.0,0.0,0.0,0.0,0.0,0.0,0.0,0.0,0.0,0.0,0.0,0.0,0.0,0.0,0.0,0.0,0.0,0.0,0.0,0.0,0.0,0.0,0.1613,0.1861,0.1965,0.0,0.0,0.0,0.0,0.0,0.0,0.0,0.0,0.0,0.0,0.2381,0.2802,0.2898,0.0,0.0,0.3465,0.3667,0.4007,0.4073,0.417,0.4399,0.4346,0.0,0.0,0.0,0.0,0.0,0.0,0.0,0.0,0.0,0.0,0.0,0.0,0.0,0.0,0.0,0.0,0.0,0.0,0.0,0.0,0.0,0.0,0.0,0.0,0.0,0.0,0.0,0.0,0.0,0.0,0.0,0.0,0.0,0.0,0.0,0.0,0.0,0.0,0.0,0.0,0.0,0.0,0.0,0.0,0.0,0.0,0.0,0.0,0.0,0.0,0.0,0.0,-0.3863,-0.4077,-0.4511,-0.4622,-0.4406,-0.4433,-0.4324,-0.4075,-0.4038,-0.3924,0.0,0.0,0.0,0.0,0.0,0.0,0.0,0.0,0.0,0.0,0.0,0.0,0.0,0.0,0.0,0.0,0.0,0.0,0.0,0.0,0.0,0.0,0.0,0.0,0.0,0.0,0.0,0.0,0.1941,0.2123,0.2139,0.0,0.0,0.0,0.0,0.0,0.0,0.0,0.0,0.0,0.0,0.2757,0.3064,0.3323,0.3593,0.3913,0.4038,0.4228,0.4457,0.446,0.4464,0.4569,0.0,0.0,0.0,0.0,0.0,0.0,0.0,0.0,0.0,0.0,0.0,0.0,0.0,0.0,0.0,0.0,0.0,0.0,0.0,0.0,0.0,0.0,0.0,0.0,0.0,0.0,0.0,0.0,0.0,0.0,-0.5743,0.0,0.0,0.0,0.0,0.0,0.0,0.0,0.0,0.0,0.0,0.0,0.0,0.0,0.0,0.0,0.0,0.0,0.0,0.0,0.0,0.0,0.0,-0.4214,-0.448,-0.4854,-0.4863,-0.4413,-0.446,-0.4426,-0.4214,-0.4246,-0.4206,-0.3986,0.0,0.0,0.0,0.0,0.0,0.0,0.0,0.0,0.0,0.0,0.0,0.0,0.0,0.0,0.0,0.0,0.0,0.0,0.0,0.0,0.0,0.0,0.0,0.0,0.0,0.0,0.1786,0.2147,0.2336,0.0,0.0,0.0,0.0,0.0,0.0,0.0,0.0,0.0,0.0,0.291,0.3187,0.3058,0.3775,0.4261,0.3964,0.4582,0.4976,0.4768,0.4966,0.5097,0.0,0.0,0.0,0.0,0.0,0.0,0.0,0.0,0.0,0.0,0.0,0.0,0.0,0.0,0.0,0.0,0.0,0.0,0.0,0.0,0.0,0.0,0.0,0.0,0.0,0.0,0.0,-0.5188,-0.5499,0.0,0.0,0.0,0.0,0.0,0.0,0.0,0.0,0.0,0.0,0.0,-0.4683,-0.435,0.0,0.0,0.0,0.0,0.0,0.0,0.0,0.0,0.0,0.0,0.0,0.0,-0.4515,-0.4832,-0.5185,-0.5269,-0.508,-0.4895,-0.4742,-0.4526,-0.4374,-0.4187,-0.3952,0.0,0.0,0.0,0.0,0.0,0.0,0.0,0.0,0.0,0.0,0.0,0.0,0.0,0.0,0.0,0.0,0.0,0.0,0.0,0.0,0.0,0.0,0.0,0.0,0.0,0.2067,0.0,0.0,0.0,0.0,0.0,0.0,0.0,0.0,0.0,0.0,0.0,0.2648,0.2782,0.3168,0.3553,0.3805,0.4202,0.4583,0.0,0.0,0.0,0.0,0.0,0.0,0.0,0.0,0.0,0.0,0.0,0.0,0.0,0.0,0.7681,0.7153,0.7061,0.7209,0.7583,0.0,0.0,0.0,0.0,0.0,0.0,0.0,0.0,0.0,0.0,0.0,0.0,0.0,0.0,-0.558,0.0,-0.5775,0.0,0.0,0.0,0.0,0.0,0.0,0.0,0.0,-0.5503,-0.5305,-0.4966,-0.4711,-0.4543,0.0,-0.4444,-0.4265,0.0,0.0,0.0,0.0,0.0,0.0,0.0,0.0,-0.4795,-0.5151,-0.5432,-0.552,-0.5369,-0.5146,-0.4924,-0.4705,-0.4433,-0.4216,-0.4044,-0.3786,-0.3452,0.0,0.0,0.0,0.0,0.0,0.0,0.0,0.0,0.0,0.0,0.0,0.0,0.0,0.0,0.0,0.0,0.0,0.0,0.0,0.0,0.0,0.0,0.0,0.2385,0.0,0.0,0.0,0.0,0.0,0.0,0.0,0.0,0.0,0.281,0.2865,0.3034,0.33,0.3729,0.4047,0.4205,0.0,0.0,0.0,0.0,0.0,0.0,0.0,0.5883,0.6191,0.6353,0.6715,0.7482,0.8349,0.8978,0.8994,0.0,0.0,0.8453,0.8334,0.8444,0.8704,0.8721,0.8755,0.902,0.8941,0.8973,0.0,0.0,0.0,0.0,0.0,0.0,0.0,0.0,-0.5673,-0.6091,0.0,-0.6017,0.0,0.0,0.0,0.0,0.0,-0.612,0.0,0.0,-0.5567,-0.5419,-0.5485,-0.5248,-0.5026,-0.4841,-0.4772,-0.4832,-0.4977,-0.4558,0.0,0.0,0.0,0.0,0.0,0.0,-0.5041,-0.5483,-0.5621,-0.5599,-0.5416,-0.5146,-0.4924,-0.4705,-0.4433,-0.4295,-0.4293,-0.4037,-0.3835,-0.3705,-0.2849,0.0,0.0,0.0,0.0,0.0,0.0,0.0,0.0,0.0,0.0,0.0,0.0,0.0,0.0,0.0,0.0,0.0,0.0,0.0,0.0,0.2498,0.0,0.0,0.0,0.0,0.0,0.0,0.0,0.0,0.0,0.0,0.3467,0.3333,0.3391,0.3832,0.0,0.0,0.0,0.0,0.5653,0.5516,0.5641,0.581,0.6047,0.6046,0.6199,0.6831,0.0,0.0,0.8746,0.9627,1.0154,1.0071,1.0319,1.0354,0.9585,0.9584,0.9691,0.9667,0.9649,0.9635,0.9653,0.9663,0.9729,-0.4901,0.0,0.0,0.0,0.0,-0.4864,-0.5092,-0.5545,-0.5506,-0.5701,-0.6011,-0.5776,0.0,0.0,0.0,0.0,0.0,0.0,-0.6947,-0.6356,-0.63,-0.6127,-0.5798,-0.5714,-0.561,-0.5459,-0.5425,-0.5364,-0.5262,-0.5219,-0.499,-0.4713,0.0,0.0,0.0,0.0,-0.5328,-0.5499,-0.5626,-0.5599,-0.5416,-0.5146,-0.4788,-0.4433,-0.4344,-0.4297,-0.4297,-0.4231,-0.4079,-0.3838,-0.2759,0.0,0.0,0.0,0.0,0.0,0.0,0.0,0.0,0.0,0.0,0.0,0.0,0.0,0.0,0.0,0.0,0.0,0.0,0.0,0.2436,0.2713,0.2878,0.0,0.0,0.0,0.0,0.0,0.0,0.0,0.0,0.0,0.4522,0.4108,0.3844,0.0,0.0,0.4658,0.4487,0.5027,0.5418,0.5475,0.5851,0.0,0.6276,0.6746,0.7208,0.7499,0.8549,0.9481,0.9965,1.0548,1.0904,1.0843,1.0976,1.0953,1.0754,1.058,1.0613,1.066,1.0518,1.0423,1.0669,1.0527,1.0414,-0.5547,-0.5201,-0.484,-0.4964,-0.5372,-0.5261,-0.5435,-0.5817,-0.5772,-0.5843,-0.6005,-0.5873,-0.6022,-0.6395,-0.6417,0.0,0.0,0.0,-0.7189,-0.6411,-0.6579,-0.6427,-0.6083,-0.6157,-0.6079,-0.5903,-0.5772,-0.5717,-0.5681,-0.5528,-0.5381,-0.5262,0.0,0.0,-0.533,-0.5404,-0.5459,-0.5575,-0.565,-0.5644,-0.5508,-0.5191,-0.4788,-0.4342,-0.4297,-0.4297,-0.4297,-0.4297,-0.4051,-0.3519,-0.2551,-0.1794,0.0,0.0,0.0,0.0,0.0,0.0,0.0,0.0,0.0,0.0,0.0,0.1463,0.1483,0.0,0.0,0.0,0.226,0.2496,0.2974,0.3169,0.0,0.0,0.0,0.0,0.0,0.0,0.0,0.4,0.4194,0.4529,0.5125,0.4855,0.4564,0.4437,0.4454,0.4471,0.434,0.0,0.5039,0.5342,0.5649,0.6114,0.6775,0.7328,0.7955,0.8781,0.9962,1.0856,1.0964,1.1264,1.1439,1.1439,1.1444,1.1444,1.1439,1.134,1.1198,1.1099,1.0948,1.0896,1.1057,1.0934,1.0901,-0.6116,-0.6056,-0.5396,-0.5424,-0.5915,-0.5775,-0.5924,-0.6288,-0.6291,-0.6354,-0.6455,-0.6225,-0.64,-0.6972,-0.7482,0.0,-0.6909,-0.7235,-0.7032,-0.6354,-0.6523,-0.6517,-0.6362,-0.6516,-0.6509,-0.634,-0.5963,-0.5897,-0.6104,-0.5678,-0.5555,-0.5725,-0.5621,-0.5564,-0.5521,-0.5524,-0.5578,-0.5686,-0.5688,-0.5688,-0.5688,-0.5235,-0.4788,-0.4344,-0.4297,-0.4297,-0.4297,-0.4208,-0.3762,-0.2955,-0.2285,-0.1507,-0.0589,0.0,0.0,0.0,0.0,0.0,0.0,0.0,0.0,0.0,0.0,0.0,0.0,0.0,0.0,0.0,0.281,0.0,0.3541,0.3773,0.0,0.0,0.0,0.431,0.3981,0.4166,0.4351,0.4399,0.0,0.0,0.5377,0.5482,0.5317,0.5027,0.4683,0.4412,0.4093,0.4397,0.4702,0.5267,0.5315,0.5917,0.7343,0.794,0.8823,1.0337,1.1304,1.1733,1.1775,1.1784,1.1808,1.1789,1.1813,1.1803,1.1813,1.1779,1.1642,1.1104,1.1113,1.1165,1.1066,1.1118,1.1217,-0.6352,-0.6279,-0.6078,-0.601,-0.6045,-0.602,-0.6059,-0.6136,-0.6183,-0.6153,-0.6178,-0.6133,-0.6302,-0.6652,-0.7048,-0.7193,-0.7044,-0.718,-0.7122,-0.6852,-0.6747,-0.6753,-0.6818,-0.6795,-0.6744,-0.6656,-0.6577,-0.6461,-0.634,-0.6236,-0.6195,-0.6207,-0.6222,-0.5992,-0.5689,-0.5863,-0.5877,-0.5688,-0.5688,-0.5644,-0.5463,-0.5015,-0.4705,-0.4614,-0.4389,-0.4297,-0.4297,-0.3583,-0.3136,-0.2867,-0.1382,-0.0396,-0.0129,0.0614,0.0,0.0,0.0,0.0,0.0,0.0,0.0,0.0,0.0,0.2181,0.2236,0.0,0.2683,0.0,0.3168,0.3499,0.359,0.4118,0.0,0.0,0.4628,0.4752,0.4251,0.4842,0.5228,0.5148,0.5394,0.561,0.5782,0.549,0.5295,0.5417,0.5356,0.5304,0.5353,0.559,0.5845,0.6063,0.6235,0.6818,0.7846,0.9124,1.0319,1.1342,1.1667,1.1817,1.1817,1.1817,1.1817,1.1817,1.1817,1.1817,1.1831,1.1817,1.1784,1.1624,1.152,1.1477,1.1567,1.1515,1.1482,-0.6387,-0.6381,-0.6369,-0.6304,-0.6233,-0.613,-0.6116,-0.6168,-0.6168,-0.6168,-0.6216,-0.6308,-0.648,-0.6683,-0.6997,-0.7076,-0.6984,-0.7006,-0.6874,-0.6706,-0.6678,-0.6685,-0.6691,-0.6837,-0.6857,-0.6795,-0.6792,-0.6748,-0.6564,-0.6473,-0.6428,-0.6428,-0.652,-0.639,-0.6038,-0.6171,-0.6127,-0.5863,-0.5774,-0.5599,-0.5416,-0.5013,-0.4792,-0.4705,-0.4433,-0.4257,-0.4125,-0.3406,-0.2778,-0.2241,-0.0941,0.0045,0.0573,0.1195,0.161,0.0,0.0,0.0,0.0,0.0,0.0,0.0,0.0,0.0,0.0,0.0,0.2867,0.2955,0.3428,0.3778,0.3895,0.4526,0.4791,0.4469,0.5041,0.522,0.457,0.5124,0.5595,0.5509,0.5662,0.5867,0.6163,0.5974,0.5882,0.6077,0.588,0.5679,0.5435,0.5421,0.5472,0.5785,0.6162,0.7132,0.8874,1.0217,1.1313,1.1919,1.2091,1.2043,1.2096,1.2038,1.2043,1.2043,1.2043,1.2038,1.2096,1.2096,1.2038,1.2029,1.2006,1.1907,1.1831,1.1732,1.169,-0.6422,-0.6411,-0.6408,-0.64,-0.6371,-0.6217,-0.6192,-0.6339,-0.6342,-0.6339,-0.6339,-0.658,-0.6738,-0.6795,-0.7042,-0.7042,-0.6795,-0.6795,-0.6586,-0.6342,-0.6466,-0.6485,-0.6371,-0.6752,-0.6898,-0.6824,-0.6805,-0.6792,-0.684,-0.6612,-0.6476,-0.652,-0.67,-0.67,-0.652,-0.6476,-0.6387,-0.613,-0.5866,-0.5644,-0.5419,-0.5146,-0.4924,-0.4748,-0.4433,-0.4166,-0.3901,-0.3361,-0.2555,-0.148,-0.0628,0.0269,0.135,0.1721,0.1949,0.0,0.2211,0.0,0.0,0.0,0.0,0.0,0.0,0.0,0.0,0.2747,0.2963,0.3138,0.3583,0.3989,0.4316,0.4842,0.5083,0.4875,0.5427,0.555,0.4865,0.5255,0.5626,0.5626,0.5725,0.5969,0.6519,0.6643,0.6687,0.6558,0.6326,0.5886,0.5243,0.4816,0.4759,0.5243,0.604,0.7745,0.9831,1.1104,1.1858,1.2231,1.2354,1.2382,1.2358,1.2363,1.2372,1.2368,1.2354,1.2363,1.2382,1.2372,1.2372,1.2354,1.234,1.2231,1.2016,1.1926,1.1898,-0.6676,-0.6584,-0.6584,-0.6476,-0.6384,-0.6341,-0.6382,-0.6354,-0.6354,-0.6354,-0.6404,-0.6655,-0.6769,-0.6795,-0.6842,-0.6842,-0.6795,-0.6589,-0.6426,-0.6401,-0.6361,-0.6438,-0.652,-0.6464,-0.6584,-0.6966,-0.685,-0.6881,-0.7054,-0.6962,-0.6966,-0.6966,-0.701,-0.701,-0.6962,0.0,0.0,0.0,-0.6038,-0.5908,-0.5644,-0.5235,-0.4966,-0.4921,-0.452,0.0,-0.3857,-0.2911,-0.2105,-0.139,0.0,0.0,0.0,0.0,0.0,0.0,0.0,0.0,0.0,0.0,0.0,0.0,0.2703,0.273,0.2734,0.2863,0.2918,0.2963,0.3408,0.3881,0.4404,0.4883,0.5206,0.5249,0.5484,0.5406,0.4864,0.5415,0.5841,0.5841,0.626,0.6634,0.6708,0.6766,0.6566,0.6283,0.6511,0.6557,0.5948,0.5368,0.546,0.6623,0.805,0.9439,1.0143,1.123,1.1941,1.2055,1.2278,1.2382,1.2382,1.2382,1.2382,1.2382,1.2382,1.2382,1.2382,1.2382,1.2396,1.2387,1.2391,1.2358,1.2283,1.2269,1.2269,-0.6766,0.0,-0.6643,-0.6581,0.0,-0.6411,-0.6387,-0.6387,-0.6387,-0.6387,-0.6387,-0.6539,-0.6592,-0.6592,-0.6592,-0.6592,-0.6592,-0.6489,-0.6387,-0.6434,-0.6377,-0.6369,-0.6452,-0.6364,-0.6516,-0.6819,-0.6815,-0.6877,-0.7095,-0.7095,-0.7095,-0.7095,-0.7095,-0.7095,-0.7095,-0.7095,-0.683,-0.6257,-0.6124,-0.5952,-0.5688,-0.5371,-0.5146,-0.501,0.0,0.0,0.0,0.0,0.0,0.0,0.0,0.0,0.0,0.0,0.0,0.2814,0.293,0.298,0.292,0.2914,0.2889,0.2788,0.2853,0.2871,0.2827,0.2856,0.292,0.292,0.335,0.3765,0.4116,0.4625,0.4909,0.4761,0.509,0.507,0.4667,0.5049,0.5583,0.5847,0.6165,0.6449,0.6832,0.6893,0.681,0.6588,0.6587,0.6571,0.6244,0.5694,0.5766,0.6972,0.8644,1.008,1.0798,1.1455,1.2055,1.2169,1.2327,1.2382,1.2382,1.2382,1.2382,1.2382,1.2382,1.2382,1.2391,1.2521,1.2602,1.2611,1.2682,1.2743,1.2743,1.2673,1.2635,-0.6853,-0.6825,-0.6728,-0.6657,-0.6611,-0.646,-0.6406,-0.6387,0.0,0.0,0.0,-0.6387,-0.6387,-0.6387,-0.6387,-0.6387,-0.6387,-0.6387,-0.6387,-0.6387,-0.6387,-0.6388,-0.6293,-0.6362,-0.6473,-0.6624,-0.6715,-0.6862,-0.7098,-0.7095,-0.7095,-0.7095,-0.7095,-0.7095,-0.7095,-0.7095,-0.6874,-0.6432,-0.6257,-0.5994,-0.5735,-0.5508,-0.528,-0.501,-0.4792,-0.4438,-0.3901,-0.3496,-0.2689,-0.148,-0.072,0.0318,0.171,0.2143,0.2545,0.3012,0.3134,0.3109,0.3029,0.303,0.3003,0.288,0.292,0.292,0.292,0.292,0.2879,0.2933,0.3299,0.3645,0.3835,0.425,0.4472,0.4207,0.4603,0.4704,0.4335,0.4719,0.5324,0.5741,0.602,0.6363,0.6945,0.7016,0.7046,0.6961,0.6697,0.6374,0.6318,0.6197,0.6415,0.7362,0.8968,1.03,1.1236,1.1787,1.2055,1.2219,1.2365,1.2443,1.2448,1.2471,1.2495,1.2532,1.2495,1.2564,1.2569,1.2706,1.287,1.2824,1.3003,1.3079,1.3102,1.3051,1.2923,-0.7046,-0.6959,-0.6942,-0.6815,-0.6619,-0.66,-0.6484,-0.6389,-0.6387,-0.6387,-0.6387,-0.6387,-0.6387,-0.6387,-0.6387,-0.6387,-0.6387,-0.6387,-0.6387,-0.6387,-0.6387,-0.6379,-0.6407,-0.6344,-0.6466,-0.6763,-0.6673,-0.6773,-0.7064,-0.7098,-0.7095,-0.7095,-0.7095,-0.7095,-0.7095,-0.7095,-0.6874,-0.6428,-0.6387,-0.6169,-0.5688,-0.5508,-0.5282,-0.501,-0.4792,-0.4438,-0.3901,-0.3676,-0.2869,-0.1481,-0.0501,0.0506,0.1527,0.2436,0.2924,0.2887,0.3124,0.3211,0.3099,0.3085,0.3044,0.2939,0.292,0.292,0.292,0.292,0.294,0.2986,0.3098,0.3358,0.3871,0.4024,0.4305,0.4703,0.4581,0.4358,0.4303,0.4845,0.5322,0.5486,0.6385,0.6932,0.7003,0.7066,0.6903,0.6591,0.6596,0.6821,0.6538,0.7365,0.8026,0.852,1.0014,1.1236,1.159,1.1846,1.2037,1.2055,1.2446,1.272,1.272,1.2833,1.2923,1.2961,1.2932,1.2942,1.2956,1.3055,1.3084,1.3084,1.3084,1.315,1.3306,1.331,1.3307,-0.718,-0.7128,-0.701,-0.6921,-0.6806,-0.6676,-0.65,-0.6389,-0.6387,-0.6387,-0.6387,-0.6387,-0.6387,-0.6387,-0.6387,-0.6387,-0.6387,-0.6387,-0.6387,-0.6387,-0.6387,-0.6387,-0.6376,-0.632,-0.6483,-0.6894,-0.6767,-0.6906,-0.7233,-0.7265,-0.7179,-0.7102,-0.7095,-0.7095,-0.7095,-0.7095,-0.6874,-0.6428,-0.6428,-0.6169,-0.5733,-0.5599,-0.5371,-0.501,-0.4924,-0.4612,-0.4123,-0.4032,-0.3179,-0.1478,-0.0858,0.0183,0.1833,0.2561,0.297,0.3083,0.327,0.3305,0.3157,0.308,0.2993,0.2884,0.292,0.2933,0.2964,0.2967,0.2976,0.3007,0.3044,0.3251,0.3574,0.3699,0.3887,0.4205,0.4027,0.4046,0.4379,0.4677,0.5037,0.5371,0.5871,0.6207,0.6207,0.6207,0.6151,0.5871,0.6096,0.6096,0.5931,0.7368,0.8555,0.8602,0.9643,1.0766,1.1564,1.2102,1.2259,1.2329,1.2688,1.2918,1.2989,1.3022,1.306,1.3065,1.3069,1.3065,1.3074,1.3226,1.3225,1.3254,1.3343,1.3447,1.3532,1.3551,1.3514,-0.721,-0.7202,-0.7059,-0.6994,-0.6926,-0.6711,-0.65,-0.6392,-0.6387,-0.6387,-0.6387,-0.6387,-0.6387,-0.6387,-0.6387,-0.6387,-0.6387,-0.6387,-0.6387,-0.6387,-0.6387,-0.6387,-0.6379,-0.6344,-0.654,-0.6943,-0.6888,-0.7054,-0.7388,-0.7436,-0.7292,-0.7112,-0.7095,-0.7095,-0.7095,-0.7095,-0.6874,-0.6428,-0.6428,-0.6166,-0.5733,-0.5688,-0.5463,-0.5055,-0.501,-0.4788,-0.4344,-0.4297,-0.3535,-0.1879,-0.1303,-0.0183,0.1702,0.248,0.2952,0.3192,0.333,0.3372,0.3237,0.3075,0.2994,0.288,0.292,0.2943,0.2997,0.3018,0.3039,0.303,0.3146,0.3209,0.3353,0.3437,0.3521,0.3578,0.3587,0.3807,0.4199,0.4424,0.4646,0.5093,0.5318,0.5425,0.5425,0.5425,0.5425,0.5481,0.5425,0.5375,0.5628,0.6876,0.7728,0.8676,0.9451,1.0597,1.1703,1.22,1.2399,1.2492,1.2701,1.2839,1.2915,1.2938,1.2975,1.3003,1.3052,1.3124,1.3172,1.3339,1.3443,1.3466,1.3551,1.3665,1.3665,1.367,1.3679,-0.721,-0.721,-0.7193,-0.7013,-0.6815,-0.6679,-0.6554,-0.6395,-0.6387,-0.6387,-0.6387,-0.6387,-0.6387,-0.6387,-0.6387,-0.6387,-0.6387,-0.6387,-0.6387,-0.6387,-0.6387,-0.6387,-0.6387,-0.6373,-0.6616,-0.6964,-0.6985,-0.7197,-0.7577,-0.7484,-0.7292,-0.7112,-0.7095,-0.7098,-0.7098,-0.7102,-0.6877,-0.6432,-0.6428,-0.6169,-0.5733,-0.5688,-0.5463,-0.501,-0.501,-0.4788,-0.4342,-0.4297,-0.3851,-0.2781,-0.1639,-0.0507,0.0605,0.2051,0.2924,0.2996,0.3291,0.3414,0.3244,0.316,0.304,0.2935,0.292,0.2944,0.3004,0.3057,0.3137,0.318,0.3221,0.3308,0.3455,0.3493,0.3526,0.3579,0.3587,0.3643,0.3811,0.4145,0.4536,0.4592,0.5037,0.5369,0.5258,0.5258,0.5316,0.5204,0.5158,0.5186,0.5299,0.54,0.6242,0.8363,1.0321,1.154,1.2012,1.2069,1.2192,1.2188,1.236,1.2507,1.2614,1.2712,1.2718,1.2849,1.2976,1.3145,1.3223,1.3412,1.3641,1.3563,1.3596,1.3688,1.3688,1.3688,1.3688,-0.721,-0.721,-0.721,-0.7073,-0.6809,-0.6747,-0.6616,-0.6392,-0.6387,-0.6387,-0.6387,-0.6387,-0.6387,-0.6387,-0.6387,-0.6387,-0.6387,-0.6387,-0.6387,-0.6387,-0.6387,-0.6387,-0.6387,-0.6387,-0.6661,-0.7112,-0.7109,-0.7332,-0.761,-0.7485,-0.7381,-0.7272,-0.7146,-0.7183,-0.7268,-0.7143,-0.6911,-0.6667,-0.6457,-0.615,-0.5825,-0.5631,-0.5371,-0.501,-0.4879,-0.4656,-0.4344,-0.4297,-0.3851,-0.2913,-0.1715,-0.0507,0.0716,0.2128,0.3022,0.3219,0.34,0.3418,0.3241,0.315,0.3037,0.2886,0.292,0.2957,0.3051,0.3068,0.3168,0.3307,0.3338,0.3386,0.3484,0.3527,0.3561,0.3583,0.3587,0.3755,0.4089,0.4367,0.448,0.448,0.4702,0.4702,0.4423,0.4311,0.4311,0.4319,0.44,0.4447,0.448,0.4897,0.5791,0.6894,0.8491,1.0229,1.1473,1.2068,1.2107,1.2191,1.2366,1.2546,1.2554,1.2589,1.2715,1.2655,1.2779,1.2904,1.2886,1.3144,1.3384,1.3449,1.3629,1.3688,1.3688,1.3688,1.3688,-0.721,-0.721,-0.721,-0.704,-0.6853,-0.6815,-0.6681,-0.6494,-0.64,-0.6387,-0.6387,-0.6387,-0.6387,-0.6387,-0.6387,-0.6387,-0.6387,-0.6387,-0.6387,-0.6387,-0.6387,-0.6387,-0.6387,-0.6387,-0.6686,-0.7135,-0.7182,-0.7415,-0.7756,-0.7611,-0.7475,-0.7421,-0.7228,-0.7183,-0.7283,-0.7066,-0.6839,-0.6676,-0.6415,-0.6173,-0.5896,-0.5546,-0.5223,-0.5015,-0.4792,-0.4569,-0.4297,-0.4297,-0.3985,-0.3314,-0.2192,-0.092,0.0536,0.1747,0.2746,0.344,0.3522,0.3451,0.3239,0.3238,0.3089,0.2974,0.2947,0.2981,0.3063,0.3129,0.3237,0.3383,0.3425,0.3458,0.3516,0.3561,0.3586,0.3587,0.3587,0.3811,0.4145,0.4257,0.4201,0.4257,0.4255,0.4089,0.3754,0.3645,0.3703,0.373,0.3708,0.37,0.3844,0.4629,0.5356,0.5744,0.6773,0.8355,1.0755,1.1335,1.1619,1.2118,1.229,1.235,1.2483,1.2423,1.2423,1.2307,1.2483,1.2599,1.2599,1.284,1.3084,1.3084,1.3264,1.3449,1.3509,1.3569,1.3629,-0.721,-0.721,-0.721,-0.7084,-0.697,-0.6858,-0.673,-0.6592,-0.6441,-0.6389,-0.6389,-0.6387,-0.6387,-0.6387,-0.6387,-0.6387,-0.6387,-0.6387,-0.6437,-0.6437,-0.6437,-0.6387,-0.6387,-0.6437,-0.6686,-0.7188,-0.7235,-0.7418,-0.7824,-0.7794,-0.7723,-0.7594,-0.7313,-0.7182,-0.7155,-0.6917,-0.6694,-0.6478,-0.6414,-0.6205,-0.5874,-0.544,-0.5153,-0.4978,-0.4792,-0.4569,-0.4344,-0.4297,-0.4253,-0.4208,-0.3269,-0.2025,-0.0438,0.0699,0.2039,0.3325,0.358,0.3529,0.3418,0.3387,0.3309,0.3106,0.3059,0.3078,0.3094,0.3144,0.3231,0.3402,0.3465,0.3518,0.3565,0.358,0.3587,0.3587,0.3587,0.3643,0.3643,0.3755,0.3643,0.3699,0.3699,0.3699,0.3587,0.3587,0.3615,0.3651,0.3676,0.3718,0.3872,0.4033,0.4549,0.5382,0.602,0.6877,0.9243,1.0276,1.0717,1.1277,1.1643,1.1897,1.1837,1.1837,1.1893,1.1953,1.2126,1.2238,1.2298,1.2419,1.2659,1.2779,1.284,1.296,1.3204,1.3204,1.3324,-0.721,-0.721,-0.721,-0.7144,-0.6986,-0.6937,-0.6804,-0.6619,-0.6573,-0.6457,-0.6395,-0.6387,-0.6387,-0.6387,-0.6387,-0.6387,-0.6387,-0.6387,-0.6489,-0.6642,-0.6642,-0.6739,-0.6886,-0.6886,-0.7092,-0.7391,-0.7441,-0.7614,-0.7851,-0.767,-0.7501,-0.7423,-0.7026,-0.6882,-0.6971,-0.6738,-0.6581,-0.6629,-0.6435,-0.614,-0.5784,-0.5388,-0.5074,-0.4799,-0.4567,-0.4389,-0.4297,-0.4297,-0.4297,-0.4297,-0.3403,-0.2131,-0.0446,0.1573,0.2672,0.2735,0.325,0.3536,0.3433,0.3413,0.3352,0.3167,0.3112,0.313,0.3241,0.3279,0.3338,0.3444,0.3519,0.3565,0.3579,0.3587,0.3587,0.3587,0.3587,0.3587,0.3587,0.3587,0.3587,0.3587,0.3587,0.3587,0.3587,0.3587,0.3612,0.3668,0.371,0.3824,0.3899,0.389,0.4102,0.4492,0.4685,0.5235,0.694,0.8888,1.0051,1.0543,1.0974,1.153,1.1716,1.1776,1.1833,1.1833,1.1949,1.1949,1.2066,1.2182,1.2423,1.2603,1.2599,1.2599,1.284,1.296,1.314,-0.721,-0.721,-0.721,-0.7166,-0.7037,-0.7002,-0.6869,-0.6681,-0.6638,-0.65,-0.6403,-0.6387,-0.6437,-0.6539,-0.6539,-0.6589,-0.6637,-0.6587,-0.6689,-0.6892,-0.6942,-0.7039,-0.7188,-0.7185,-0.7338,-0.7593,-0.7693,-0.7793,-0.7832,-0.7596,-0.7452,-0.7332,-0.6867,-0.6777,-0.6872,-0.6574,-0.648,-0.66,-0.641,-0.6101,-0.5716,-0.5396,-0.5062,-0.4725,-0.4433,-0.4297,-0.4297,-0.4297,-0.433,-0.4284,-0.3793,-0.2699,-0.0918,0.1627,0.2857,0.2409,0.3081,0.3555,0.3485,0.3469,0.3427,0.3328,0.3282,0.3234,0.3274,0.3354,0.3409,0.347,0.3544,0.3587,0.3587,0.3587,0.3587,0.3587,0.3587,0.3587,0.3587,0.3587,0.3587,0.3587,0.3587,0.3587,0.3585,0.3568,0.3587,0.364,0.3687,0.3795,0.3876,0.3862,0.3853,0.3876,0.3967,0.4339,0.538,0.6967,0.8441,0.9118,1.0297,1.0974,1.147,1.1591,1.1776,1.1776,1.1837,1.1837,1.1893,1.201,1.2186,1.2367,1.2367,1.2307,1.2543,1.2844,1.2964,-0.721,-0.721,-0.721,-0.7204,-0.7182,-0.704,-0.6921,-0.6785,-0.6676,-0.6564,-0.6398,-0.6387,-0.6539,-0.6745,-0.6745,-0.6892,-0.7092,-0.6942,-0.6992,-0.7188,-0.7185,-0.7238,-0.7288,-0.7288,-0.7391,-0.7643,-0.7892,-0.7842,-0.764,-0.758,-0.7422,-0.7179,-0.6892,-0.672,-0.6786,-0.6498,-0.641,-0.6381,-0.6373,-0.6116,-0.5731,-0.5457,-0.5125,-0.4685,-0.444,-0.4314,-0.4314,-0.4316,-0.4354,-0.4495,-0.4474,-0.3752,-0.1839,0.0768,0.2184,0.224,0.3025,0.353,0.3582,0.3574,0.3541,0.3486,0.3482,0.3427,0.3383,0.3429,0.3469,0.3465,0.3526,0.3587,0.3587,0.3587,0.3587,0.3587,0.3587,0.3587,0.3587,0.3587,0.3587,0.3587,0.3587,0.3587,0.3575,0.3541,0.3537,0.3583,0.36,0.3642,0.3801,0.3778,0.3826,0.3884,0.3869,0.4083,0.4477,0.4997,0.6285,0.7577,0.9121,1.0236,1.0668,1.091,1.1651,1.1837,1.1837,1.1837,1.1837,1.1893,1.1893,1.2014,1.1953,1.2014,1.2191,1.2487,1.2784,-0.721,-0.721,-0.721,-0.721,-0.7207,-0.7172,-0.6991,-0.6806,-0.6757,-0.663,-0.6464,-0.6387,-0.6539,-0.6745,-0.6795,-0.7045,-0.7447,-0.7394,-0.7394,-0.7494,-0.749,-0.759,-0.769,-0.7736,-0.7789,-0.7892,-0.7942,-0.7842,-0.7593,-0.7441,-0.7188,-0.6927,-0.6613,-0.6517,-0.6537,-0.6366,-0.6254,-0.6132,-0.6092,-0.5831,-0.5296,-0.5183,-0.49,-0.4465,-0.4359,-0.442,-0.453,-0.4487,-0.4354,-0.4082,-0.4083,-0.3547,-0.2015,0.0549,0.1847,0.1569,0.2802,0.3587,0.3587,0.3587,0.3579,0.3555,0.3522,0.3508,0.35,0.3495,0.351,0.3522,0.3568,0.3587,0.3587,0.3587,0.3587,0.3587,0.3587,0.3587,0.3587,0.3587,0.3587,0.3587,0.3587,0.3587,0.3576,0.3534,0.3521,0.3561,0.3552,0.3575,0.367,0.3704,0.3791,0.38,0.3775,0.3785,0.4134,0.4349,0.4962,0.6263,0.7754,0.9191,0.9744,1.0482,1.1281,1.1837,1.1837,1.1837,1.1837,1.1837,1.1837,1.1837,1.1837,1.1893,1.1953,1.2186,1.2483,-0.721,-0.721,-0.721,-0.721,-0.721,-0.721,-0.71,-0.6874,-0.682,-0.669,-0.6524,-0.6456,-0.6587,-0.6892,-0.6942,-0.7241,-0.7743,-0.7746,-0.7746,-0.7746,-0.7746,-0.7846,-0.7988,-0.7988,-0.7988,-0.7988,-0.7988,-0.7789,-0.7441,-0.7288,-0.7012,-0.6737,-0.6534,-0.6437,-0.6452,-0.6388,-0.6244,-0.6108,-0.5954,-0.5665,-0.518,-0.5067,-0.4812,-0.4441,-0.4469,-0.4561,-0.4624,-0.4518,-0.4298,-0.3954,-0.3678,-0.3134,-0.2336,-0.0166,0.1121,0.1289,0.2185,0.3194,0.3531,0.3587,0.3587,0.3579,0.3552,0.3533,0.355,0.3526,0.3546,0.3549,0.3574,0.3587,0.3587,0.3587,0.3587,0.3587,0.3587,0.3587,0.3587,0.3587,0.3587,0.3587,0.3587,0.3587,0.3575,0.3537,0.3503,0.3518,0.351,0.351,0.3595,0.363,0.368,0.3714,0.3709,0.3744,0.3808,0.3891,0.3901,0.5015,0.633,0.7765,0.8708,0.9869,1.0789,1.1587,1.1837,1.1837,1.1837,1.1837,1.1837,1.1837,1.1837,1.1837,1.1893,1.2062,1.2359,-0.7218,-0.721,-0.721,-0.721,-0.721,-0.721,-0.7139,-0.697,-0.6855,-0.673,-0.6605,-0.6433,-0.6686,-0.7086,-0.7135,-0.7441,-0.7942,-0.7992,-0.7939,-0.7939,-0.7939,-0.7988,-0.7988,-0.7988,-0.7988,-0.7988,-0.7988,-0.7736,-0.7288,-0.7263,-0.7009,-0.6643,-0.6608,-0.6576,-0.654,-0.643,-0.6305,-0.6078,-0.5857,-0.5595,-0.5192,-0.5113,-0.4888,-0.4489,-0.4632,-0.4732,-0.4734,-0.4403,-0.4151,-0.3967,-0.3125,-0.2613,-0.2352,-0.1177,0.0112,0.0841,0.1737,0.2689,0.3362,0.3587,0.3587,0.3586,0.3582,0.3565,0.353,0.3555,0.356,0.3529,0.356,0.3587,0.3587,0.3587,0.3585,0.358,0.3582,0.3586,0.3587,0.3587,0.3587,0.3587,0.3587,0.3587,0.3585,0.3534,0.3481,0.3444,0.3456,0.3473,0.3503,0.3552,0.3631,0.3653,0.3653,0.3689,0.3748,0.3764,0.3783,0.4277,0.5335,0.6326,0.7892,0.9179,1.0604,1.1341,1.1837,1.1837,1.1837,1.1776,1.1837,1.1837,1.1837,1.1837,1.1893,1.2005,1.2122,-0.746,-0.7213,-0.721,-0.721,-0.721,-0.721,-0.7147,-0.6975,-0.6858,-0.6741,-0.6613,-0.6438,-0.6692,-0.7188,-0.7235,-0.7487,-0.7889,-0.7988,-0.7988,-0.7988,-0.7988,-0.7988,-0.7988,-0.7988,-0.7988,-0.7988,-0.7988,-0.7736,-0.7247,-0.7282,-0.7097,-0.6622,-0.6714,-0.665,-0.6456,-0.6431,-0.6107,-0.5767,-0.5602,-0.5396,-0.5107,-0.5069,-0.4947,-0.4757,-0.4843,-0.4932,-0.4904,-0.417,-0.3541,-0.3046,-0.2398,-0.2019,-0.1963,-0.1065,-0.0056,0.0841,0.1681,0.2576,0.3362,0.3587,0.3587,0.3587,0.3587,0.3582,0.3568,0.3576,0.3579,0.3565,0.358,0.3587,0.3587,0.3587,0.357,0.3534,0.3563,0.3586,0.3583,0.3587,0.3587,0.3587,0.3587,0.3587,0.3575,0.3538,0.3478,0.3428,0.3405,0.3399,0.3443,0.347,0.3544,0.3594,0.3613,0.3643,0.3732,0.375,0.3798,0.3891,0.4466,0.5013,0.674,0.8533,1.0087,1.1405,1.1712,1.1837,1.1776,1.1776,1.1776,1.1837,1.1837,1.1837,1.1837,1.1893,1.1889,-0.7556,-0.7379,-0.7268,-0.721,-0.721,-0.721,-0.7172,-0.7098,-0.6931,-0.6812,-0.669,-0.6567,-0.6737,-0.7188,-0.7185,-0.7487,-0.7939,-0.7988,-0.7988,-0.7988,-0.7988,-0.7988,-0.7988,-0.7988,-0.7988,-0.7988,-0.7992,-0.769,-0.731,-0.7325,-0.7104,-0.6818,-0.682,-0.6714,-0.6457,-0.6342,-0.6119,-0.5603,-0.5433,-0.5296,-0.509,-0.5047,-0.4977,-0.4939,-0.5014,-0.5022,-0.4787,-0.405,-0.3419,-0.2971,-0.2299,-0.1795,-0.1739,-0.1346,-0.0392,0.0785,0.1401,0.2185,0.3307,0.3587,0.3587,0.3587,0.3587,0.3587,0.3586,0.3587,0.3587,0.3586,0.3587,0.3587,0.3587,0.3587,0.3571,0.3552,0.3567,0.3576,0.3553,0.3572,0.3585,0.3587,0.3587,0.3587,0.3587,0.3553,0.3496,0.344,0.3418,0.3413,0.342,0.3433,0.347,0.3546,0.3587,0.3615,0.364,0.3659,0.3691,0.384,0.3977,0.44,0.6248,0.8107,0.9408,1.0728,1.1345,1.1651,1.1405,1.1405,1.1776,1.1837,1.1837,1.1837,1.1837,1.1837,1.1837,-0.7621,-0.7551,-0.7268,-0.721,-0.721,-0.721,-0.7204,-0.7185,-0.7021,-0.6907,-0.6782,-0.6671,-0.6847,-0.7188,-0.7288,-0.7537,-0.7988,-0.7988,-0.7988,-0.7988,-0.7988,-0.7988,-0.7988,-0.7988,-0.7988,-0.7995,-0.8002,-0.7672,-0.7374,-0.7373,-0.7188,-0.6931,-0.6942,-0.6779,-0.6523,-0.6323,-0.6045,-0.5595,-0.5366,-0.5255,-0.5235,-0.5184,-0.512,-0.5086,-0.5004,-0.4886,-0.4445,-0.3866,-0.3421,-0.3475,-0.241,-0.1851,-0.1795,-0.1795,-0.0953,0.0336,0.0953,0.1738,0.3083,0.3419,0.3587,0.3587,0.3587,0.3587,0.3587,0.3587,0.3587,0.3587,0.3587,0.3582,0.3568,0.3574,0.3559,0.3545,0.3559,0.3548,0.3523,0.355,0.3587,0.3587,0.3587,0.3587,0.3586,0.3574,0.3536,0.3432,0.342,0.3421,0.3429,0.3452,0.35,0.3568,0.3587,0.3587,0.361,0.3632,0.3669,0.3786,0.3884,0.4469,0.6343,0.7961,0.8882,0.9869,1.0793,1.0853,1.0358,1.0664,1.1526,1.1837,1.1837,1.1837,1.1837,1.1837,1.1837,-0.7809,-0.7268,-0.7213,-0.721,-0.721,-0.721,-0.7213,-0.7202,-0.7037,-0.6926,-0.6848,-0.6886,-0.7014,-0.7185,-0.7441,-0.7693,-0.7988,-0.7988,-0.7988,-0.7988,-0.7988,-0.7988,-0.7988,-0.7988,-0.7988,-0.7962,-0.7904,-0.7642,-0.744,-0.734,-0.7231,-0.6999,-0.6983,-0.6895,-0.6407,-0.6306,-0.6044,-0.5518,-0.5349,-0.5345,-0.5345,-0.5324,-0.5294,-0.5221,-0.4875,-0.4623,-0.4306,-0.3475,-0.2918,-0.2693,-0.2244,-0.1795,-0.1795,-0.1795,-0.1177,-0.0224,0.0617,0.1401,0.2409,0.3194,0.3587,0.3587,0.3587,0.3587,0.3587,0.3587,0.3587,0.3587,0.3586,0.3568,0.3531,0.3518,0.3507,0.3492,0.3504,0.3522,0.3511,0.355,0.3583,0.3587,0.3587,0.3587,0.3583,0.3541,0.3493,0.3431,0.3416,0.3422,0.3444,0.3467,0.3515,0.3572,0.3587,0.3589,0.3604,0.3636,0.3688,0.3733,0.3877,0.4063,0.5937,0.7492,0.8343,0.9383,1.0425,1.0179,0.9748,1.0789,1.1837,1.1837,1.1837,1.1837,1.1837,1.1837,1.1833,-0.807,-0.755,-0.7437,-0.7293,-0.7244,-0.7236,-0.7209,-0.7207,-0.715,-0.6964,-0.6867,-0.6991,-0.7118,-0.7244,-0.749,-0.7743,-0.7942,-0.7988,-0.7988,-0.7988,-0.7988,-0.7988,-0.7988,-0.7988,-0.7992,-0.7962,-0.788,-0.7638,-0.7461,-0.7378,-0.724,-0.6994,-0.699,-0.6702,-0.6328,-0.6161,-0.5826,-0.5489,-0.5382,-0.5382,-0.5382,-0.5382,-0.5212,-0.4987,-0.465,-0.4424,-0.4035,-0.3197,-0.275,-0.2525,-0.2132,-0.1795,-0.1795,-0.1795,-0.1346,-0.0448,0.0392,0.1289,0.2185,0.3025,0.3587,0.3587,0.3587,0.3587,0.3587,0.3587,0.3587,0.3587,0.3582,0.3563,0.3508,0.3531,0.3506,0.3478,0.3503,0.3537,0.3545,0.3568,0.3587,0.3587,0.3587,0.3568,0.3544,0.351,0.3471,0.3418,0.3369,0.3377,0.345,0.3476,0.3508,0.355,0.3576,0.3591,0.3604,0.3644,0.3715,0.3774,0.3849,0.396,0.4798,0.6333,0.7675,0.8532,0.9265,0.9812,0.9748,1.0914,1.1716,1.1837,1.1837,1.1837,1.1837,1.1837,1.1889,-0.8209,-0.7866,-0.7633,-0.7448,-0.7288,-0.7271,-0.726,-0.7221,-0.721,-0.7013,-0.6887,-0.7115,-0.7273,-0.7284,-0.754,-0.7796,-0.7969,-0.7995,-0.7998,-0.8099,-0.8002,-0.7992,-0.7988,-0.7988,-0.7942,-0.7912,-0.782,-0.7631,-0.7452,-0.7357,-0.7242,-0.7035,-0.6774,-0.6601,-0.6272,-0.5991,-0.5712,-0.5437,-0.5382,-0.5382,-0.5382,-0.5382,-0.51,-0.465,-0.4147,-0.3867,-0.3419,-0.2861,-0.2524,-0.2525,-0.2075,-0.1851,-0.1795,-0.1739,-0.1514,-0.0617,0.0112,0.0953,0.1793,0.2745,0.3362,0.3531,0.3587,0.3587,0.3587,0.3587,0.3587,0.3587,0.3582,0.3556,0.35,0.3523,0.3526,0.3503,0.3533,0.3572,0.3586,0.3587,0.3587,0.3587,0.3585,0.3568,0.3525,0.3485,0.3448,0.3409,0.336,0.3353,0.3428,0.3482,0.3515,0.3548,0.3576,0.3587,0.3597,0.3615,0.3689,0.3775,0.3854,0.396,0.4306,0.609,0.7492,0.725,0.7739,0.8836,0.9812,1.0611,1.1285,1.1591,1.1837,1.1837,1.1837,1.1837,1.1949,-0.8096,-0.7574,-0.7519,-0.7448,-0.7288,-0.7277,-0.7266,-0.7224,-0.721,-0.7076,-0.6878,-0.7328,-0.7404,-0.7406,-0.7743,-0.8056,-0.8099,-0.8099,-0.8049,-0.8157,-0.8049,-0.7988,-0.7988,-0.7988,-0.7889,-0.7717,-0.7625,-0.7485,-0.7287,-0.7211,-0.7205,-0.7127,-0.6813,-0.6548,-0.627,-0.5991,-0.5656,-0.5437,-0.5382,-0.5382,-0.5382,-0.5326,-0.5044,-0.4369,-0.3643,-0.3085,-0.2805,-0.23,-0.1963,-0.1963,-0.1851,-0.1795,-0.1795,-0.1795,-0.1683,-0.1346,-0.0561,0.0336,0.1121,0.1961,0.2801,0.3362,0.3587,0.3587,0.3587,0.3587,0.3587,0.3587,0.3579,0.3546,0.3441,0.3496,0.3484,0.3463,0.3489,0.3541,0.3576,0.3587,0.3587,0.3587,0.3582,0.3565,0.3516,0.347,0.3436,0.3401,0.3357,0.3377,0.3451,0.3492,0.3518,0.3552,0.3585,0.3587,0.359,0.3605,0.3649,0.3801,0.3819,0.3875,0.4639,0.644,0.7309,0.6823,0.7922,0.9815,1.055,1.0732,1.1163,1.1776,1.1837,1.1837,1.1837,1.1837,1.201,-0.8198,-0.7608,-0.7546,-0.7448,-0.729,-0.7277,-0.7266,-0.7221,-0.7207,-0.7056,-0.7045,-0.7313,-0.7445,-0.7451,-0.7696,-0.7965,-0.8076,-0.8035,-0.8035,-0.8123,-0.8025,-0.7988,-0.7988,-0.7988,-0.7739,-0.7566,-0.7507,-0.7437,-0.7246,-0.7201,-0.7088,-0.6879,-0.6604,-0.6328,-0.6049,-0.5712,-0.5547,-0.5437,-0.5382,-0.5382,-0.5326,-0.5156,-0.465,-0.3979,-0.3197,-0.258,-0.2188,-0.2019,-0.1795,-0.1795,-0.1795,-0.1795,-0.1795,-0.1795,-0.1795,-0.1627,-0.0953,-0.028,0.0392,0.1345,0.2409,0.2801,0.325,0.3587,0.3587,0.3587,0.3587,0.3587,0.3585,0.3553,0.3471,0.351,0.3508,0.3482,0.3507,0.355,0.3578,0.3586,0.3587,0.3587,0.3585,0.356,0.3506,0.3463,0.3427,0.339,0.3353,0.3401,0.3473,0.3496,0.3518,0.3565,0.3597,0.3594,0.3598,0.361,0.3643,0.3787,0.3854,0.3849,0.4688,0.6377,0.6517,0.6031,0.7861,1.0671,1.0668,1.0668,1.1281,1.1837,1.1837,1.1837,1.1837,1.1893,1.201,-0.8295,-0.769,-0.757,-0.739,-0.7288,-0.7277,-0.7266,-0.7226,-0.721,-0.7141,-0.7048,-0.7288,-0.7372,-0.7382,-0.755,-0.7753,-0.7875,-0.7919,-0.7915,-0.7999,-0.8008,-0.7988,-0.7988,-0.7895,-0.7709,-0.7393,-0.7416,-0.7381,-0.7163,-0.7149,-0.703,-0.6771,-0.6439,-0.6102,-0.5822,-0.5547,-0.5437,-0.5382,-0.5382,-0.5382,-0.51,-0.465,-0.4033,-0.3419,-0.2861,-0.2244,-0.1907,-0.1851,-0.1795,-0.1795,-0.1795,-0.1795,-0.1795,-0.1795,-0.1795,-0.1683,-0.1065,-0.0673,-0.0056,0.0616,0.1624,0.2296,0.2913,0.3306,0.3587,0.3587,0.3587,0.3587,0.3586,0.3561,0.3508,0.3549,0.3546,0.3523,0.3542,0.3587,0.3586,0.3587,0.3587,0.3587,0.3587,0.3557,0.3507,0.348,0.3448,0.3416,0.3382,0.3417,0.3478,0.3491,0.3519,0.3576,0.3608,0.3605,0.361,0.3623,0.3669,0.3744,0.3794,0.3838,0.4862,0.6149,0.609,0.6517,0.9022,1.1345,1.097,1.0785,1.1405,1.1837,1.1837,1.1837,1.1837,1.1897,1.2014,-0.8295,-0.7687,-0.7568,-0.7448,-0.7339,-0.7271,-0.7263,-0.7218,-0.721,-0.7089,-0.6999,-0.7248,-0.7284,-0.7173,-0.7217,-0.7431,-0.755,-0.7651,-0.7745,-0.7898,-0.7885,-0.7949,-0.7949,-0.7746,-0.7588,-0.7322,-0.7316,-0.7106,-0.7029,-0.7109,-0.6985,-0.6715,-0.6383,-0.6105,-0.5768,-0.5491,-0.5382,-0.5382,-0.5382,-0.5156,-0.465,-0.4089,-0.3475,-0.2861,-0.23,-0.1907,-0.1795,-0.1795,-0.1795,-0.1795,-0.1795,-0.1795,-0.1795,-0.1795,-0.1795,-0.1795,-0.1627,-0.129,-0.0617,0.0,0.0672,0.1624,0.224,0.2801,0.3194,0.3419,0.3475,0.3587,0.3587,0.3567,0.353,0.3556,0.3546,0.3544,0.3555,0.358,0.3587,0.3587,0.3587,0.3587,0.3587,0.3556,0.3514,0.3495,0.3473,0.344,0.3424,0.3459,0.3496,0.3519,0.3545,0.3609,0.3631,0.3628,0.3617,0.3631,0.3679,0.3753,0.379,0.3949,0.5108,0.6274,0.737,0.8282,1.0607,1.1526,1.0974,1.0974,1.1591,1.1837,1.1837,1.1837,1.1837,1.1897,1.2074,-0.8363,-0.7716,-0.7418,-0.7282,-0.7236,-0.7233,-0.7206,-0.7218,-0.721,-0.7182,-0.7141,-0.7243,-0.7217,-0.7136,-0.7187,-0.7272,-0.7308,-0.7369,-0.7519,-0.7626,-0.7632,-0.7682,-0.78,-0.762,-0.7428,-0.7351,-0.7255,-0.7229,-0.7072,-0.7051,-0.699,-0.655,-0.633,-0.6051,-0.5659,-0.5491,-0.5437,-0.5382,-0.5382,-0.51,-0.448,-0.3921,-0.3307,-0.2693,-0.2076,-0.1851,-0.1795,-0.1795,-0.1795,-0.1795,-0.1795,-0.1795,-0.1795,-0.1795,-0.1795,-0.1795,-0.1795,-0.157,-0.1234,-0.0729,0.0,0.0616,0.1233,0.1849,0.2577,0.2913,0.3138,0.3587,0.3587,0.3572,0.3555,0.3572,0.3568,0.3565,0.357,0.3576,0.3587,0.3587,0.3587,0.3587,0.3586,0.356,0.3536,0.3516,0.3512,0.3512,0.3491,0.3501,0.355,0.3595,0.3623,0.3655,0.3661,0.3711,0.3639,0.3636,0.3673,0.3734,0.383,0.4179,0.5301,0.6455,0.7612,0.8955,1.0668,1.116,1.0853,1.116,1.1712,1.1837,1.1837,1.1837,1.1893,1.207,1.2307,-0.842,-0.7957,-0.7527,-0.7376,-0.7432,-0.7376,-0.7435,-0.7432,-0.7435,-0.7376,-0.7257,-0.7224,-0.7148,-0.7059,-0.7049,-0.6986,-0.6989,-0.7039,-0.7191,-0.7297,-0.7334,-0.7449,-0.7569,-0.7464,-0.7301,-0.7213,-0.724,-0.7203,-0.7155,-0.7108,-0.6879,-0.633,-0.6161,-0.5884,-0.5549,-0.5382,-0.5326,-0.51,-0.51,-0.4707,-0.4035,-0.3586,-0.3027,-0.2524,-0.2075,-0.1795,-0.1795,-0.1795,-0.1795,-0.1795,-0.1795,-0.1795,-0.1795,-0.1795,-0.1795,-0.1795,-0.1795,-0.1795,-0.157,-0.1177,-0.0729,-0.0168,0.0673,0.1849,0.252,0.2576,0.2744,0.3587,0.3587,0.3587,0.3587,0.3586,0.3583,0.358,0.3585,0.3587,0.3587,0.3587,0.3587,0.3587,0.3587,0.3587,0.3564,0.3541,0.3544,0.357,0.3568,0.3556,0.3598,0.3655,0.3696,0.3722,0.3714,0.3706,0.3691,0.3684,0.3709,0.3715,0.3812,0.4163,0.5156,0.6496,0.7858,0.9323,1.0853,1.1285,1.1345,1.1591,1.1837,1.1837,1.1837,1.1893,1.1953,1.2186,1.2483,-0.8501,-0.8442,-0.8103,-0.7934,-0.7934,-0.7934,-0.7937,-0.7878,-0.7878,-0.7771,-0.7479,-0.7215,-0.6993,-0.6851,-0.6769,-0.6636,-0.6495,-0.6742,-0.6842,-0.7033,-0.7208,-0.7319,-0.7389,-0.7319,-0.7269,-0.7328,-0.7222,-0.7169,-0.7116,-0.7077,-0.6826,-0.6386,-0.6102,-0.577,-0.5437,-0.527,-0.5044,-0.4761,-0.4594,-0.3979,-0.3309,-0.2861,-0.2524,-0.2075,-0.1851,-0.1795,-0.1795,-0.1795,-0.1795,-0.1795,-0.1795,-0.1795,-0.1795,-0.1795,-0.1795,-0.1795,-0.1795,-0.1795,-0.1683,-0.1627,-0.1234,-0.0224,0.0728,0.1737,0.2409,0.3194,0.3531,0.3419,0.3475,0.3587,0.3587,0.3587,0.3587,0.3587,0.3587,0.3587,0.3587,0.3587,0.3587,0.3587,0.3587,0.3587,0.3587,0.3563,0.3557,0.3579,0.3613,0.3604,0.3653,0.3707,0.3759,0.3844,0.3775,0.3767,0.3758,0.3748,0.3715,0.3714,0.374,0.409,0.464,0.6192,0.7997,0.9387,1.0732,1.1345,1.1837,1.1837,1.1837,1.1837,1.1833,1.201,1.2307,1.2603,1.2844,-0.8768,-0.8712,-0.8605,-0.8325,-0.7992,-0.7992,-0.7992,-0.7992,-0.7992,-0.7881,-0.7598,-0.7365,-0.7121,-0.6925,-0.6703,-0.6546,-0.6537,-0.6511,-0.6656,-0.6734,-0.6909,-0.7067,-0.7102,-0.7172,-0.7135,-0.7224,-0.7144,-0.7155,-0.7202,-0.7046,-0.6715,-0.6328,-0.6158,-0.5828,-0.5493,-0.51,-0.4706,-0.4482,-0.4089,-0.3475,-0.2917,-0.2637,-0.2412,-0.1851,-0.1795,-0.1795,-0.1795,-0.1795,-0.1795,-0.1795,-0.1795,-0.1795,-0.1795,-0.1795,-0.1795,-0.1795,-0.1795,-0.1795,-0.1795,-0.1795,-0.157,-0.1402,-0.0617,0.028,0.1457,0.1681,0.2241,0.2633,0.325,0.3363,0.3587,0.3587,0.3587,0.3587,0.3587,0.3587,0.3587,0.3587,0.3587,0.3587,0.3587,0.3587,0.3587,0.3585,0.3583,0.359,0.3624,0.3664,0.3713,0.3756,0.3807,0.3841,0.3834,0.3793,0.3778,0.3745,0.3711,0.3713,0.3782,0.4359,0.4952,0.6428,0.8159,0.9496,1.0646,1.1358,1.1727,1.1824,1.1833,1.1889,1.2066,1.2303,1.2599,1.302,1.3204,-0.8937,-0.8937,-0.8937,-0.866,-0.8266,-0.8269,-0.8269,-0.8269,-0.8269,-0.8048,-0.7709,-0.7561,-0.7285,-0.6993,-0.6828,-0.6671,-0.6616,-0.654,-0.6611,-0.6701,-0.6733,-0.6843,-0.7018,-0.7129,-0.7125,-0.7202,-0.721,-0.721,-0.721,-0.6935,-0.6659,-0.6439,-0.6272,-0.594,-0.5382,-0.4819,-0.4424,-0.4145,-0.3643,-0.3029,-0.2468,-0.2356,-0.23,-0.1851,-0.1795,-0.1795,-0.1795,-0.1795,-0.1795,-0.1795,-0.1795,-0.1795,-0.1795,-0.1795,-0.1795,-0.1795,-0.1795,-0.1795,-0.1795,-0.1795,-0.1683,-0.1177,-0.1121,-0.0617,-0.0112,0.0561,0.1401,0.1737,0.241,0.2915,0.3083,0.3081,0.3362,0.3418,0.3587,0.3587,0.3587,0.3587,0.3587,0.3587,0.3587,0.3587,0.3589,0.3591,0.3612,0.3628,0.368,0.3725,0.3779,0.3819,0.385,0.3879,0.389,0.3838,0.3785,0.3777,0.3758,0.3672,0.3918,0.4833,0.571,0.7054,0.8216,0.9439,1.0513,1.1379,1.171,1.1766,1.1879,1.1941,1.2238,1.2659,1.29,1.32,1.3384,-0.8937,-0.8937,-0.8937,-0.8881,-0.8826,-0.8881,-0.8826,-0.8771,-0.8826,-0.8494,-0.7992,-0.7695,-0.7364,-0.7062,-0.6942,-0.6831,-0.6695,-0.6638,-0.6616,-0.6646,-0.6794,-0.6864,-0.7018,-0.7119,-0.7182,-0.7202,-0.721,-0.721,-0.721,-0.7157,-0.6826,-0.6386,-0.6163,-0.594,-0.5382,-0.4817,-0.4201,-0.3642,-0.3085,-0.2412,-0.2075,-0.1963,-0.1907,-0.1851,-0.1795,-0.1795,-0.1795,-0.1795,-0.1795,-0.1795,-0.1795,-0.1795,-0.1795,-0.1795,-0.1795,-0.1795,-0.1795,-0.1795,-0.1795,-0.1795,-0.1458,-0.0953,-0.1065,-0.0617,0.0336,0.0785,0.0729,0.0953,0.1233,0.1627,0.1906,0.2297,0.269,0.2978,0.3093,0.3306,0.3306,0.3587,0.3587,0.3587,0.3587,0.3587,0.3589,0.3597,0.3628,0.3666,0.3729,0.3785,0.3838,0.3872,0.3897,0.3906,0.392,0.3875,0.3828,0.3834,0.3798,0.3755,0.4161,0.5178,0.6145,0.729,0.8427,0.9507,1.051,1.149,1.1715,1.1803,1.2005,1.2329,1.2766,1.308,1.3264,1.3384,1.3564,-0.8937,-0.8937,-0.8937,-0.8937,-0.8937,-0.8937,-0.8937,-0.8937,-0.8881,-0.8549,-0.81,-0.7881,-0.7587,-0.7251,-0.7018,-0.6937,-0.6864,-0.6757,-0.6741,-0.6757,-0.6861,-0.6929,-0.7016,-0.715,-0.721,-0.721,-0.721,-0.721,-0.721,-0.721,-0.6826,-0.6386,-0.594,-0.5605,-0.5158,-0.454,-0.3755,-0.3475,-0.2747,-0.1963,-0.1795,-0.1795,-0.1795,-0.1795,-0.1795,-0.1795,-0.1795,-0.1795,-0.1795,-0.1795,-0.1795,-0.1795,-0.1795,-0.1795,-0.1795,-0.1795,-0.1795,-0.1795,-0.1795,-0.1795,-0.1683,-0.1346,-0.1177,-0.1065,-0.0897,-0.028,-0.0056,0.0168,0.0448,0.0844,0.1307,0.1351,0.1575,0.1758,0.1985,0.2416,0.2688,0.3306,0.3587,0.3587,0.3587,0.3587,0.3589,0.3604,0.3632,0.3668,0.3722,0.3815,0.388,0.3909,0.3933,0.3935,0.3872,0.3898,0.3868,0.3961,0.4146,0.4156,0.483,0.5838,0.6848,0.7749,0.901,1.0276,1.0962,1.1594,1.1777,1.2028,1.2434,1.2826,1.3113,1.3315,1.3504,1.3569,1.3629,-0.8937,-0.8937,-0.8937,-0.8937,-0.8937,-0.8937,-0.8937,-0.8937,-0.8881,-0.8549,-0.81,-0.7992,-0.7709,-0.7296,-0.7084,-0.7008,-0.698,-0.691,-0.6866,-0.6874,-0.694,-0.7002,-0.7117,-0.7166,-0.7202,-0.721,-0.721,-0.721,-0.721,-0.721,-0.6882,-0.6272,-0.5714,-0.5493,-0.5046,-0.4372,-0.3643,-0.3307,-0.2579,-0.1851,-0.1795,-0.1795,-0.1795,-0.1795,-0.1795,-0.1795,-0.1795,-0.1795,-0.1795,-0.1795,-0.1795,-0.1795,-0.1795,-0.1795,-0.1795,-0.1795,-0.1795,-0.1795,-0.1795,-0.1795,-0.1739,-0.1739,-0.1795,-0.1795,-0.1739,-0.1177,-0.0953,-0.0673,-0.0224,0.0113,0.0397,0.0393,0.0564,0.0739,0.119,0.1683,0.2017,0.2578,0.3138,0.3194,0.3587,0.3587,0.359,0.3615,0.3636,0.3673,0.3713,0.3808,0.3898,0.3924,0.3944,0.395,0.3943,0.3971,0.4043,0.4169,0.4344,0.4551,0.5461,0.6524,0.7421,0.8376,0.9694,1.0831,1.127,1.1642,1.2021,1.2312,1.2705,1.3026,1.3278,1.3522,1.3679,1.3688,1.3688,-0.8937,-0.8937,-0.8937,-0.8937,-0.8937,-0.8937,-0.8937,-0.8881,-0.8881,-0.8549,-0.7992,-0.7989,-0.7657,-0.7265,-0.7202,-0.7147,-0.7024,-0.6994,-0.6991,-0.6989,-0.7013,-0.707,-0.7169,-0.7204,-0.721,-0.721,-0.721,-0.721,-0.721,-0.7046,-0.6715,-0.6272,-0.5717,-0.5493,-0.5044,-0.4316,-0.3699,-0.3251,-0.2466,-0.1907,-0.1795,-0.1795,-0.1795,-0.1795,-0.1795,-0.1795,-0.1795,-0.1795,-0.1795,-0.1795,-0.1795,-0.1795,-0.1795,-0.1795,-0.1795,-0.1795,-0.1795,-0.1795,-0.1795,-0.1795,-0.1795,-0.1795,-0.1795,-0.1795,-0.1733,-0.1617,-0.1501,-0.1501,-0.1222,-0.0893,-0.0617,-0.0393,-0.0169,0.0169,0.0619,0.0954,0.1177,0.1625,0.2241,0.2688,0.3306,0.3531,0.3587,0.3606,0.3625,0.3647,0.3683,0.3733,0.3822,0.3902,0.3924,0.395,0.4002,0.4045,0.4175,0.4474,0.5231,0.5672,0.6228,0.7163,0.8051,0.9054,1.0176,1.1099,1.1406,1.1733,1.2125,1.2534,1.2901,1.321,1.3353,1.3558,1.366,1.3744,1.3863,-0.8937,-0.8937,-0.8937,-0.8937,-0.8937,-0.8881,-0.8937,-0.8881,-0.8712,-0.8377,-0.7992,-0.7771,-0.7549,-0.721,-0.721,-0.7185,-0.7169,-0.7161,-0.7163,-0.7158,-0.7086,-0.718,-0.7199,-0.721,-0.721,-0.721,-0.721,-0.721,-0.7099,-0.6879,-0.6606,-0.6219,-0.5717,-0.5493,-0.4933,-0.4204,-0.3811,-0.3251,-0.2354,-0.1963,-0.1795,-0.1795,-0.1795,-0.1795,-0.1795,-0.1795,-0.1795,-0.1851,-0.1851,-0.1851,-0.1851,-0.1795,-0.1795,-0.1795,-0.1795,-0.1795,-0.1795,-0.1795,-0.1795,-0.1795,-0.1793,-0.1792,-0.1792,-0.178,-0.1827,-0.1816,-0.1755,-0.1754,-0.1762,-0.1384,-0.1227,-0.1119,-0.0956,-0.0733,-0.0282,0.0112,0.0392,0.0841,0.1456,0.2632,0.325,0.3418,0.3475,0.359,0.3609,0.3624,0.3707,0.3694,0.3758,0.3843,0.4021,0.4109,0.4252,0.4418,0.4742,0.504,0.6029,0.6807,0.7347,0.8109,0.9313,1.0257,1.0962,1.14,1.1732,1.1964,1.2293,1.2618,1.2969,1.3091,1.3301,1.3485,1.3636,1.372,1.4272,-0.8937,-0.8937,-0.8937,-0.8826,-0.8768,-0.8712,-0.8716,-0.8546,-0.8488,-0.8263,-0.7826,-0.766,-0.7438,-0.7213,-0.721,-0.7207,-0.7204,-0.7199,-0.7199,-0.7199,-0.721,-0.7207,-0.721,-0.721,-0.721,-0.721,-0.721,-0.721,-0.7046,-0.6659,-0.6272,-0.6274,-0.5717,-0.5324,-0.4819,-0.4091,-0.3533,-0.2971,-0.2411,-0.1963,-0.1795,-0.1795,-0.1795,-0.1851,-0.1851,-0.1851,-0.1907,-0.1963,-0.2132,-0.2243,-0.2299,-0.2522,-0.2467,-0.2355,-0.2188,-0.2132,-0.1907,-0.1851,-0.1795,-0.1795,-0.1788,-0.178,-0.1776,-0.1807,-0.1796,-0.1787,-0.1726,-0.1723,-0.174,-0.1757,-0.1772,-0.1787,-0.1747,-0.1704,-0.1242,-0.0785,-0.0336,0.0112,0.1233,0.2577,0.3081,0.325,0.3362,0.3531,0.3589,0.3601,0.362,0.3651,0.3722,0.387,0.4162,0.4378,0.4656,0.4918,0.5297,0.5728,0.6591,0.7541,0.8265,0.9154,1.0524,1.1185,1.1564,1.1837,1.2055,1.2232,1.2356,1.2639,1.2876,1.307,1.3197,1.34,1.3561,1.3636,1.448,-0.8895,-0.8937,-0.8937,-0.8768,-0.854,-0.854,-0.8322,-0.8045,-0.8266,-0.8159,-0.7662,-0.7551,-0.7438,-0.721,-0.721,-0.721,-0.721,-0.721,-0.721,-0.721,-0.721,-0.721,-0.721,-0.721,-0.721,-0.721,-0.721,-0.721,-0.7046,-0.6659,-0.6274,-0.6277,-0.5661,-0.527,-0.4819,-0.4035,-0.3531,-0.3251,-0.2579,-0.1963,-0.1851,-0.1795,-0.1851,-0.1907,-0.1963,-0.1963,-0.2132,-0.2412,-0.2806,-0.2973,-0.3141,-0.3475,-0.3307,-0.3029,-0.2805,-0.2519,-0.218,-0.1952,-0.1836,-0.1776,-0.1764,-0.1809,-0.1799,-0.1773,-0.1762,-0.1761,-0.1755,-0.1694,-0.1707,-0.1783,-0.1746,-0.1778,-0.18,-0.1806,-0.1518,-0.1065,-0.0673,-0.0056,0.0897,0.2017,0.252,0.2744,0.3475,0.3587,0.3587,0.3589,0.3597,0.3623,0.3729,0.382,0.4234,0.4636,0.4979,0.538,0.5939,0.648,0.7218,0.8099,0.894,0.9973,1.1114,1.1682,1.211,1.2164,1.2219,1.2273,1.2424,1.2644,1.2856,1.2947,1.3136,1.3339,1.348,1.3603,1.4826,-0.9035,-0.8885,-0.8937,-0.8768,-0.854,-0.854,-0.8211,-0.7715,-0.7771,-0.7715,-0.7607,-0.7382,-0.7324,-0.7376,-0.721,-0.721,-0.721,-0.721,-0.721,-0.721,-0.721,-0.721,-0.721,-0.721,-0.721,-0.721,-0.721,-0.721,-0.7046,-0.6659,-0.6274,-0.6219,-0.5717,-0.5214,-0.4987,-0.4148,-0.3699,-0.3642,-0.2971,-0.23,-0.2019,-0.1963,-0.1907,-0.23,-0.2468,-0.2691,-0.2915,-0.3195,-0.3365,-0.3419,-0.3531,-0.3587,-0.3587,-0.3421,-0.3141,-0.2744,-0.2554,-0.221,-0.1925,-0.1803,-0.173,-0.1722,-0.1711,-0.1745,-0.1734,-0.1736,-0.1732,-0.1671,-0.1675,-0.17,-0.1729,-0.1765,-0.1794,-0.1794,-0.1795,-0.1346,-0.0953,-0.0224,0.0561,0.1233,0.1792,0.252,0.325,0.3587,0.3587,0.3587,0.3587,0.3602,0.3676,0.3799,0.4291,0.4756,0.5348,0.581,0.6442,0.7087,0.7737,0.8696,0.9599,1.0619,1.1717,1.201,1.2273,1.2327,1.2382,1.2382,1.2438,1.2644,1.2791,1.2909,1.3136,1.3362,1.3514,1.3636,1.5133,-0.9167,-0.9035,-0.8964,-0.8657,-0.8322,-0.8263,-0.7934,-0.7493,-0.7438,-0.7438,-0.7438,-0.7321,-0.7429,-0.7651,-0.7487,-0.7265,-0.7265,-0.721,-0.721,-0.721,-0.721,-0.721,-0.721,-0.721,-0.721,-0.721,-0.721,-0.7154,-0.7102,-0.6604,-0.6274,-0.6163,-0.5717,-0.5268,-0.5043,-0.4314,-0.3977,-0.4033,-0.3421,-0.2973,-0.2579,-0.2635,-0.2691,-0.3029,-0.3197,-0.3363,-0.3531,-0.3811,-0.3979,-0.4147,-0.4314,-0.4428,-0.4426,-0.4203,-0.3867,-0.346,-0.3042,-0.2462,-0.2176,-0.1936,-0.1803,-0.1795,-0.1738,-0.1774,-0.1954,-0.1955,-0.1711,-0.1653,-0.1664,-0.1739,-0.178,-0.1818,-0.1782,-0.1789,-0.1793,-0.157,-0.1402,-0.1065,-0.0056,0.1009,0.1569,0.2129,0.2914,0.3587,0.3587,0.3587,0.3587,0.3587,0.3658,0.3784,0.4325,0.4858,0.5434,0.6186,0.6983,0.7568,0.8169,0.9126,1.0128,1.1049,1.191,1.2179,1.2382,1.2382,1.2382,1.2382,1.2462,1.2663,1.2743,1.2838,1.3112,1.341,1.3537,1.371,1.4906,-0.932,-0.9228,-0.9052,-0.8651,-0.8128,-0.8075,-0.773,-0.7324,-0.7213,-0.7321,-0.7487,-0.7321,-0.7875,-0.8205,-0.7983,-0.7654,-0.7376,-0.7321,-0.7265,-0.721,-0.721,-0.721,-0.721,-0.721,-0.721,-0.721,-0.721,-0.721,-0.7154,-0.6715,-0.6328,-0.6163,-0.5714,-0.521,-0.4761,-0.448,-0.4369,-0.4203,-0.3924,-0.3811,-0.3755,-0.3699,-0.3587,-0.3643,-0.3699,-0.3755,-0.3979,-0.4258,-0.4594,-0.4761,-0.4931,-0.51,-0.51,-0.4819,-0.4538,-0.4126,-0.3512,-0.305,-0.2651,-0.2341,-0.2151,-0.1975,-0.1918,-0.2006,-0.2282,-0.2231,-0.1942,-0.1906,-0.1917,-0.1782,-0.1824,-0.1855,-0.1818,-0.184,-0.1788,-0.1794,-0.1739,-0.1627,-0.0561,0.0617,0.129,0.185,0.269,0.3419,0.3587,0.3587,0.3587,0.3587,0.3646,0.3935,0.4262,0.4818,0.5368,0.6276,0.7277,0.7699,0.8157,0.931,1.0254,1.1251,1.2087,1.228,1.2382,1.2382,1.2382,1.2382,1.2545,1.2691,1.2753,1.2843,1.3202,1.3514,1.3542,1.3815,1.4441,-0.9479,-0.9337,-0.9303,-0.8997,-0.8562,-0.8326,-0.798,-0.7504,-0.7326,-0.7706,-0.8036,-0.7595,-0.7817,-0.8923,-0.8754,-0.8481,-0.8205,-0.7762,-0.7321,-0.721,-0.721,-0.721,-0.7221,-0.7235,-0.7215,-0.7235,-0.7251,-0.7218,-0.719,-0.6844,-0.6495,-0.6274,-0.5935,-0.5545,-0.5212,-0.4931,-0.465,-0.4596,-0.454,-0.4426,-0.4538,-0.437,-0.4033,-0.4089,-0.4313,-0.465,-0.4931,-0.5156,-0.5214,-0.527,-0.527,-0.5382,-0.5326,-0.5214,-0.4987,-0.4614,-0.3991,-0.3666,-0.3256,-0.2925,-0.2723,-0.2709,-0.2703,-0.2749,-0.2929,-0.2929,-0.275,-0.2727,-0.2587,-0.2026,-0.1957,-0.1925,-0.1946,-0.1873,-0.1835,-0.1789,-0.1739,-0.157,-0.0953,0.0056,0.0953,0.1905,0.3026,0.3475,0.3587,0.3587,0.3587,0.3587,0.3643,0.3926,0.4265,0.4848,0.5441,0.6269,0.724,0.7467,0.7971,0.9178,1.0334,1.1335,1.2037,1.2302,1.2387,1.2443,1.241,1.2382,1.2564,1.271,1.288,1.3022,1.3381,1.3636,1.3632,1.3751,1.4262]}]]